GFSGL_sfc_dewp_000.txt.gz
Dewpoint
25 27 28 29 30 31 32 33 34 34 34 34 33 34 31 31 31 28 26 27 29 28 24 23 23 23 23 24 23 22 22 22 20 20 24 25 27 31 28 31 31 31 34
24 26 28 29 30 30 31 31 32 31 31 32 33 33 33 30 28 25 26 27 24 22 22 22 21 19 20 19 20 19 20 21 21 21 23 24 26 29 28 30 30 25 29
21 23 28 30 31 30 28 29 30 30 30 32 33 31 28 26 25 25 26 24 21 21 21 21 21 21 19 19 19 20 21 24 26 26 25 25 25 27 26 28 28 28 23
22 25 28 30 31 31 31 30 31 33 34 32 30 29 26 24 24 25 22 21 21 21 22 21 21 21 20 20 21 21 23 22 22 24 24 24 24 24 24 24 22 25 23
23 24 28 31 32 32 32 33 33 33 34 31 31 24 22 23 23 22 20 21 21 21 21 21 21 23 26 25 20 20 20 22 22 23 22 22 24 22 19 22 20 21 22
24 25 30 31 32 32 33 33 33 35 32 26 19 21 23 21 28 28 29 27 24 21 24 24 24 23 22 22 22 22 21 20 21 22 21 21 22 25 26 21 20 19 15
25 26 30 31 32 32 32 32 32 31 29 26 22 23 23 27 30 30 29 24 23 22 19 18 17 16 19 20 22 22 22 25 27 26 23 22 25 24 22 21 20 20 19
24 26 30 31 31 31 31 31 31 31 30 20 23 24 26 24 26 27 24 21 20 19 17 18 17 18 19 18 21 24 22 22 22 21 22 24 25 26 23 22 22 21 23
24 26 28 30 30 31 31 30 30 30 26 24 24 23 19 20 23 21 21 21 20 18 18 18 18 18 20 23 21 22 20 20 20 22 22 22 23 24 28 26 23 22 21
25 26 28 30 30 30 30 29 28 21 22 22 22 20 18 19 19 19 19 19 15 18 20 18 19 19 21 21 24 22 20 21 22 24 23 22 23 23 23 23 24 24 24
26 27 28 28 28 28 27 25 20 22 22 22 22 20 18 19 18 18 18 17 17 20 19 18 19 21 19 18 22 22 23 22 22 22 22 22 22 22 21 22 22 23 22
26 27 27 28 27 25 24 20 22 22 19 20 13 17 18 19 17 18 19 18 18 13 17 19 19 18 17 18 18 21 22 21 21 20 20 20 22 22 23 24 23 24 23
28 28 27 27 25 25 22 20 20 19 17 17 19 14 16 19 17 18 20 18 17 14 17 16 17 16 17 17 17 18 20 19 19 18 19 19 22 24 26 27 27 27 27
29 27 27 26 25 25 21 20 20 18 17 19 19 17 14 15 13 14 16 13 16 17 14 12 14 17 13 15 15 15 16 17 17 17 18 20 22 24 25 27 26 26 26
30 29 28 26 26 24 21 21 22 20 20 19 18 17 6 2 11 16 17 14 9 13 6 4 8 11 11 13 13 13 13 13 14 15 16 17 19 21 24 27 27 27 25
29 27 28 29 31 28 22 23 26 25 24 25 24 16 10 16 18 20 20 18 16 16 7 2 -3 -1 8 11 12 11 11 9 10 13 14 15 15 17 20 23 24 24 24
30 30 28 30 31 27 24 22 20 21 25 27 28 26 23 18 22 21 20 19 15 13 5 2 -5 -4 2 12 12 11 10 9 9 10 12 12 13 15 18 19 21 21 21
31 29 29 28 27 28 25 23 21 16 14 16 20 26 26 25 24 22 20 17 10 8 7 4 2 2 6 10 11 10 10 8 6 5 8 10 11 13 15 17 17 18 18
31 30 28 26 17 19 20 19 20 19 19 16 13 18 19 26 25 24 21 9 7 6 7 8 4 4 7 7 1 2 5 6 5 2 4 5 7 10 13 14 14 12 14
32 30 27 25 23 18 17 21 21 19 20 18 13 14 11 17 9 6 -2 -3 -1 7 6 7 8 7 4 3 -4 -7 -0 2 6 6 5 4 4 6 10 10 11 11 12
32 31 26 21 24 26 24 19 18 17 21 19 15 9 10 14 15 10 8 4 5 8 7 7 7 2 -2 -3 3 -1 -1 -1 2 6 6 7 4 6 8 9 9 11 11
31 30 27 26 26 25 24 22 17 16 17 18 19 10 12 5 11 11 10 10 10 9 10 8 8 7 6 6 4 -5 -4 -5 -4 -0 4 6 7 8 8 8 7 8 9
30 29 28 25 25 21 14 17 17 14 15 17 19 17 13 16 13 13 17 14 10 8 7 6 5 5 3 1 -1 2 2 3 2 -3 -3 1 7 8 7 6 7 7 7
31 30 29 24 23 17 15 15 15 14 16 19 18 19 18 17 16 15 14 12 8 6 0 4 6 7 6 -0 -4 -1 3 -0 -0 2 -4 -2 3 6 7 7 7 6 6
31 31 29 26 24 23 24 23 22 21 21 21 21 22 21 20 18 17 16 13 10 5 5 2 5 6 6 5 2 2 -1 4 -2 -3 -1 -1 -1 -1 2 6 6 6 6
31 31 30 29 27 27 27 26 26 25 25 25 25 24 22 21 21 21 19 15 12 10 7 3 5 6 5 5 4 2 -2 -1 -1 -3 -4 3 0 1 1 2 5 6 6

GFSGL_sfc_dewp_003.txt.gz
Dewpoint
25 28 30 30 32 32 32 32 34 36 37 37 36 35 35 33 32 32 31 30 30 31 30 27 25 24 22 20 20 19 18 18 17 17 16 20 23 24 23 27 30 31 30
25 27 29 31 32 31 32 32 34 34 34 34 35 34 34 33 31 29 29 28 28 27 26 24 23 19 21 22 20 20 19 19 18 15 18 22 23 26 26 29 27 24 30
21 23 27 30 31 31 32 33 34 34 34 35 35 34 30 30 26 27 28 27 26 24 23 23 23 22 21 22 21 20 20 19 20 21 17 18 20 22 25 26 28 29 25
21 23 27 31 32 32 33 34 35 36 36 35 34 33 32 25 25 26 25 24 23 23 24 23 24 24 23 22 23 25 24 21 18 17 18 17 19 19 26 24 24 27 23
24 23 27 32 33 32 33 34 35 36 36 35 32 24 25 25 22 25 23 24 25 25 24 23 22 24 24 23 20 21 19 18 19 18 16 16 17 18 26 27 24 22 22
25 26 27 32 32 32 33 34 35 35 35 30 29 26 25 23 30 31 28 23 20 18 17 17 16 17 18 20 20 21 21 19 20 18 21 16 15 17 21 26 26 22 17
24 25 27 30 31 32 32 31 33 34 34 33 27 26 26 27 27 27 25 18 16 16 15 13 13 13 17 16 17 19 22 23 22 23 21 19 18 19 22 25 24 23 20
22 24 27 29 30 31 31 30 33 33 32 31 26 25 25 22 23 22 22 20 17 15 14 15 14 15 16 17 19 20 17 16 17 18 21 20 20 20 21 24 21 21 21
23 24 26 28 29 30 30 31 31 29 29 28 26 24 18 18 20 20 20 21 19 17 17 16 16 15 18 21 18 19 16 15 19 22 25 25 24 24 24 24 26 23 23
24 25 26 27 30 29 30 30 29 27 21 24 22 19 17 18 18 19 19 21 21 19 18 16 17 18 20 18 19 20 19 20 17 19 20 20 22 21 23 22 20 24 24
26 27 28 28 29 30 30 28 25 23 24 26 23 21 18 18 19 18 18 22 21 19 16 14 17 19 18 18 18 19 21 20 20 20 18 18 18 19 20 21 20 21 21
28 28 29 30 29 27 28 26 22 23 24 25 26 24 21 21 16 18 19 19 19 20 19 17 19 17 17 17 16 18 18 20 21 21 21 20 21 21 21 21 23 24 22
29 29 30 30 29 28 26 24 21 22 23 23 21 24 22 22 20 17 19 21 19 20 20 17 16 16 15 13 15 16 16 18 19 19 19 20 21 23 25 26 26 25 25
29 29 30 29 29 26 25 22 22 24 24 22 24 23 22 21 22 20 21 23 20 19 18 17 17 16 15 15 14 14 15 15 16 18 18 20 23 25 27 29 27 28 26
29 28 27 29 29 28 24 22 23 22 24 25 24 24 27 26 24 21 22 23 23 20 18 18 16 15 14 13 14 13 13 11 13 16 18 19 20 22 24 28 28 29 28
29 28 29 29 29 30 31 26 26 27 25 26 25 26 28 23 20 20 21 21 19 17 17 17 18 17 16 13 14 13 13 11 11 14 17 18 19 21 22 24 25 27 27
29 30 31 30 30 31 31 30 26 26 25 27 28 29 26 25 23 23 22 21 20 17 19 18 19 19 17 13 12 12 12 12 12 14 16 17 18 19 21 21 22 23 23
30 31 32 31 31 31 32 32 30 28 30 29 27 25 27 27 26 24 24 21 21 19 19 19 19 19 17 14 13 12 12 12 11 12 15 16 17 18 20 19 20 21 21
31 32 34 33 32 29 28 29 30 30 29 28 28 25 26 26 27 26 26 25 24 22 21 20 21 19 18 17 18 16 15 14 12 12 14 14 16 16 17 18 19 19 17
32 32 33 33 31 29 28 29 30 30 30 29 28 28 26 22 27 28 28 27 25 23 23 21 21 21 21 19 20 18 16 15 13 12 13 15 15 15 16 17 18 18 17
32 32 30 32 31 31 30 29 29 30 29 28 29 32 26 25 27 27 27 27 25 24 25 24 25 24 23 21 18 18 15 16 13 12 12 13 14 13 14 16 16 16 15
31 31 32 31 30 30 31 31 30 28 28 28 28 30 22 23 26 27 28 28 28 26 26 26 25 24 23 22 20 20 17 15 15 13 12 11 13 14 13 13 14 15 14
31 32 32 31 30 30 30 30 30 29 28 28 27 27 29 28 27 27 28 29 28 28 27 25 25 24 23 22 21 20 17 16 16 14 12 12 13 14 14 13 11 11 11
33 32 32 32 32 30 29 29 30 27 27 28 28 28 28 29 30 29 29 30 28 28 27 24 23 22 23 22 21 19 17 16 16 13 10 11 12 13 13 11 12 11 11
33 32 32 32 31 31 30 29 29 30 30 30 30 30 30 30 29 30 30 29 28 27 26 23 22 22 20 19 19 17 15 12 13 10 11 10 11 11 12 10 12 11 10
33 32 32 32 32 32 31 31 31 31 31 31 31 31 31 30 30 30 30 29 28 26 26 25 23 20 20 20 18 16 10 10 11 7 10 11 11 12 12 10 8 12 10

GFSGL_sfc_dewp_006.txt.gz
Dewpoint
26 29 31 31 30 31 30 30 31 33 32 33 35 37 36 33 32 33 28 25 24 25 26 25 24 24 22 22 21 20 19 18 17 17 17 20 21 22 24 25 26 25 30
26 28 29 30 30 29 29 29 32 32 33 33 33 34 33 32 32 27 25 24 24 24 25 25 23 18 24 23 21 21 20 20 18 18 19 19 21 21 22 24 21 18 33
21 23 27 29 29 29 30 30 31 32 33 34 33 33 31 30 27 24 26 26 25 25 25 25 24 24 23 22 22 21 21 21 24 22 19 18 18 20 21 23 23 25 27
20 22 25 29 29 31 31 31 31 32 33 33 33 33 32 27 24 25 25 26 26 25 26 26 25 23 22 22 20 20 20 22 22 19 17 16 17 18 20 21 27 27 24
22 22 25 29 31 30 31 30 31 34 33 33 31 29 28 27 22 27 26 27 26 24 23 20 19 21 20 20 18 20 18 17 18 17 16 17 18 16 18 19 23 23 30
24 25 26 28 29 31 29 31 31 31 31 31 32 32 30 24 31 28 24 21 21 19 18 17 17 18 18 20 20 20 20 18 18 19 20 20 18 20 23 24 26 22 20
23 24 25 27 29 29 28 27 27 29 31 30 30 31 30 30 28 24 23 20 20 18 17 16 14 12 17 17 18 19 21 23 22 22 20 17 20 20 20 20 22 26 21
22 22 24 26 26 26 26 27 29 29 29 27 27 29 29 25 22 21 21 21 19 18 17 17 17 17 17 18 17 17 15 15 16 15 19 20 22 25 26 22 21 22 22
22 23 20 22 24 24 25 28 29 29 27 26 27 28 27 23 20 19 20 23 21 20 18 16 16 16 19 20 18 17 14 13 20 21 21 22 23 25 25 23 22 20 24
22 20 22 23 23 24 26 29 30 29 27 24 25 26 20 23 19 18 20 24 24 22 19 15 14 17 19 19 20 19 19 16 16 17 18 18 20 21 24 23 18 20 21
22 24 22 23 24 26 28 29 29 28 26 29 26 26 24 23 22 18 18 24 24 21 19 17 16 18 18 18 18 20 20 17 18 19 18 19 18 18 19 21 23 21 20
25 24 25 26 27 27 29 29 29 27 26 29 32 29 26 26 20 20 19 20 20 24 22 20 22 17 18 18 15 16 17 19 20 21 21 21 22 23 23 25 25 24 23
27 27 27 29 28 28 29 29 27 26 26 27 25 28 27 27 26 20 19 20 21 23 23 21 19 17 17 15 13 16 16 18 19 20 19 20 22 24 26 27 26 23 24
27 27 28 27 28 29 27 27 27 27 27 25 26 25 25 24 26 26 25 25 24 23 22 22 20 19 19 18 16 16 17 16 16 18 19 20 23 26 28 29 30 28 27
28 27 27 28 27 27 29 28 27 27 27 27 26 26 31 30 27 26 24 25 26 23 23 24 22 20 18 18 17 16 17 15 13 18 20 21 21 23 24 28 28 30 29
29 29 29 30 29 27 28 29 29 27 27 26 27 29 34 29 24 23 22 22 22 21 22 22 24 24 22 18 19 18 18 15 12 15 18 20 20 21 22 25 26 27 28
29 29 30 30 29 29 30 30 31 29 28 28 28 29 28 28 27 24 24 24 23 22 22 22 24 24 23 18 17 16 16 16 15 13 17 18 20 21 23 23 24 24 26
31 30 31 31 31 30 29 32 32 32 33 33 30 27 28 29 29 27 25 24 23 23 23 23 23 23 22 18 18 18 16 18 17 15 16 18 19 19 22 21 22 23 21
29 30 33 34 35 34 33 32 31 31 32 31 30 29 29 27 28 29 27 27 25 23 22 21 24 24 22 21 23 22 22 20 18 17 17 16 18 17 18 17 20 21 21
31 32 33 32 32 33 34 32 30 31 31 31 29 29 26 28 32 32 32 32 31 26 26 24 23 24 24 23 24 24 23 22 20 17 17 18 19 17 16 17 18 18 16
32 31 30 31 31 33 35 33 32 33 33 31 33 35 29 29 31 31 30 33 31 28 30 27 28 28 27 26 23 23 22 22 20 16 16 16 17 17 15 16 17 16 15
32 32 32 32 32 34 31 31 33 33 33 32 34 33 30 33 31 31 32 33 34 34 32 31 29 28 26 25 24 24 23 22 21 19 18 14 15 17 16 15 15 15 15
34 34 34 34 33 32 34 31 32 34 33 34 34 33 34 33 33 32 33 33 34 34 34 33 32 31 31 30 29 27 24 22 21 21 17 16 15 18 18 17 14 13 13
36 34 34 34 34 34 33 31 32 32 33 33 33 33 33 33 33 33 33 33 33 33 33 33 32 31 29 31 28 27 24 24 22 19 16 15 15 16 17 15 14 13 14
36 34 33 34 33 33 33 32 32 33 33 32 32 33 33 33 33 33 33 33 33 32 33 33 32 31 29 28 28 27 24 20 19 17 18 15 15 14 14 14 14 14 12
35 33 33 34 32 33 33 33 33 32 32 32 32 32 32 32 32 32 33 33 32 32 32 32 32 31 30 28 26 25 22 17 16 14 17 15 16 16 16 15 12 13 14

GFSGL_sfc_dewp_009.txt.gz
Dewpoint
31 31 33 31 31 31 30 29 29 31 30 29 30 32 31 31 31 31 32 32 27 27 28 28 26 26 24 23 23 22 20 21 21 21 19 21 23 23 22 24 25 27 27
30 31 31 32 30 29 29 28 30 30 30 30 31 30 29 29 29 28 28 26 26 26 27 26 25 21 24 22 22 21 21 21 21 20 22 23 23 23 23 23 21 19 25
26 27 28 29 30 29 29 30 29 29 30 31 30 30 29 31 30 29 26 26 28 28 26 27 26 25 22 21 21 21 20 16 21 23 22 23 21 21 20 21 20 24 21
22 23 25 29 30 30 30 30 29 28 30 30 30 29 30 27 24 24 24 26 27 28 29 25 22 21 21 22 19 19 18 19 18 18 17 17 18 20 21 21 23 26 25
23 22 26 29 30 29 30 30 29 30 29 29 29 31 32 29 24 28 28 28 26 25 24 20 20 20 19 19 17 19 18 17 16 15 16 18 18 21 19 19 23 24 26
26 26 26 28 27 28 29 30 29 28 27 27 27 28 32 28 31 28 24 24 22 21 21 20 19 22 21 22 22 21 20 18 18 17 17 17 18 17 21 24 24 21 20
25 25 25 26 25 28 27 25 25 27 28 27 26 26 30 30 29 24 22 21 23 23 21 18 16 13 19 18 21 22 21 23 25 22 20 19 22 21 23 26 24 23 23
23 23 24 24 24 24 24 24 25 28 27 26 25 26 27 27 26 22 21 23 24 22 20 19 18 18 19 19 17 17 16 15 14 14 19 20 19 19 20 19 19 19 21
23 23 23 20 20 21 22 23 25 27 27 26 25 24 24 26 24 21 20 24 24 22 21 19 17 15 21 20 18 17 15 14 17 22 21 22 24 24 23 24 22 19 23
22 23 19 20 20 20 22 23 25 27 26 25 25 25 24 28 23 21 20 25 25 24 21 19 19 17 19 19 19 18 18 16 13 14 16 19 21 21 25 24 22 21 21
22 22 21 20 21 23 25 26 26 27 28 31 29 28 28 27 26 22 20 23 25 23 20 20 20 20 19 19 19 19 19 16 17 18 19 20 20 22 24 23 24 24 25
24 23 22 23 24 24 28 28 28 28 29 30 33 30 30 28 24 23 21 21 21 23 23 22 24 21 19 19 18 16 17 18 22 20 21 21 20 22 22 24 24 24 25
25 25 25 26 26 26 28 28 29 27 28 30 29 31 28 30 32 25 23 21 21 24 25 24 21 21 19 19 17 17 19 20 18 18 20 20 20 23 25 28 33 30 23
28 27 28 28 27 27 27 28 27 28 29 28 29 27 27 23 26 28 26 26 24 25 26 25 24 23 23 22 22 20 19 19 17 16 19 19 23 24 25 27 28 30 30
29 29 28 31 30 28 27 28 32 29 27 30 29 29 34 32 27 28 28 28 28 26 24 25 23 23 21 21 20 19 20 19 17 17 18 20 21 21 22 26 26 28 29
30 30 31 31 31 29 28 28 31 31 30 27 27 31 35 30 27 26 26 23 22 23 23 23 24 26 24 21 21 19 20 18 18 16 17 17 18 20 21 24 25 26 26
30 31 31 31 30 29 30 30 30 31 29 28 28 28 28 31 30 28 26 24 24 24 23 23 25 26 25 21 20 19 19 19 19 18 17 17 18 17 20 23 22 23 22
31 30 31 31 32 33 33 32 33 33 34 35 30 27 28 30 30 30 28 26 24 25 23 23 24 26 24 21 20 20 20 22 20 18 18 19 19 18 18 17 20 22 21
30 30 32 35 35 33 34 34 33 32 31 32 32 31 31 30 30 30 30 28 26 25 24 25 28 26 24 24 26 26 24 23 22 21 20 19 20 18 16 16 17 18 19
31 31 32 34 34 32 31 31 32 33 33 33 32 31 30 30 32 31 32 31 31 28 28 26 26 27 28 27 28 28 25 25 24 22 20 20 20 19 18 16 18 17 15
33 34 33 34 33 31 32 32 32 33 33 32 34 35 31 31 33 33 32 33 32 31 31 30 30 31 32 31 26 26 24 23 22 21 20 19 19 17 18 17 16 15 14
35 35 34 34 34 35 33 33 33 32 32 32 33 34 32 34 33 33 32 33 34 33 33 32 31 30 30 29 29 30 26 24 24 22 21 19 17 18 19 18 17 16 14
36 36 35 34 35 34 35 34 33 34 33 34 33 33 34 33 34 33 33 34 35 34 34 33 33 31 32 33 32 30 27 25 24 23 21 20 18 18 19 19 17 15 14
35 37 36 35 35 35 35 34 34 33 32 33 33 33 33 33 33 33 33 34 34 33 33 33 33 33 31 33 33 31 28 28 26 22 20 19 18 17 18 17 16 15 14
35 35 34 35 34 33 33 33 33 33 33 33 33 33 33 33 33 33 33 34 34 33 33 33 33 33 33 32 31 29 28 26 24 22 21 19 17 16 16 16 16 15 15
33 33 33 33 33 33 33 32 32 33 32 32 32 32 32 32 32 33 33 33 32 31 32 32 33 33 33 32 32 29 28 25 23 21 21 19 18 17 18 17 16 15 15

GFSGL_sfc_dewp_012.txt.gz
Dewpoint
37 38 39 37 38 37 34 33 32 33 33 33 33 34 33 33 33 34 33 32 33 31 32 31 32 32 28 27 27 25 24 23 21 20 20 23 23 24 24 24 24 22 24
37 36 37 38 37 35 34 32 33 32 33 32 33 33 33 33 33 33 32 30 31 32 32 31 30 26 27 26 25 24 23 21 19 18 20 22 22 22 22 22 21 19 21
33 33 34 36 39 34 33 33 32 32 32 33 33 34 33 33 33 33 31 30 30 31 31 30 29 26 23 24 23 20 20 19 21 20 18 20 21 21 20 21 22 24 22
33 30 32 36 36 34 33 33 33 32 32 32 34 34 33 30 29 28 28 30 30 29 30 28 25 23 21 20 18 19 18 19 18 17 17 16 18 19 22 23 21 23 24
34 28 33 35 34 33 34 34 34 33 32 32 32 33 33 33 29 30 29 27 27 25 25 24 22 23 22 19 17 19 20 19 17 17 17 17 17 18 18 20 22 24 24
33 33 33 32 32 33 33 35 35 34 32 30 30 32 31 31 31 28 25 23 25 24 24 23 21 24 25 24 26 24 23 20 18 17 17 18 18 20 24 25 23 23 22
31 30 31 33 32 33 32 31 31 31 32 31 31 30 29 32 31 27 24 20 23 26 24 22 19 15 22 20 21 20 20 23 23 21 19 20 25 21 20 19 19 19 20
29 29 31 33 33 30 30 28 30 31 31 31 30 29 29 30 30 26 23 21 25 25 23 22 20 19 21 20 19 18 18 17 17 16 17 17 18 19 20 20 20 20 21
28 29 31 32 25 26 27 29 29 30 30 31 30 28 29 27 28 25 21 23 26 24 23 22 20 16 21 20 19 19 17 16 19 18 18 20 24 25 25 23 22 22 20
33 30 27 29 25 25 28 29 31 31 30 30 29 29 28 28 27 24 21 26 25 26 24 22 23 19 19 19 20 19 18 18 16 15 18 20 21 23 26 28 25 23 22
29 34 35 29 27 28 29 30 30 30 31 31 29 29 28 29 26 25 23 23 26 25 24 23 24 21 21 21 19 20 20 18 18 19 19 19 22 23 23 23 26 28 26
35 36 30 29 28 26 31 30 31 31 31 30 31 31 31 28 29 26 25 23 23 22 24 24 25 23 23 22 21 21 20 21 19 18 18 20 21 21 22 24 25 28 31
35 30 31 31 29 28 29 29 30 30 32 31 31 31 30 31 29 28 27 25 24 22 25 26 25 24 25 23 24 22 20 20 20 14 16 18 20 22 23 24 26 27 31
32 32 32 32 30 30 29 29 29 32 32 31 31 30 30 30 30 27 26 25 24 24 24 25 23 23 21 21 21 24 24 22 19 18 15 17 21 22 22 23 23 25 25
32 32 32 32 32 31 30 29 31 30 30 30 31 30 30 29 28 29 29 29 28 27 21 21 20 22 22 23 22 22 22 21 19 18 14 17 18 19 20 22 23 24 24
32 32 33 33 33 31 31 30 30 31 32 32 29 29 31 32 29 28 28 27 25 24 21 18 17 18 19 21 19 20 19 18 19 17 16 16 17 17 18 19 23 23 22
31 32 33 31 32 32 32 31 30 32 32 32 30 29 28 32 30 30 29 28 27 24 18 19 19 20 22 22 20 20 17 18 18 18 16 14 16 17 18 19 20 22 21
32 31 31 32 32 33 32 33 33 32 31 31 32 29 29 29 29 31 30 28 23 24 23 22 22 22 22 22 21 20 19 17 17 17 13 15 13 15 14 17 17 17 18
31 32 32 33 33 32 33 32 30 30 32 31 31 31 30 30 30 29 30 27 24 23 24 24 25 24 24 23 20 19 18 17 15 12 14 16 17 15 14 14 16 16 15
31 31 31 32 33 32 31 30 29 30 30 31 33 32 31 30 30 29 28 28 26 26 25 24 24 24 24 23 23 22 20 21 19 19 14 12 17 12 11 15 11 14 16
33 33 32 33 33 32 32 31 31 30 30 30 30 32 33 33 32 31 29 29 28 28 27 27 27 27 27 25 24 24 22 20 19 17 14 14 14 10 14 14 13 14 16
33 33 33 33 33 33 33 34 34 33 32 31 30 30 30 31 32 32 32 32 32 30 30 29 29 28 28 28 28 27 23 21 20 18 15 13 13 12 13 17 15 11 13
32 33 34 33 32 32 34 33 32 30 31 31 31 30 30 31 32 33 33 33 32 33 33 33 32 32 31 30 29 28 27 24 23 22 17 13 13 12 15 11 12 11 9
27 28 28 30 31 32 33 33 33 32 32 32 32 31 31 32 32 32 32 32 32 33 33 33 33 32 32 32 32 31 28 27 24 22 18 15 12 12 10 11 11 9 7
27 27 28 28 28 29 32 32 32 31 31 31 32 31 32 32 32 32 32 32 32 32 32 33 33 32 32 32 32 31 30 28 25 21 19 14 11 8 9 9 8 10 7
24 23 24 28 30 31 31 31 31 30 30 31 32 31 30 29 29 29 28 28 28 28 27 28 27 30 32 32 32 32 31 29 26 22 20 18 13 10 9 9 8 7 9

GFSGL_sfc_dewp_015.txt.gz
Dewpoint
37 35 36 35 36 34 33 32 31 31 31 30 32 32 32 32 32 31 31 28 32 32 32 31 30 31 29 28 26 25 24 22 19 20 21 23 22 23 22 25 25 22 24
36 36 36 36 35 34 34 32 32 30 31 30 31 32 33 33 32 32 32 31 31 32 32 30 29 27 25 24 23 21 20 20 20 18 19 19 20 21 22 21 20 21 23
34 35 37 37 36 34 33 32 32 31 30 31 31 32 33 32 31 32 32 30 30 30 30 29 28 26 21 21 19 18 19 18 20 19 17 19 19 20 19 21 22 23 21
34 34 37 38 36 35 33 32 32 31 30 30 32 34 35 31 30 30 30 29 28 27 27 26 25 21 18 17 17 17 17 19 19 18 17 17 18 19 20 20 21 25 25
33 31 34 37 36 33 33 32 32 33 30 31 32 33 34 33 31 29 27 26 25 25 25 24 22 23 25 20 17 17 19 19 19 18 17 17 17 18 19 23 23 22 21
31 32 34 35 34 34 33 33 33 34 32 32 31 32 32 32 32 32 27 23 23 23 24 23 21 23 25 25 23 23 21 19 19 19 18 17 18 19 25 22 19 17 15
33 33 34 33 33 34 34 33 32 33 32 31 31 31 30 32 32 30 26 20 21 23 24 21 20 20 21 19 20 20 20 21 21 20 18 16 16 18 20 18 18 19 19
31 31 33 34 34 34 34 32 30 30 30 30 31 31 31 30 32 30 26 20 22 25 22 21 20 20 20 19 19 18 19 18 17 17 16 15 16 19 21 20 20 20 21
31 32 35 34 33 34 32 32 32 31 30 29 30 30 31 30 31 28 22 23 25 24 24 23 22 18 22 19 19 19 18 18 18 20 20 22 23 24 23 25 25 24 20
32 35 34 33 33 30 32 32 32 30 29 30 28 29 30 28 30 27 23 25 24 25 23 22 23 20 20 20 21 19 18 17 18 17 18 20 21 22 25 24 23 23 23
36 35 35 36 34 32 31 31 30 30 30 30 28 28 28 27 27 27 26 24 24 25 24 23 23 22 22 23 23 20 19 20 20 19 19 19 19 22 22 23 24 25 25
35 35 36 35 32 30 30 30 30 30 30 30 28 28 28 28 28 29 28 25 25 21 22 23 23 26 24 24 24 24 23 23 15 16 18 17 19 19 20 23 24 25 26
37 37 34 33 32 30 30 29 29 29 28 30 29 28 28 29 27 30 29 28 26 22 23 23 25 26 25 25 26 25 23 19 15 10 14 16 17 19 22 23 23 23 25
33 33 33 33 32 31 30 30 29 28 27 28 28 28 27 28 26 26 26 27 26 24 22 23 23 23 21 21 21 23 23 21 19 15 13 14 17 18 19 21 20 21 23
31 32 32 31 32 31 31 30 29 29 29 27 26 28 30 26 27 28 26 24 23 23 18 17 18 18 20 21 20 21 20 20 17 13 12 12 16 18 18 19 20 22 20
31 31 30 30 30 31 30 30 31 31 30 31 31 28 27 30 31 32 31 29 28 28 25 17 13 12 15 19 19 18 16 17 17 16 10 13 13 13 17 18 20 21 20
30 29 28 29 28 28 29 28 27 29 32 32 32 32 31 29 31 30 30 30 29 27 16 16 12 14 16 19 20 19 15 16 16 15 12 9 10 14 14 16 18 17 18
30 30 29 29 29 30 29 28 25 25 26 27 30 32 31 31 31 31 30 29 23 25 21 20 19 19 20 21 21 20 16 13 13 13 8 5 4 8 9 13 15 12 14
29 28 29 30 30 30 29 29 30 29 28 27 28 26 28 32 31 30 30 29 25 23 23 22 22 22 22 22 22 20 17 13 11 6 6 7 5 9 8 10 12 11 13
31 29 29 30 30 30 31 31 31 30 28 27 27 28 27 26 29 30 30 29 27 25 25 24 24 24 24 24 24 23 18 15 12 9 8 4 3 4 5 6 7 6 13
29 30 30 31 32 31 32 32 32 30 29 28 28 28 27 31 31 32 30 29 29 28 27 27 26 26 25 24 23 22 22 22 20 16 14 10 0 5 7 7 8 11 14
27 26 25 25 26 27 28 31 31 31 31 32 32 32 26 28 29 30 32 31 29 29 30 30 29 27 27 26 26 26 24 23 21 19 15 12 11 7 6 7 7 7 8
21 21 23 24 25 25 25 26 28 29 31 32 31 31 27 28 29 29 30 32 33 32 31 31 31 30 29 29 29 28 27 25 24 23 20 15 12 9 4 7 8 6 4
22 22 20 20 21 21 25 28 28 28 29 31 32 31 31 30 29 31 32 32 32 32 32 32 32 32 32 32 32 32 30 28 26 24 22 18 15 11 6 5 5 6 4
17 16 15 15 17 18 19 20 23 26 28 30 29 26 30 29 31 30 29 29 27 28 30 31 32 31 32 31 32 31 31 30 28 26 23 19 15 12 10 7 4 6 4
14 11 10 12 13 14 14 16 16 16 18 18 20 21 22 22 22 23 23 20 20 21 20 21 21 21 23 26 28 29 32 31 28 26 24 20 16 12 9 9 5 3 6

GFSGL_sfc_dewp_018.txt.gz
Dewpoint
42 39 36 34 35 33 32 33 33 32 32 32 32 31 32 31 32 31 31 30 32 32 31 30 30 31 28 27 25 24 21 20 18 19 21 21 20 21 20 23 23 22 24
34 34 35 37 36 34 33 33 34 32 32 31 30 31 32 33 33 31 31 31 31 31 31 31 30 28 25 24 22 19 18 18 19 17 18 18 19 19 20 20 20 20 23
34 37 36 37 36 33 33 33 33 32 32 31 30 31 32 34 33 32 31 32 31 31 32 30 29 27 21 22 19 18 18 18 19 18 17 18 18 19 19 20 22 22 24
34 35 36 36 34 35 33 33 32 32 30 30 31 32 34 34 31 31 30 29 28 27 27 26 24 22 19 18 17 16 17 18 19 18 18 18 18 18 20 20 22 23 22
36 36 37 36 36 36 34 32 32 32 31 31 31 33 34 33 32 31 29 28 26 25 25 23 22 23 26 21 17 19 19 19 19 18 17 18 17 18 19 21 23 20 18
36 35 36 38 35 35 34 33 32 33 33 32 32 33 33 31 33 34 30 25 24 23 23 23 20 22 25 26 24 22 20 18 18 18 18 16 17 16 19 18 19 17 17
34 34 37 35 34 35 33 32 33 34 34 33 33 33 32 32 34 34 31 23 22 22 24 21 20 22 22 19 20 19 18 19 18 20 17 16 16 15 17 19 20 20 20
34 34 34 35 34 34 34 34 35 34 31 31 30 31 32 31 34 32 28 22 22 24 23 22 21 20 20 19 18 18 18 18 18 17 18 17 17 20 21 22 23 25 23
33 35 34 35 33 34 34 35 34 33 32 30 30 31 31 30 33 31 25 21 24 24 24 23 22 21 22 23 19 19 18 18 18 20 21 22 23 22 23 25 22 21 19
34 33 34 34 34 35 36 36 35 31 30 31 30 29 31 30 32 30 25 25 24 25 24 23 24 20 24 22 21 20 18 17 17 18 19 19 21 20 22 22 22 21 21
36 36 37 37 38 38 36 33 31 30 30 30 30 30 29 28 29 30 29 24 24 24 24 23 23 24 23 23 24 22 20 20 21 21 19 18 19 19 20 21 23 23 22
36 38 39 38 37 33 30 30 29 29 29 29 29 29 27 27 29 30 30 27 25 23 24 23 23 25 25 26 24 25 26 25 20 17 16 18 18 17 18 20 22 23 24
37 38 38 34 33 32 30 30 29 29 27 27 27 25 26 28 27 30 31 29 28 23 23 23 24 25 26 25 26 26 23 21 17 9 16 16 16 17 20 21 21 21 22
32 32 32 32 32 32 31 31 29 27 26 28 27 26 26 27 28 27 27 29 28 25 22 23 22 24 20 21 21 23 22 21 20 17 14 14 16 17 17 19 19 20 21
30 31 31 29 30 30 30 30 29 29 28 27 27 26 24 24 28 31 29 26 26 25 19 15 16 18 20 21 20 20 20 19 16 13 14 14 14 16 17 18 19 19 15
30 30 28 28 27 29 29 30 31 31 31 31 31 28 27 30 31 31 32 31 29 26 22 16 18 17 18 19 17 17 17 16 17 15 13 13 12 11 15 17 18 16 16
29 29 28 28 28 27 28 28 27 29 31 32 32 32 32 32 31 31 32 31 30 29 25 25 22 18 18 18 18 18 17 17 16 16 14 11 8 12 11 14 14 15 16
29 29 28 29 29 29 28 28 29 29 29 31 29 30 30 31 32 32 31 31 29 30 26 23 20 19 17 18 19 19 19 15 14 14 11 6 0 7 8 10 12 6 12
30 29 29 29 30 31 31 31 31 31 31 32 31 27 28 31 32 32 32 30 28 25 25 23 22 21 20 21 21 20 20 17 14 13 11 8 1 8 6 8 7 8 7
27 26 25 25 24 24 25 26 27 30 32 32 31 29 29 25 27 26 29 31 30 28 26 25 25 24 23 23 22 22 21 18 17 15 11 7 5 4 4 4 1 4 12
20 21 21 22 23 23 23 23 24 24 24 25 27 31 28 28 30 28 30 30 30 29 28 27 27 27 27 26 25 24 23 21 21 20 19 14 4 4 8 4 3 9 13
20 21 22 20 19 20 20 20 21 23 24 24 25 27 30 30 30 31 31 31 31 30 30 28 28 28 28 27 26 24 22 21 21 22 20 18 13 10 8 4 3 4 8
17 15 15 15 15 16 16 16 18 18 18 20 24 27 27 29 29 30 30 30 32 32 31 30 31 30 30 30 29 29 27 24 23 23 22 19 16 11 7 4 4 3 2
15 9 9 11 11 11 11 12 14 13 13 14 15 18 20 26 31 29 29 31 31 30 30 31 32 31 30 30 30 30 29 29 27 26 26 23 19 14 9 4 5 2 1
10 5 5 7 7 7 8 9 9 9 11 11 13 13 15 16 19 18 19 19 20 21 19 20 21 21 22 27 30 30 31 31 30 27 26 25 22 18 14 10 3 4 2
7 9 2 4 5 5 5 6 5 6 7 8 10 11 12 13 13 14 14 15 15 15 15 16 17 16 18 19 20 22 25 28 31 29 27 25 22 19 15 12 8 6 6

GFSGL_sfc_dewp_021.txt.gz
Dewpoint
41 41 42 37 36 34 33 33 33 34 34 33 33 33 32 32 33 31 31 29 31 30 32 31 31 30 30 27 25 24 21 20 18 17 20 20 19 19 19 21 23 22 23
40 40 38 39 35 33 32 35 35 32 34 33 33 32 33 33 33 32 31 31 31 31 31 30 30 29 27 25 23 20 19 18 18 17 18 18 18 18 19 20 20 20 22
43 41 38 35 33 34 37 35 33 33 33 32 31 32 32 33 33 33 32 32 31 31 31 31 30 29 26 23 21 19 18 17 19 19 18 18 19 19 18 20 20 21 23
41 39 38 36 35 36 33 33 33 33 32 31 32 32 33 32 33 33 31 31 30 30 31 30 28 26 22 20 19 17 17 17 19 19 17 17 18 19 20 19 17 19 19
39 38 36 39 37 35 35 33 34 34 32 31 32 33 33 32 31 32 30 30 28 27 26 24 24 24 25 21 18 17 18 19 18 17 16 17 17 17 15 15 16 18 19
38 36 38 38 38 36 35 35 35 34 33 32 34 34 33 31 32 35 32 29 27 25 24 25 23 25 27 29 25 25 21 18 17 17 17 16 16 16 16 17 18 18 17
37 37 39 40 36 35 34 34 35 35 37 37 34 32 32 33 34 35 35 27 25 24 24 24 21 19 24 24 26 23 21 21 20 18 16 16 17 16 18 19 20 21 21
37 37 37 36 34 34 34 35 36 37 36 35 33 31 31 31 33 35 33 25 24 23 24 24 21 21 22 20 18 18 17 18 17 16 17 18 18 20 20 21 24 24 22
35 35 35 35 35 36 36 37 38 37 36 33 31 31 31 30 32 34 29 23 22 22 24 23 22 21 23 26 21 19 18 19 18 20 21 22 22 23 22 20 19 19 17
35 34 35 36 37 38 38 38 38 35 31 31 30 30 31 30 31 33 27 24 24 25 24 24 28 24 25 26 22 20 19 20 18 17 19 20 21 21 22 20 21 19 18
37 38 39 39 39 39 38 38 35 31 30 29 29 29 30 29 29 33 31 25 25 24 24 24 24 26 26 26 25 22 21 21 21 21 21 20 19 20 19 19 20 21 19
39 39 40 40 39 38 36 32 30 29 28 28 27 28 27 28 29 31 32 28 26 24 24 24 24 26 26 25 25 26 26 24 18 16 17 18 18 18 17 18 20 21 22
38 38 38 37 35 33 31 30 30 29 27 27 27 27 26 28 26 30 31 31 29 25 24 25 26 26 26 26 27 28 24 20 15 10 16 17 17 18 18 20 21 20 21
31 31 31 31 31 31 31 31 30 27 26 27 27 28 27 26 26 27 28 29 30 28 24 26 24 24 21 22 22 25 22 20 19 16 14 13 15 16 15 19 18 19 19
30 30 30 28 29 30 29 30 30 29 29 29 28 28 27 26 26 29 29 28 29 29 28 24 23 21 21 22 21 21 20 18 16 12 11 12 14 16 15 17 18 17 11
30 29 28 28 28 28 28 28 31 32 31 31 31 30 30 30 30 31 32 32 31 30 26 24 23 22 20 20 19 20 17 16 17 16 11 13 14 12 13 16 17 13 12
29 29 28 28 28 28 28 28 27 29 31 31 32 32 32 31 31 32 32 32 32 31 26 24 23 24 22 22 21 19 19 17 17 16 15 13 14 12 10 13 13 13 12
27 27 26 26 26 26 25 26 27 26 27 28 30 31 31 32 32 32 32 33 31 30 28 25 26 26 24 22 21 20 20 18 14 14 11 11 11 12 7 10 11 4 9
23 23 23 22 22 22 23 22 22 22 22 22 23 24 28 31 32 31 31 31 30 29 28 28 27 26 24 23 22 21 20 18 12 8 13 13 9 12 8 10 7 7 6
20 20 19 21 21 19 19 20 19 19 19 20 22 22 24 24 27 28 28 28 31 30 29 27 27 26 26 24 23 22 21 20 17 13 14 13 14 11 10 8 1 1 10
19 18 18 18 17 17 17 16 17 17 18 16 16 17 17 22 25 26 27 28 30 30 30 29 27 27 26 26 25 24 23 22 21 19 18 16 13 13 13 9 5 7 11
16 12 12 13 13 13 13 13 13 14 13 13 13 14 15 16 17 19 28 31 31 30 30 30 29 28 28 26 26 26 24 23 23 22 21 20 17 16 16 10 3 1 7
14 6 7 9 9 8 8 8 10 9 9 10 10 11 12 13 13 14 15 17 30 32 31 31 31 30 28 29 29 28 26 24 24 24 23 21 18 18 15 12 8 1 2
10 1 5 4 5 5 3 4 5 5 5 6 7 8 9 11 12 13 13 14 15 17 19 20 21 22 24 30 30 30 29 28 28 26 26 24 21 19 16 12 9 5 1
1 -2 -4 -0 -3 -0 -0 2 1 2 2 3 4 5 7 9 9 9 10 10 12 13 15 16 17 18 19 21 22 25 29 29 29 27 26 25 22 19 18 15 13 7 1
0 -1 -3 -8 -6 -5 -4 -2 -4 -2 -1 -1 1 3 4 5 5 6 8 7 8 9 11 13 15 14 15 17 19 21 21 24 26 28 27 25 23 21 18 17 13 12 8

GFSGL_sfc_dewp_027.txt.gz
Dewpoint
57 56 55 53 52 50 47 45 42 39 39 38 37 37 38 37 37 37 37 38 39 38 36 35 35 35 33 33 33 32 30 28 23 20 20 22 22 21 20 18 17 18 19
52 54 53 52 50 48 46 44 41 39 38 36 37 35 34 34 35 35 35 33 35 34 33 34 34 31 35 34 32 31 28 27 24 20 20 19 20 21 19 17 14 15 18
51 50 49 49 48 47 46 43 41 38 36 36 35 34 34 34 34 35 35 35 34 34 34 34 33 34 33 32 31 29 27 23 23 21 19 18 19 18 16 15 17 18 14
47 48 48 47 46 45 43 40 38 38 36 35 35 33 35 34 34 38 37 35 35 34 35 34 33 33 33 32 30 29 26 23 21 19 18 17 17 16 15 13 14 15 15
46 46 46 46 44 41 39 38 37 36 35 35 36 37 39 39 40 40 37 35 34 34 35 34 34 34 34 33 27 27 24 22 20 19 17 16 15 14 11 15 15 15 16
45 44 44 43 40 39 38 38 37 36 35 33 35 40 41 40 38 37 35 34 33 33 33 33 33 34 34 33 31 28 25 23 21 20 17 16 15 13 15 17 17 16 13
43 43 42 40 39 38 37 36 35 35 37 39 41 41 40 41 36 35 35 33 33 33 33 32 30 26 30 27 30 31 28 25 25 22 20 18 19 14 16 17 17 16 15
39 39 39 39 37 36 36 37 39 40 41 41 40 40 40 36 34 35 33 33 33 32 33 32 31 29 26 27 24 24 24 24 24 21 20 19 18 16 18 19 20 19 16
37 36 36 37 36 38 39 40 41 40 40 40 39 39 36 37 37 34 32 32 32 31 31 30 30 28 29 28 24 24 22 21 22 23 23 24 22 23 24 23 21 18 19
37 37 38 38 39 39 40 40 41 40 39 38 37 37 37 38 33 33 33 33 33 32 31 29 30 28 30 29 28 26 24 20 19 19 20 21 22 22 24 24 20 20 18
39 39 39 39 40 40 40 39 38 37 37 36 34 34 33 33 33 33 33 32 33 32 30 29 28 30 29 29 29 29 29 24 22 21 19 17 18 20 21 21 20 19 19
39 38 37 37 36 35 35 34 33 33 33 33 34 33 33 33 31 32 32 32 32 33 31 31 31 30 30 31 30 29 28 26 26 26 24 22 22 22 19 20 20 20 19
31 31 31 31 30 30 31 31 30 31 31 31 31 32 31 32 33 32 31 31 31 33 34 33 30 30 30 30 30 29 28 28 28 27 25 23 23 21 21 22 22 20 17
31 30 29 28 28 27 26 26 26 27 28 28 28 28 29 30 31 32 33 34 32 31 31 33 31 29 29 30 28 30 29 30 28 27 26 24 24 24 24 24 23 21 20
26 24 23 24 21 21 20 21 22 23 26 25 25 25 26 27 26 25 26 27 29 31 33 33 33 31 30 29 29 30 30 30 29 29 29 26 24 23 24 24 23 20 20
21 20 22 22 21 19 18 17 21 22 22 22 22 23 23 23 22 22 23 24 25 27 28 28 32 32 31 30 29 29 30 29 30 29 29 27 24 24 23 23 22 21 20
19 19 20 20 19 17 17 17 17 18 19 19 19 19 19 19 20 21 21 20 23 27 28 29 29 32 32 30 29 30 30 30 30 29 28 27 26 24 24 23 23 22 21
18 20 19 18 17 17 17 17 17 17 17 17 16 16 16 17 17 18 19 18 18 19 21 25 29 30 31 30 29 29 30 29 28 28 28 29 27 25 24 23 23 23 21
13 13 17 18 17 16 15 15 15 14 14 13 13 13 13 14 15 15 15 16 15 15 15 16 19 22 29 31 32 31 30 31 31 27 28 27 27 24 24 24 24 21 20
13 14 14 14 14 13 12 12 11 12 11 11 10 10 9 10 12 13 14 14 14 13 14 14 16 18 21 32 32 32 31 30 29 27 28 28 27 25 24 24 25 24 21
11 11 11 11 10 10 9 10 9 9 8 8 9 10 6 8 10 10 11 11 12 12 12 13 16 18 19 28 32 31 30 29 28 28 26 27 26 24 23 25 26 24 22
9 8 8 8 8 8 6 6 7 6 5 6 6 6 4 8 7 8 8 8 10 11 11 13 13 14 18 18 23 31 29 28 27 27 26 26 25 25 24 24 25 25 23
8 7 6 5 5 3 4 3 4 4 4 5 4 3 5 6 5 5 6 7 7 9 10 10 12 13 14 16 19 23 30 29 29 30 28 26 25 25 24 24 24 24 23
7 7 4 4 4 2 1 1 2 -0 -0 2 2 2 3 3 3 4 4 5 4 6 8 9 10 11 11 13 17 20 23 28 32 30 29 27 25 25 24 24 24 24 23
6 6 5 3 1 -0 -1 -1 -1 -1 -0 -0 1 0 -0 1 1 2 3 2 2 3 3 5 9 9 9 10 13 16 17 22 29 30 30 29 26 26 25 24 24 23 23
5 3 3 3 1 -0 -1 -2 -3 -3 -3 -2 -1 -1 -1 -2 -1 -0 -0 0 -0 -1 1 3 5 6 8 10 13 14 15 18 21 26 30 29 28 26 26 25 24 24 21

GFSGL_sfc_dewp_030.txt.gz
Dewpoint
58 59 60 59 57 55 53 52 51 50 46 43 41 44 42 44 42 41 38 35 39 38 38 35 34 32 30 30 30 29 28 28 25 24 22 23 25 26 23 23 22 19 18
57 58 59 58 57 56 55 53 52 49 44 41 42 40 38 39 37 36 34 34 36 37 35 35 32 27 33 33 31 31 30 29 26 25 25 22 24 24 23 23 16 11 16
56 55 56 56 55 54 52 51 48 43 43 43 39 36 36 36 34 36 36 38 41 37 34 33 32 33 33 33 32 31 29 25 27 25 23 23 22 20 20 19 17 18 13
53 54 54 54 53 53 52 49 48 45 42 39 38 37 36 34 32 36 40 42 41 36 35 35 34 33 33 34 32 32 29 28 28 25 22 21 19 18 17 15 12 15 14
51 50 51 51 51 50 49 48 46 44 40 37 36 37 36 36 40 42 41 40 39 36 36 34 34 35 35 35 30 31 31 28 27 24 21 20 16 15 14 14 12 15 17
48 48 47 47 46 45 43 41 40 38 36 36 36 38 41 41 39 39 39 40 37 35 34 34 33 36 36 36 35 34 31 30 28 25 22 19 17 17 17 15 15 16 14
46 45 44 44 42 42 40 37 36 35 37 37 39 39 40 40 39 38 36 36 38 38 35 33 31 27 31 33 34 33 30 29 28 26 24 20 20 19 18 15 16 16 16
41 41 42 41 40 38 37 37 37 39 40 41 41 39 38 38 37 36 36 38 39 34 32 31 31 31 30 31 32 31 29 29 27 21 24 21 20 21 19 16 19 20 19
38 38 38 39 39 39 38 39 41 40 40 40 38 38 39 41 36 37 37 36 32 32 30 30 30 30 31 34 31 30 29 29 28 30 29 28 25 23 21 20 22 20 23
39 38 38 39 39 39 40 40 40 40 40 40 39 38 37 38 37 37 34 34 33 32 32 30 31 31 32 32 31 31 30 28 26 23 22 24 25 25 26 24 20 22 21
38 38 38 39 39 39 40 39 38 37 37 38 36 36 34 34 34 34 34 33 34 34 32 31 32 32 32 32 31 32 33 30 27 23 21 20 20 18 19 22 22 21 21
38 37 37 36 34 33 33 32 30 30 32 32 35 33 34 34 33 33 33 33 32 34 33 34 35 33 33 32 31 30 31 30 32 29 26 23 22 20 19 19 20 21 21
31 30 30 29 29 29 30 30 29 29 30 31 29 30 28 29 29 31 28 27 27 29 30 33 32 32 32 31 31 30 29 32 33 32 30 26 25 23 23 23 22 21 21
29 28 28 26 25 24 22 20 21 23 24 22 22 23 23 23 25 25 23 24 23 25 26 29 28 27 32 34 34 32 32 32 32 32 30 30 29 29 25 24 23 23 23
25 23 23 23 19 17 15 18 19 21 22 22 22 21 25 25 23 22 22 22 24 23 25 29 28 26 25 30 32 34 34 33 33 34 32 32 31 30 29 26 24 22 23
20 19 22 21 20 15 14 16 22 21 20 20 20 21 22 20 19 19 20 20 20 20 22 26 30 31 30 26 29 32 35 34 33 33 33 32 31 30 28 26 23 23 22
16 17 19 19 17 16 17 17 16 20 17 16 16 16 17 16 17 18 18 18 19 18 21 21 23 26 27 24 29 30 32 33 34 33 33 33 32 30 30 28 25 23 22
17 19 17 17 16 18 17 18 18 18 19 18 15 13 14 14 15 16 16 17 17 17 17 17 19 20 20 21 23 25 33 32 33 32 33 32 32 31 30 28 25 25 22
12 14 18 20 19 17 17 17 16 16 16 15 15 13 13 12 13 14 14 17 15 14 14 14 16 16 18 19 23 25 29 34 34 33 32 31 32 30 29 28 25 24 23
14 15 15 16 17 15 14 14 13 14 14 14 13 13 11 10 16 16 16 16 15 13 13 13 13 15 17 18 22 25 23 33 32 32 32 31 32 31 30 29 28 26 22
13 14 13 15 14 13 14 14 12 13 13 12 13 14 7 9 13 13 12 14 13 12 12 12 14 16 17 18 17 20 22 26 33 33 31 30 32 30 30 29 28 24 22
11 11 12 12 12 14 10 10 12 11 10 10 11 11 7 12 11 11 10 12 12 12 11 12 12 13 14 16 16 18 20 21 32 33 32 29 30 30 30 29 28 27 24
11 13 12 9 11 8 12 10 11 11 10 10 10 9 10 11 10 9 10 11 11 10 11 10 11 11 13 15 16 16 18 19 22 27 32 31 29 30 30 29 27 27 25
12 14 9 10 11 8 11 10 10 6 7 9 10 10 9 9 10 9 9 10 9 9 9 9 8 10 12 13 14 16 17 18 20 23 32 32 30 28 30 29 28 27 26
13 13 12 10 10 10 9 8 8 8 8 8 9 9 8 8 7 8 8 7 6 7 6 7 9 9 10 10 13 14 15 15 19 22 29 32 31 29 29 29 28 27 26
11 9 9 10 9 8 7 7 7 7 6 7 7 7 7 6 6 6 5 5 4 3 5 7 7 8 9 11 14 14 14 16 17 19 23 30 30 29 29 30 28 28 26

GFSGL_sfc_dewp_033.txt.gz
Dewpoint
57 59 61 61 61 60 59 56 54 52 49 47 47 47 45 45 44 44 46 43 40 40 42 41 40 38 34 31 30 30 28 28 27 27 25 29 28 27 25 27 26 24 24
57 58 60 61 59 58 57 55 55 54 52 50 47 44 44 43 43 44 42 38 38 38 43 42 40 33 34 33 32 33 30 32 29 29 29 27 28 28 29 26 20 18 19
55 56 58 59 58 57 56 57 56 53 50 46 43 43 43 43 42 43 40 36 41 42 42 41 37 36 35 34 34 33 32 30 31 30 28 28 26 26 25 24 22 21 15
55 55 56 57 56 56 55 53 51 47 44 43 43 42 42 40 38 36 39 41 42 42 43 41 36 35 36 36 35 36 34 34 34 31 29 28 25 26 22 19 20 20 14
53 53 54 54 53 52 52 51 50 48 45 43 41 40 40 38 37 39 42 42 41 41 42 38 38 38 37 37 33 36 36 34 33 31 29 27 24 24 21 18 16 17 17
50 49 50 50 49 49 47 46 45 44 42 39 38 38 38 38 40 40 41 40 40 40 39 38 38 37 37 35 35 35 35 35 34 32 30 28 26 24 22 21 18 16 13
46 46 46 46 45 44 42 40 39 39 38 38 39 40 40 42 39 39 37 38 38 38 39 40 38 34 32 31 31 34 34 34 34 33 33 32 29 26 24 22 20 17 16
43 43 43 43 41 40 39 38 38 38 38 38 38 37 38 38 38 38 36 38 39 39 40 37 33 33 31 31 31 32 33 34 35 30 29 32 31 27 24 20 21 18 20
40 40 40 41 40 39 39 40 40 40 39 39 38 37 38 39 38 36 37 39 37 34 32 31 30 30 32 34 32 33 32 32 32 33 32 31 26 25 22 23 21 19 25
40 39 39 39 39 40 40 40 41 40 40 40 40 40 38 40 38 37 36 34 33 33 32 31 32 32 32 32 34 33 33 32 32 33 31 29 28 27 27 23 20 22 22
38 38 39 40 40 40 40 40 39 39 39 40 37 36 33 33 33 34 33 33 32 30 31 32 34 33 34 34 34 34 33 33 33 33 34 30 26 25 25 25 24 22 24
38 38 38 38 36 35 34 32 29 30 32 33 34 33 34 34 32 30 29 25 25 26 25 28 29 29 29 29 31 33 34 31 33 35 36 33 28 26 25 24 26 26 25
33 31 29 27 27 27 28 28 27 27 29 29 26 27 25 27 26 29 26 25 24 24 25 26 26 26 26 26 27 28 32 34 34 33 33 34 30 28 27 27 27 25 22
30 28 27 25 24 23 20 18 19 25 24 22 22 22 22 24 24 24 21 22 22 22 23 24 24 25 26 27 28 29 30 31 33 33 33 33 33 31 30 30 28 27 25
25 24 24 22 19 17 17 18 21 22 21 21 22 21 25 24 22 20 19 20 21 20 23 24 25 24 24 25 26 27 29 29 30 33 33 33 34 32 33 31 29 27 27
22 22 25 24 20 15 16 22 22 21 20 20 19 20 21 19 18 18 18 18 18 20 19 21 24 24 23 21 22 24 26 27 29 31 33 33 33 33 32 31 30 29 27
21 20 20 21 18 17 18 18 18 22 20 20 18 15 14 15 16 16 17 17 18 17 18 18 20 21 21 20 20 21 22 24 24 30 33 33 33 33 31 31 30 29 28
18 23 18 18 17 19 18 19 18 19 20 20 19 13 13 13 15 15 16 16 16 15 15 15 17 17 17 17 18 19 21 22 24 24 33 32 33 32 31 31 30 29 27
16 16 20 22 20 18 18 18 17 17 17 16 16 17 15 14 14 16 15 17 16 14 13 12 14 15 16 17 19 20 21 21 22 25 27 33 33 32 31 31 29 29 28
15 17 18 18 17 16 16 15 14 15 15 15 15 15 14 12 15 18 18 17 16 14 13 12 12 13 16 17 19 19 20 19 20 23 22 32 33 33 31 31 30 29 28
15 15 15 15 15 14 15 15 13 14 14 14 15 16 9 10 13 15 14 15 14 13 13 12 13 15 15 16 16 17 16 18 19 20 19 33 32 31 31 32 31 29 27
13 13 13 14 13 15 13 12 13 13 13 12 13 14 10 13 13 13 12 13 14 13 12 12 13 12 13 14 15 16 15 16 18 18 18 20 31 31 31 31 31 30 27
13 14 13 11 13 10 14 13 13 14 13 13 12 12 13 13 13 11 12 13 12 12 12 11 13 12 12 15 15 15 15 15 17 16 16 20 22 31 32 31 30 29 27
13 15 12 11 14 11 14 13 13 10 11 12 13 13 13 12 12 11 11 12 11 11 11 11 9 10 13 13 14 15 16 18 16 16 18 18 20 31 31 31 30 29 28
15 15 13 13 13 13 13 13 12 12 12 12 12 11 10 10 9 10 10 9 8 9 7 8 11 10 9 10 12 14 15 14 16 17 17 19 21 31 30 30 30 29 29
13 12 12 13 12 12 11 11 11 11 10 10 9 9 9 8 7 8 7 6 6 4 5 7 8 7 9 11 11 13 13 16 16 17 18 19 24 28 30 29 30 29 29

GFSGL_sfc_dewp_036.txt.gz
Dewpoint
56 58 60 60 59 58 60 60 56 54 54 51 50 48 46 46 46 45 45 46 45 44 42 44 43 43 42 39 36 35 33 31 29 29 30 29 30 30 26 30 31 29 28
58 60 60 60 61 60 59 57 56 55 53 50 48 46 46 46 45 44 45 44 43 42 44 42 42 41 41 39 37 33 33 33 31 29 30 30 30 30 29 28 27 21 23
58 59 60 60 59 58 57 56 55 54 53 51 48 46 45 44 44 43 44 44 42 42 42 42 41 42 40 38 36 35 34 32 33 33 31 31 31 30 27 28 27 26 23
56 59 59 58 58 57 56 54 49 46 44 44 45 44 44 44 43 43 44 43 43 43 43 41 41 42 38 37 36 35 34 34 34 33 33 32 31 30 28 25 23 25 22
56 56 56 57 57 56 55 52 49 46 44 43 43 43 43 42 42 41 42 42 41 40 40 41 41 40 39 38 35 34 35 35 35 34 33 32 31 28 24 25 22 21 22
54 53 53 54 52 52 51 50 49 47 45 43 42 41 40 39 37 41 41 40 39 40 40 40 40 39 39 38 37 36 34 33 32 32 32 32 31 31 30 27 23 20 18
49 49 49 48 47 46 44 43 43 42 41 39 40 40 41 41 40 39 38 39 38 37 38 39 39 39 38 37 35 34 34 34 34 32 31 32 31 32 31 26 22 22 20
45 45 46 45 43 42 40 39 39 39 39 39 39 39 39 39 39 38 36 37 38 39 39 39 39 38 34 33 32 31 30 31 31 32 33 33 33 33 34 29 26 25 21
42 42 42 42 41 40 39 40 40 40 40 40 39 39 38 39 38 37 37 38 38 37 34 33 33 32 34 35 32 32 32 32 31 33 34 34 34 32 33 31 28 22 19
41 40 41 40 40 41 42 41 41 41 39 39 40 40 38 40 37 36 34 33 31 30 30 29 30 31 31 31 28 27 26 28 32 33 34 32 31 29 30 27 26 23 22
40 40 40 40 41 40 40 41 40 40 40 38 38 38 37 34 31 29 28 27 26 25 25 25 26 28 28 26 27 23 23 24 26 29 31 33 33 29 26 25 25 24 22
40 40 40 40 39 39 39 38 37 35 35 34 33 33 34 31 29 28 25 24 24 23 22 23 24 25 24 24 25 27 28 27 26 28 28 30 32 33 31 27 25 24 24
38 37 35 33 31 31 32 30 30 31 31 29 29 30 29 29 28 25 23 21 22 22 22 23 22 22 24 24 27 27 27 27 28 27 27 27 31 34 34 30 28 26 25
32 30 30 28 27 26 21 23 28 27 28 27 28 26 26 26 23 22 21 20 21 21 21 20 21 22 23 22 21 22 21 23 24 27 28 30 31 33 33 33 31 28 26
29 26 26 27 24 22 21 23 24 20 23 25 24 24 23 22 20 19 18 19 19 19 18 19 20 21 19 19 18 18 19 19 20 22 22 23 25 32 33 33 32 29 27
26 26 29 28 25 21 22 21 24 22 21 21 20 20 22 19 17 17 17 18 18 19 19 18 17 17 17 17 16 16 17 17 18 20 19 22 23 26 32 32 32 30 28
24 24 25 27 26 24 24 25 22 21 21 21 19 17 16 14 15 16 17 17 18 19 18 16 14 15 15 15 15 15 15 16 19 18 17 20 22 29 30 31 30 29 28
21 26 24 23 23 25 23 24 24 24 24 23 20 18 17 14 15 15 17 16 17 16 16 14 13 14 14 13 14 13 14 15 17 15 16 20 21 22 30 30 29 28 28
21 22 25 24 22 22 23 23 22 22 22 21 21 20 17 15 14 16 17 18 15 15 14 13 12 13 13 13 13 13 14 14 14 15 16 17 18 17 29 30 29 29 27
21 22 23 22 21 21 21 20 18 19 20 20 19 19 17 14 12 13 16 14 13 14 13 12 12 12 12 12 12 12 12 13 12 13 15 16 15 16 22 30 30 28 27
23 19 19 20 19 18 18 18 17 18 18 17 18 15 10 12 12 15 14 13 13 12 11 13 11 11 10 11 10 10 11 10 11 12 14 14 14 15 19 30 30 29 28
17 16 16 17 15 19 15 14 17 16 16 15 16 15 13 14 15 14 12 12 10 12 13 10 10 10 10 8 9 10 9 9 9 13 12 12 13 15 17 27 30 29 28
18 18 15 13 15 14 17 16 16 16 15 14 14 14 15 14 13 12 11 8 10 10 9 9 9 7 6 9 11 10 10 9 13 12 11 12 13 14 16 17 29 29 28
17 17 14 15 17 13 15 15 14 13 14 14 14 13 13 13 10 8 7 7 5 4 6 8 4 4 9 8 8 9 11 14 12 12 14 14 13 14 16 17 28 29 28
17 17 16 15 15 15 15 14 14 13 13 12 12 12 10 10 10 8 6 6 3 5 3 1 5 6 5 5 8 9 12 11 12 14 14 15 15 15 17 22 29 28 28
15 15 14 15 14 14 13 12 11 11 10 10 9 7 8 8 6 4 6 2 5 1 -1 3 2 2 4 8 8 12 10 11 12 12 16 16 15 16 17 20 27 28 28

GFSGL_sfc_dewp_039.txt.gz
Dewpoint
56 55 56 58 59 58 59 59 57 54 54 53 54 52 47 47 47 46 45 47 45 45 45 44 43 44 42 42 41 38 34 33 30 29 31 30 28 29 28 32 30 32 31
55 57 58 59 59 58 58 57 55 53 53 54 52 50 47 47 46 45 45 45 44 44 44 44 42 42 42 42 41 38 35 33 31 29 30 30 29 30 30 29 29 27 28
55 56 60 60 60 58 57 57 54 54 53 51 49 47 46 46 45 45 44 44 45 44 43 43 42 40 40 41 39 37 36 34 34 32 31 32 31 31 30 29 28 28 24
60 59 57 57 56 56 55 54 52 51 50 50 48 46 46 45 44 44 44 44 43 43 43 41 40 40 41 41 37 36 35 35 35 35 35 35 34 33 33 30 30 29 27
58 57 56 56 56 54 52 50 47 47 46 45 45 45 44 44 43 44 44 43 42 42 41 40 41 41 40 39 38 37 37 35 35 35 36 36 35 33 31 32 30 31 25
55 55 55 55 54 54 51 49 47 45 44 43 43 43 43 42 40 40 42 41 40 39 40 39 39 40 40 38 38 38 37 36 34 33 33 32 31 31 32 31 30 28 25
51 50 49 48 47 46 47 47 45 43 41 40 40 39 39 38 38 39 38 39 38 36 35 36 38 38 38 37 34 33 33 33 34 32 31 31 31 31 33 32 29 29 27
46 46 46 44 43 41 40 39 38 39 38 38 39 40 39 39 38 37 36 36 36 37 38 38 36 34 33 31 29 28 28 29 29 31 32 32 32 33 33 33 33 32 28
45 44 43 42 39 38 38 37 38 38 38 37 38 38 38 38 38 36 36 36 38 33 31 29 29 28 31 30 26 24 22 19 19 24 26 29 31 30 32 33 33 30 29
42 42 41 40 39 40 40 40 39 39 39 40 39 40 38 38 36 35 33 29 26 25 25 26 28 27 29 27 23 22 22 21 22 24 25 26 27 27 30 31 32 31 30
41 41 41 40 40 40 40 39 39 38 37 35 36 36 33 29 28 28 26 23 24 25 24 23 23 25 24 23 24 24 24 26 26 27 27 26 27 26 28 29 29 30 31
40 40 40 40 39 39 39 38 39 38 35 32 31 30 28 27 26 25 24 23 22 23 22 23 23 22 23 25 25 24 23 23 23 23 23 26 27 27 27 29 29 28 31
39 39 38 38 38 38 37 33 32 32 28 27 28 29 26 26 23 22 21 20 21 21 22 20 20 22 23 24 22 20 21 20 20 18 19 21 21 22 24 30 33 32 29
36 34 31 29 26 23 27 26 25 24 25 25 24 24 24 21 20 19 19 20 21 20 20 19 20 22 22 21 20 19 19 19 17 17 17 18 19 20 22 25 29 31 29
29 26 27 25 22 22 24 22 19 22 24 22 23 23 21 19 19 18 18 19 18 20 16 16 18 20 18 17 17 17 17 16 15 16 17 17 16 17 19 22 24 31 27
26 26 26 25 23 20 21 21 23 22 22 22 23 22 22 20 17 17 17 18 18 20 19 14 10 9 14 14 14 14 14 13 14 15 16 14 15 16 19 19 22 30 30
25 24 25 23 23 24 23 21 20 22 22 21 20 19 20 16 16 16 16 17 17 18 15 15 8 6 10 13 13 13 11 12 14 14 13 13 14 16 15 18 20 28 29
25 26 24 25 25 24 23 24 24 23 22 22 20 18 18 15 15 15 17 17 17 17 16 14 10 10 12 12 11 11 11 11 11 11 11 12 13 15 14 14 15 25 28
24 24 23 22 22 23 24 24 23 23 22 21 22 20 17 15 13 13 17 15 13 14 14 13 10 11 11 11 6 6 7 9 9 8 9 10 12 12 11 12 15 19 27
24 25 25 25 24 23 23 21 20 20 20 20 20 18 16 13 9 8 11 8 9 12 11 12 12 10 6 7 4 3 6 8 7 8 8 9 11 10 11 12 13 13 27
22 23 24 23 21 20 20 19 19 19 18 18 17 14 12 13 13 13 15 9 10 10 5 9 5 -0 -0 6 6 4 7 6 6 7 8 10 8 10 11 13 14 15 28
22 21 20 19 20 19 16 15 18 17 17 16 15 14 14 12 14 14 12 6 4 6 8 4 1 4 6 3 4 7 5 5 5 7 9 7 9 11 13 13 14 15 24
20 20 18 18 17 16 16 17 15 15 14 14 14 14 14 11 11 11 8 -1 4 1 -1 -2 -4 -2 1 1 6 5 6 6 8 10 9 8 9 11 12 13 14 15 18
19 18 16 16 15 14 14 12 12 13 14 13 10 10 10 7 2 0 2 0 -1 -9 -11 -10 -6 -3 4 2 2 5 8 9 11 10 10 10 10 11 13 14 14 16 18
17 16 15 15 13 11 10 11 10 9 9 7 6 5 5 1 -1 -4 -8 -5 -9 -9 -9 -9 -10 -3 -3 -2 0 5 8 9 8 9 10 9 11 13 13 14 15 17 20
15 14 13 12 10 8 5 3 2 -0 -1 -0 -4 -8 -8 -3 -4 -10 -8 -9 -6 -9 -10 -10 -7 -5 -4 2 4 8 5 6 7 8 8 11 12 12 13 14 16 17 22

GFSGL_sfc_dewp_042.txt.gz
Dewpoint
55 55 54 55 56 57 57 57 57 57 56 54 53 51 51 50 49 48 47 47 47 46 46 46 45 44 44 43 43 43 40 36 34 32 31 31 29 29 29 37 36 35 35
55 56 57 58 57 58 58 58 57 57 57 55 53 53 50 49 48 47 46 47 46 45 45 44 43 43 42 42 42 41 40 38 35 34 31 30 29 30 30 29 33 29 30
56 58 59 59 59 59 59 58 58 58 57 54 53 52 50 49 47 46 46 45 45 44 44 43 43 42 40 41 41 40 38 36 36 32 34 32 32 32 32 33 31 31 30
55 56 56 58 59 59 59 57 57 54 53 53 51 50 48 47 46 45 45 44 44 44 43 42 42 40 40 40 39 38 37 36 36 35 35 35 35 36 34 35 35 35 31
55 55 54 57 58 58 55 54 53 52 51 50 49 48 46 45 45 44 44 44 43 43 43 41 40 41 40 40 39 38 38 38 37 36 35 34 35 34 34 34 33 33 33
58 58 57 56 55 54 52 50 48 48 47 46 45 45 44 44 40 41 43 42 42 41 40 40 39 39 40 37 34 34 33 30 29 29 29 29 30 30 32 32 32 32 31
56 56 55 54 53 51 50 48 47 44 43 43 43 44 42 43 39 40 40 41 39 39 37 37 38 36 34 31 31 30 29 31 31 29 27 26 28 28 31 32 33 33 32
51 50 50 49 49 48 46 44 41 41 40 39 38 39 39 39 38 38 36 36 35 37 37 34 31 29 31 28 26 24 23 23 20 18 21 22 23 24 26 26 26 26 28
48 47 46 45 44 42 40 39 38 38 38 38 38 38 37 37 37 36 35 35 33 30 28 28 27 26 27 27 24 22 21 22 24 26 27 29 30 30 30 28 26 26 24
43 42 41 40 39 38 38 37 37 37 37 38 37 37 36 35 36 36 35 32 27 25 24 23 25 25 25 23 22 23 23 23 24 23 23 26 28 27 29 28 27 27 27
41 40 40 40 39 38 38 38 38 37 36 35 33 32 30 30 29 29 27 24 24 23 22 22 23 22 21 23 25 25 24 21 22 21 20 19 21 23 23 22 24 26 26
40 40 40 40 39 39 38 38 38 36 33 31 29 27 26 26 26 26 25 23 22 22 21 22 22 21 23 24 24 20 20 22 20 19 17 17 18 18 18 18 20 23 27
40 39 39 39 39 38 38 36 35 33 31 29 27 25 23 22 22 22 21 21 20 20 21 20 20 21 23 23 19 18 20 20 18 15 16 15 17 17 17 18 20 21 24
38 38 36 29 29 27 26 29 28 27 27 29 27 24 22 20 20 20 19 21 21 20 20 20 20 22 22 20 20 18 18 17 15 15 15 15 17 15 15 17 18 20 20
30 27 25 26 25 20 19 21 23 25 25 25 25 24 20 19 19 19 19 20 20 21 18 17 19 17 16 15 16 16 16 15 14 14 13 14 13 13 13 15 15 16 17
25 24 24 23 23 18 18 21 25 24 25 25 24 22 22 20 18 17 17 17 18 18 19 16 12 10 13 14 13 13 13 12 12 12 12 11 11 11 12 13 14 15 17
24 24 24 24 22 22 22 22 21 23 23 22 22 22 21 19 17 17 16 16 16 16 16 14 9 8 11 12 12 11 10 10 11 10 10 8 9 10 11 11 12 14 14
25 26 24 24 23 24 25 23 23 23 22 23 22 19 19 18 17 16 18 17 17 16 16 14 12 13 11 10 10 9 9 7 7 8 6 6 8 8 9 8 10 12 13
21 22 24 24 24 25 25 25 25 24 24 23 22 20 19 16 13 15 17 16 15 14 12 11 13 11 10 10 4 1 -7 1 5 -3 4 6 5 8 7 8 9 10 13
25 25 25 24 24 24 24 23 22 22 21 21 21 18 17 14 13 12 14 12 13 12 11 11 10 9 6 6 -3 -10 -6 3 3 3 4 4 6 7 6 8 9 10 11
24 23 23 23 22 22 21 20 20 20 19 19 17 15 14 14 14 15 15 12 11 11 9 9 6 2 -1 -4 2 -4 2 1 2 4 4 5 7 5 7 9 10 11 12
22 21 21 20 19 18 18 19 18 18 17 15 15 15 15 14 15 14 13 10 8 10 9 4 2 1 -0 -0 0 1 2 0 2 4 5 6 6 7 7 9 10 11 12
19 19 19 19 18 16 17 16 15 15 15 14 14 13 13 11 10 10 8 4 8 0 -2 -4 -12 -7 -4 -7 -6 0 2 3 5 6 6 5 6 6 7 8 10 11 13
18 17 17 16 15 15 14 13 13 13 12 10 9 9 7 6 3 3 1 -1 -6 -12 -14 -16 -11 -8 -5 -8 -9 -1 4 6 8 6 6 5 5 5 6 9 11 13 13
16 15 14 13 12 11 10 9 8 6 5 4 2 -0 -0 -4 -8 -13 -15 -16 -12 -17 -14 -13 -13 -9 -8 -8 -6 -2 3 1 2 5 5 5 4 5 8 9 11 12 14
12 11 11 10 8 8 7 5 4 1 -0 -3 -8 -13 -12 -12 -11 -19 -16 -13 -14 -14 -13 -13 -11 -9 -8 -5 -2 4 -3 -1 1 3 3 5 5 6 7 8 9 11 13

GFSGL_sfc_dewp_045.txt.gz
Dewpoint
50 51 52 52 53 54 55 55 55 55 56 56 56 55 53 53 51 50 49 48 48 48 48 48 47 46 45 44 43 43 42 39 38 38 33 32 31 30 30 32 37 37 38
52 53 54 55 55 56 57 57 57 57 57 56 55 54 52 51 50 50 48 48 47 47 47 46 45 44 43 43 43 41 41 41 38 36 35 32 31 31 31 30 30 34 34
53 54 55 56 56 56 56 57 57 57 58 57 57 54 53 52 50 49 48 47 47 47 46 45 44 42 41 41 41 41 39 37 37 35 35 33 32 32 32 33 32 33 32
54 54 55 56 56 56 57 57 57 58 57 57 54 53 52 50 49 48 47 46 46 45 44 44 42 42 40 40 40 39 38 36 36 36 36 35 34 34 35 35 34 35 35
54 55 55 56 57 57 57 58 58 57 57 54 53 51 50 48 47 46 46 45 44 44 43 42 41 41 40 39 39 37 35 33 32 31 30 31 29 29 29 31 32 33 33
53 55 55 55 56 57 56 54 53 52 51 51 50 48 47 47 44 41 43 44 43 42 41 40 40 40 37 35 34 33 31 28 25 26 26 25 24 26 27 26 27 26 23
54 55 55 55 55 53 52 51 50 48 46 46 46 46 45 44 40 41 40 42 42 41 40 38 37 34 32 30 28 27 26 26 28 25 23 22 22 22 24 24 24 24 24
56 55 55 53 51 50 49 47 45 45 44 44 43 43 43 42 39 39 38 39 38 38 37 35 31 30 29 27 24 22 21 21 21 21 21 22 22 24 25 26 27 26 25
52 51 51 50 49 47 45 43 41 41 41 40 41 40 40 39 37 37 37 36 32 29 28 28 27 27 26 25 22 20 21 23 24 25 23 23 24 24 25 26 24 24 23
49 47 48 47 46 43 41 40 38 38 38 38 36 35 36 36 36 36 35 31 27 25 23 23 25 24 23 21 23 23 23 23 22 21 21 21 21 22 23 24 20 18 18
44 43 42 42 42 39 38 37 37 37 36 35 32 32 32 32 32 33 31 29 26 24 21 21 22 21 21 23 25 24 22 20 21 20 19 19 19 20 20 19 19 18 18
41 40 39 39 38 38 37 37 37 35 33 31 28 27 26 26 27 27 25 24 23 23 22 21 21 21 23 24 21 19 19 21 20 18 16 16 16 16 17 17 16 17 19
40 39 39 38 38 38 37 36 34 33 32 29 27 25 23 22 23 24 22 21 21 21 21 20 20 22 23 21 18 17 20 19 17 14 14 14 14 16 16 16 16 16 17
38 37 34 32 30 30 29 32 31 32 31 28 26 23 21 19 20 20 20 21 21 20 20 20 21 22 19 19 18 16 16 16 15 14 13 13 15 14 13 14 13 14 14
30 29 28 25 24 23 24 25 25 26 29 27 25 23 20 20 19 20 20 21 22 22 21 20 17 16 15 14 15 14 14 12 12 13 12 11 11 10 10 12 12 13 12
27 26 24 22 21 20 20 21 26 27 27 27 26 24 23 21 19 19 20 18 19 21 19 15 11 9 13 12 12 11 11 11 10 10 10 10 8 8 8 9 11 10 10
25 24 23 22 21 21 21 21 21 23 24 23 23 22 21 21 19 18 18 17 17 17 16 13 9 9 11 11 11 10 9 9 8 8 8 7 6 7 7 7 9 9 9
25 26 24 24 24 24 23 24 23 23 22 23 24 23 21 21 20 21 22 20 17 17 16 14 12 13 10 8 8 7 7 6 5 6 5 2 2 5 5 6 6 6 8
23 24 25 25 26 26 25 25 25 25 24 23 23 23 23 22 21 21 21 18 16 15 14 14 13 10 8 8 8 6 2 -1 -2 -4 -4 -1 -3 3 3 5 5 6 7
25 25 25 24 24 24 24 23 23 22 22 21 21 19 18 17 14 14 14 13 14 14 13 11 9 8 8 6 3 -2 -4 -5 -4 -4 -3 -7 -3 4 4 4 5 5 7
23 23 22 21 20 20 20 20 20 19 19 18 16 17 17 16 15 15 15 12 12 12 10 9 8 5 3 1 3 -2 -4 -4 -2 -1 1 2 2 3 5 5 5 6 8
21 20 19 18 18 18 18 18 17 17 16 15 16 16 15 14 13 13 12 8 8 9 8 5 2 1 1 -1 -3 -11 -7 -9 -7 -0 1 3 4 4 4 4 4 5 8
18 18 17 16 17 16 15 15 15 15 13 13 12 11 10 8 8 8 7 5 6 3 -0 -2 -7 -7 -7 -10 -11 -8 -4 -1 1 3 2 1 2 3 3 3 3 5 8
16 15 15 14 14 13 12 11 12 11 10 7 5 5 4 2 -2 -2 -5 -10 -10 -13 -15 -16 -12 -9 -8 -11 -13 -8 -1 2 3 -1 -1 2 1 2 2 2 3 7 8
14 13 11 10 8 7 6 5 4 3 3 1 -2 -4 -1 -4 -7 -15 -20 -18 -16 -18 -12 -14 -16 -13 -11 -12 -11 -9 -3 -4 -6 -2 0 1 0 0 2 4 4 6 7
9 8 7 6 5 4 2 -1 -4 -5 -6 -8 -11 -13 -8 -10 -13 -21 -19 -17 -16 -16 -16 -15 -13 -12 -11 -9 -6 0 -7 -7 -6 -3 -1 -1 0 1 2 3 3 5 6

GFSGL_sfc_dewp_048.txt.gz
Dewpoint
48 49 50 50 50 51 51 53 54 54 54 54 55 56 56 56 56 56 55 52 52 52 50 50 48 49 48 46 44 43 41 40 38 39 38 35 34 35 35 34 35 36 38
48 48 50 51 52 52 52 52 53 52 55 55 55 56 56 56 53 52 51 51 51 50 49 48 47 47 46 45 44 43 42 42 40 38 37 35 34 36 34 33 33 32 35
48 49 50 51 52 53 53 53 53 54 55 56 56 56 55 52 51 51 50 50 49 48 47 47 46 45 44 43 42 41 41 38 38 36 35 35 34 34 34 34 35 36 34
49 50 50 51 52 52 53 53 54 55 55 56 57 56 56 52 50 50 50 48 47 47 46 46 45 44 42 41 41 39 38 37 37 36 36 36 34 34 34 32 30 32 31
51 50 51 52 53 53 54 54 55 56 56 57 57 55 52 51 50 49 48 47 46 45 45 44 43 42 41 40 39 38 36 35 33 31 30 29 27 28 26 29 24 25 25
53 52 52 53 54 54 54 55 56 56 57 57 55 51 50 49 44 44 46 46 45 44 42 41 41 39 37 36 35 34 32 30 27 27 25 23 21 23 25 24 24 23 20
53 53 54 54 54 55 56 56 56 55 53 51 50 49 48 48 41 42 43 44 43 42 40 39 38 34 32 30 30 28 26 27 25 23 20 21 21 21 23 23 23 23 22
52 53 53 54 55 55 53 52 49 49 49 47 46 46 45 43 40 39 39 41 39 39 38 36 33 31 29 27 24 21 20 21 21 21 22 23 24 24 25 25 26 24 23
53 54 54 54 51 50 49 47 46 46 45 45 44 43 42 40 38 37 38 35 32 30 30 30 29 28 28 25 21 19 21 23 24 23 21 21 21 21 21 24 22 21 18
52 51 51 50 49 47 44 43 42 41 39 39 37 38 38 37 37 36 34 31 29 26 25 26 27 23 23 23 23 23 22 22 19 18 17 17 18 19 20 20 19 16 16
48 48 47 46 44 42 40 40 39 37 34 33 31 30 31 33 34 34 33 30 28 25 23 21 21 22 24 25 26 24 21 19 18 17 16 16 17 17 16 17 17 17 16
43 42 41 40 39 39 38 38 36 34 32 30 28 27 27 27 28 29 29 28 26 24 21 20 22 23 25 24 21 20 20 20 18 16 14 14 15 14 14 15 15 16 17
42 39 39 38 38 38 36 36 34 32 31 30 28 26 24 24 24 24 23 23 23 21 22 22 23 24 23 20 18 18 20 17 16 14 13 13 12 13 14 13 14 14 15
37 35 34 33 32 32 32 34 33 32 30 29 27 24 22 20 20 21 21 21 22 21 22 21 22 21 20 18 17 16 16 14 13 12 12 12 12 12 11 11 13 12 13
32 30 29 29 28 27 27 28 29 30 31 29 27 24 23 21 20 21 21 21 22 22 22 20 17 16 14 14 15 13 13 12 11 11 10 10 9 8 8 9 9 10 11
29 28 27 27 25 25 25 25 29 29 29 27 26 24 23 22 21 21 21 22 23 22 19 16 14 13 13 13 13 12 11 10 10 9 9 8 7 6 7 8 8 8 9
26 25 24 24 23 22 22 23 21 25 28 28 27 27 25 23 23 21 19 20 18 17 17 14 12 12 13 12 12 11 9 9 8 7 7 7 6 5 5 5 6 7 7
25 25 24 24 25 25 25 24 24 23 22 23 25 23 22 22 23 24 24 23 19 19 17 14 13 13 13 12 11 8 6 6 5 5 5 5 3 3 3 3 4 5 5
26 26 26 26 26 26 26 26 25 24 23 22 22 22 23 23 23 22 21 19 17 16 16 15 14 12 11 10 8 6 4 3 3 1 2 1 0 1 1 3 4 4 4
25 25 24 24 23 23 23 23 22 21 21 21 20 18 18 18 15 15 15 15 15 15 14 13 12 10 8 6 4 1 -0 2 2 1 1 -3 -3 -1 2 3 4 4 4
21 21 21 20 20 20 20 19 19 19 17 16 15 17 17 16 15 14 14 12 12 11 10 9 7 5 3 2 3 1 -1 -2 -2 -2 -1 -0 -3 1 3 4 4 4 5
19 19 18 18 17 16 16 16 16 15 15 15 13 12 12 11 11 10 8 6 7 7 6 2 0 1 1 -1 -2 -8 -7 -9 -8 -4 -1 0 2 1 2 2 2 3 3
16 16 16 15 15 14 13 13 12 11 10 10 9 9 8 5 4 5 1 -7 -1 -4 -5 -6 -11 -7 -4 -8 -10 -9 -8 -5 -2 1 -1 -2 -1 0 1 1 1 2 2
15 14 13 12 11 10 8 7 7 7 5 2 -2 -3 -5 -10 -14 -13 -16 -18 -16 -18 -21 -19 -13 -11 -9 -11 -12 -9 -6 -2 1 -2 -3 -3 -2 -1 0 0 1 1 3
10 9 7 6 5 3 0 -1 -5 -10 -11 -13 -14 -14 -6 -8 -13 -22 -24 -22 -19 -22 -16 -18 -18 -14 -12 -13 -12 -11 -9 -3 -5 -7 -4 -2 -2 -2 -2 0 1 2 2
5 3 1 -0 -4 -6 -11 -15 -19 -20 -20 -20 -21 -18 -16 -17 -16 -23 -21 -19 -16 -15 -15 -15 -13 -13 -13 -11 -9 -5 -5 -9 -10 -8 -4 -4 -4 -2 -1 -0 -1 1 1

GFSGL_sfc_dewp_051.txt.gz
Dewpoint
53 54 54 54 54 53 53 52 52 52 52 53 54 55 56 56 57 58 58 58 55 56 55 54 53 53 51 50 49 46 45 45 43 40 40 40 39 40 38 39 38 39 38
52 53 54 54 53 53 53 53 54 53 53 52 53 54 55 56 57 57 57 56 54 54 54 52 52 51 50 49 47 45 44 43 41 40 41 38 37 38 38 39 37 35 38
51 52 53 53 54 52 53 53 54 54 54 54 54 55 55 55 56 57 56 54 53 54 54 52 50 49 48 46 45 44 43 42 41 38 37 37 37 37 38 37 36 36 32
49 50 51 52 52 53 53 53 54 54 54 54 55 55 56 56 56 55 55 55 54 53 52 49 48 47 47 44 43 43 41 39 38 37 36 36 37 36 34 32 29 26 22
49 49 50 51 52 52 53 54 54 54 54 55 56 56 56 56 55 54 53 52 51 49 48 47 47 46 43 42 42 40 39 37 36 35 33 32 32 29 28 24 21 19 21
51 50 50 51 51 52 52 53 54 55 55 56 56 56 57 56 48 46 49 51 50 47 45 43 43 41 39 38 37 36 37 34 31 30 30 29 28 23 22 21 21 19 15
52 52 52 52 52 54 53 53 54 55 56 57 57 56 55 54 44 44 43 48 46 45 42 40 38 36 35 33 31 30 29 27 28 27 25 22 20 21 23 22 21 20 18
53 53 53 53 53 54 54 54 56 56 56 55 53 51 49 47 41 41 41 44 42 41 41 38 36 33 31 29 25 22 20 20 21 19 22 23 24 22 22 20 20 21 20
52 53 54 54 54 55 55 52 49 48 46 45 45 45 44 41 39 38 38 37 35 34 34 33 32 30 31 29 23 21 21 22 25 23 21 20 19 19 20 20 20 17 19
50 52 54 55 53 52 48 46 43 42 40 39 38 39 38 38 37 37 36 33 31 30 29 29 29 29 29 26 23 21 20 21 19 19 17 15 15 16 18 17 15 17 15
52 52 51 51 48 45 42 41 39 36 34 33 32 32 34 35 35 35 35 32 29 27 25 24 26 27 27 26 25 22 21 19 20 17 15 15 15 15 14 14 15 16 16
46 45 44 43 43 41 39 37 36 34 32 30 29 28 28 30 32 32 31 30 29 26 22 22 26 27 27 23 22 23 21 20 20 17 15 13 14 13 11 12 13 13 14
42 41 42 41 38 38 36 35 34 33 31 30 29 27 25 25 25 27 27 26 24 23 23 24 26 25 23 21 21 21 19 18 18 16 14 13 11 11 11 13 13 12 13
38 37 36 35 34 35 34 34 33 32 31 30 28 25 23 22 22 22 22 23 23 23 24 23 22 21 20 19 18 17 15 15 14 14 14 12 12 12 11 11 12 12 12
34 33 32 31 30 30 30 31 31 32 32 31 29 26 26 23 21 21 21 22 23 23 22 21 19 17 16 16 15 14 14 13 13 14 13 12 10 9 9 9 9 10 11
32 31 31 30 30 29 27 27 30 29 28 27 26 25 25 26 27 27 27 25 23 21 20 19 18 18 16 15 15 14 15 14 14 13 12 9 9 9 8 9 10 10 10
28 27 27 27 27 25 24 23 23 27 28 28 28 27 26 26 24 22 21 21 18 19 20 19 18 18 17 16 15 14 13 12 11 9 8 8 9 8 8 8 8 8 9
27 28 27 26 26 26 26 26 26 25 24 25 27 26 26 26 26 26 24 23 21 20 19 17 16 16 15 13 12 11 10 9 7 6 7 8 8 7 7 6 7 7 7
27 26 27 27 27 28 27 27 26 24 23 22 21 22 23 23 23 22 21 20 18 16 15 15 15 14 12 11 12 10 8 7 7 7 6 6 7 6 6 5 6 5 6
24 24 25 25 25 24 24 24 23 23 22 21 19 18 18 18 18 18 18 18 16 15 14 13 12 11 10 8 9 8 8 7 6 5 5 6 7 6 5 5 6 6 5
23 22 21 21 20 21 21 20 19 18 17 16 16 17 16 15 14 14 13 13 12 11 11 9 9 8 8 7 5 5 3 3 3 3 3 3 5 4 4 5 5 5 5
20 19 19 18 18 18 17 17 17 16 14 13 13 12 11 13 11 10 9 10 10 8 7 7 6 4 4 3 2 2 1 1 1 2 2 2 3 3 3 4 4 5 5
17 16 15 15 14 14 14 13 13 12 11 11 10 9 8 9 8 7 6 6 6 5 4 3 3 1 1 0 0 -0 -1 -1 -0 1 2 1 1 2 3 3 3 3 4
14 14 11 11 11 10 11 11 9 7 7 8 8 8 7 6 5 3 3 4 3 3 2 0 -1 -3 -3 -3 -1 -1 -2 -1 -0 1 -1 -1 -1 -0 2 2 2 3 4
11 10 9 8 8 7 7 5 5 5 5 5 5 5 4 4 2 2 2 0 -1 -1 -2 -2 -2 -3 -4 -6 -5 -5 -5 -4 -2 -3 -2 -2 -1 -1 -0 1 2 3 3
6 5 5 5 4 4 4 3 2 2 2 2 2 2 1 1 0 -0 -2 -2 -3 -4 -4 -3 -4 -6 -6 -6 -6 -5 -7 -8 -6 -7 -5 -3 -2 -1 1 1 1 2 3

GFSGL_sfc_dewp_054.txt.gz
Dewpoint
53 55 55 56 56 57 57 56 56 56 56 55 55 55 55 55 55 56 56 56 56 57 59 58 57 57 56 54 54 52 50 50 48 45 42 42 42 43 40 42 42 41 41
53 54 56 56 55 56 57 57 58 57 56 56 55 55 54 54 54 55 55 55 55 56 57 57 56 54 53 53 52 51 50 49 47 44 43 41 42 42 41 40 39 37 38
52 53 55 56 56 57 56 56 55 55 55 54 53 53 52 53 52 55 54 55 56 55 57 56 54 55 53 52 50 48 47 46 45 42 41 40 41 39 39 40 39 40 36
52 53 53 55 56 56 56 55 55 54 54 54 54 53 54 52 53 53 54 55 55 56 56 56 56 54 52 50 47 46 45 43 41 40 40 38 38 39 39 36 36 36 32
52 52 53 55 54 54 54 54 54 55 54 53 53 53 54 53 53 54 55 56 56 56 55 55 55 51 46 46 46 44 42 40 39 39 37 37 36 34 34 34 30 29 25
52 52 52 53 53 54 53 54 54 54 53 53 53 53 54 54 48 47 53 57 55 55 51 49 48 45 43 41 41 41 41 40 39 37 35 33 33 32 31 29 26 22 18
52 51 51 52 52 53 53 52 53 54 54 54 54 54 54 55 45 45 45 56 53 51 47 44 43 41 40 37 35 33 31 31 33 34 32 31 30 29 26 25 23 21 20
52 51 51 51 51 52 52 52 53 54 54 55 55 56 56 55 44 44 42 49 46 45 43 42 39 37 36 33 30 26 25 24 22 19 23 24 24 23 23 21 21 21 21
51 51 51 52 52 52 53 54 55 55 56 54 53 52 51 46 41 40 42 41 39 37 37 37 35 33 33 32 26 23 23 24 27 25 23 22 20 19 19 18 19 18 22
49 50 51 52 53 53 54 56 52 49 42 40 38 39 39 39 38 39 38 35 33 31 31 32 33 31 30 29 26 25 25 24 20 19 19 18 18 19 19 18 15 17 17
48 50 52 53 54 55 50 46 41 38 36 34 33 34 35 36 36 36 35 33 31 30 28 28 30 31 30 28 25 26 26 22 21 18 17 16 16 16 16 15 14 14 16
52 51 49 48 45 44 42 40 39 36 34 32 31 30 30 32 33 33 32 32 31 27 26 28 30 30 28 27 25 24 22 23 23 20 18 15 15 14 12 12 12 14 14
45 43 42 40 39 39 40 38 35 34 33 30 28 27 26 27 29 30 30 29 28 27 27 28 30 28 25 24 24 22 21 20 21 21 18 15 13 11 11 13 16 13 12
39 38 37 37 37 37 36 35 34 32 31 29 28 26 25 25 26 27 27 26 26 26 28 27 25 24 24 22 20 20 18 17 15 16 16 14 14 16 16 16 15 13 13
35 34 34 32 31 30 30 31 31 32 32 29 28 26 25 24 25 25 25 24 25 25 26 26 25 22 20 18 17 16 17 16 17 19 18 17 16 15 14 12 11 11 13
32 32 31 30 29 28 26 27 30 30 29 28 28 26 27 27 28 28 28 27 26 26 26 24 23 23 21 21 22 21 19 16 16 15 16 15 14 13 13 13 12 12 12
29 28 29 28 27 27 26 25 23 27 28 28 28 28 28 28 28 27 25 24 24 25 25 24 23 23 21 18 18 17 16 15 13 13 13 13 13 12 11 11 11 11 11
28 28 28 28 27 27 27 27 27 26 24 25 27 27 27 27 26 25 25 25 23 21 21 21 20 19 16 14 13 12 12 13 12 11 12 12 12 11 11 10 9 10 9
28 29 29 29 29 30 29 28 27 25 23 22 22 23 24 23 22 22 21 22 20 17 16 16 16 15 13 12 14 13 13 12 11 12 11 10 11 9 8 8 8 6 7
27 26 27 26 26 26 27 26 25 23 22 22 21 21 23 23 20 19 20 20 18 16 15 13 12 12 12 11 12 12 11 10 9 8 9 9 9 8 7 7 7 8 6
25 25 25 25 24 24 24 23 22 21 19 17 17 17 16 17 16 16 15 15 14 12 12 11 10 10 10 9 7 8 7 7 6 6 6 6 7 6 6 7 7 5 5
23 22 21 21 20 20 19 19 19 17 16 15 14 14 13 16 14 12 11 12 11 10 9 9 9 7 7 6 5 6 5 5 5 5 5 4 5 5 5 5 5 6 6
20 19 18 17 17 17 17 16 16 16 15 14 13 12 12 12 11 9 9 10 9 9 8 7 7 5 5 5 5 4 3 3 3 4 3 3 3 3 4 4 4 5 5
16 16 13 14 15 14 15 15 12 9 11 12 13 12 10 10 10 8 8 8 7 7 6 5 3 1 1 1 3 3 2 2 2 1 2 2 1 1 3 3 3 4 5
14 14 13 13 13 12 11 10 10 11 10 10 10 9 8 8 7 7 7 5 3 3 2 2 3 1 -1 -2 -2 -1 -1 -3 -2 -3 -1 -0 0 0 1 2 3 4 5
10 9 10 10 10 9 9 9 8 8 7 7 7 7 7 5 5 5 3 2 1 -0 0 2 1 -1 -2 -2 -2 -2 -5 -6 -5 -6 -3 -2 -1 1 3 3 3 3 4

GFSGL_sfc_dewp_057.txt.gz
Dewpoint
54 56 57 58 58 58 57 58 57 57 56 54 54 55 55 55 56 56 56 56 56 56 57 57 57 57 57 59 58 56 55 53 50 51 48 46 44 44 44 44 45 44 43
52 55 58 59 59 58 59 59 59 58 58 56 54 54 54 54 55 55 55 54 55 55 55 56 56 56 58 58 57 55 54 53 51 49 45 43 43 43 44 43 41 41 42
52 54 57 58 58 58 59 59 59 59 58 57 55 55 54 55 55 55 55 55 55 55 55 55 56 57 57 57 55 53 53 51 50 46 42 42 43 41 41 41 41 42 40
52 53 54 57 57 58 58 59 59 58 58 57 57 56 56 55 54 54 54 55 55 55 57 55 55 57 56 55 54 53 51 48 46 45 42 39 41 40 40 40 39 40 39
53 52 54 56 57 57 57 58 58 58 57 56 57 57 57 55 54 55 54 54 54 54 55 56 56 55 50 53 53 52 48 45 44 42 40 39 38 38 37 38 37 37 36
54 54 54 55 55 56 56 57 57 57 57 57 56 56 56 54 47 44 50 55 54 53 54 55 56 50 48 44 43 43 45 44 42 40 39 38 38 37 36 35 33 32 29
53 54 53 55 55 56 56 55 56 56 57 56 56 56 56 56 44 44 44 54 56 57 56 56 51 46 45 43 38 35 34 35 37 40 38 35 34 35 33 32 31 29 26
50 52 53 54 54 55 55 55 55 56 56 56 56 56 56 55 43 44 44 55 55 53 53 50 45 41 40 39 36 33 31 31 30 31 33 30 27 28 27 27 27 25 24
47 50 51 53 53 53 54 55 56 56 56 56 56 56 55 54 43 43 44 44 40 39 40 40 39 36 36 36 32 30 30 30 29 28 26 24 23 22 20 21 21 21 26
43 48 51 51 52 52 54 55 56 56 54 46 41 41 39 40 41 42 42 38 34 33 33 34 34 33 32 31 29 28 26 26 24 22 19 18 17 19 18 16 16 19 18
41 44 50 51 52 53 54 55 51 45 39 37 34 35 35 36 37 38 37 34 32 31 30 30 31 32 32 32 32 30 29 29 27 23 21 21 20 17 18 19 17 16 17
52 51 51 51 50 49 46 43 41 38 35 33 32 32 32 33 33 34 33 32 32 29 29 29 30 30 30 30 29 30 28 27 26 24 19 16 16 17 16 16 17 17 16
48 45 43 41 42 41 40 38 36 35 34 32 30 28 28 29 30 31 31 30 30 29 29 29 29 29 28 27 26 23 24 24 23 23 22 22 21 18 17 16 17 16 17
38 38 37 36 35 35 35 36 35 34 33 30 28 26 26 26 27 28 28 29 29 28 27 27 27 27 25 24 23 25 24 20 19 22 23 22 20 20 20 20 19 17 16
33 32 31 30 30 29 29 31 31 32 31 28 27 26 25 24 26 28 27 26 26 26 26 27 26 26 25 23 21 20 21 20 21 22 21 20 18 17 16 16 16 15 15
30 30 29 28 28 27 26 26 30 29 30 29 28 27 28 29 29 29 29 29 29 29 28 26 26 26 25 24 24 22 20 19 16 15 17 16 15 16 15 16 14 14 14
30 30 28 28 27 26 25 23 22 27 29 29 29 29 28 28 27 27 27 27 27 28 26 26 25 24 23 21 19 17 17 17 14 15 15 15 14 13 13 12 12 13 12
29 29 28 28 28 28 27 26 25 24 22 23 27 27 27 27 27 27 27 27 24 24 23 22 21 21 17 16 15 14 14 14 14 12 12 13 13 12 12 10 9 11 10
29 29 30 30 28 28 27 25 24 23 22 22 23 23 25 25 25 25 24 24 21 20 18 16 16 15 14 13 15 15 14 14 12 12 11 11 12 9 9 8 8 9 9
27 28 28 27 27 27 26 25 23 23 23 23 22 23 23 20 20 20 20 20 18 16 16 13 12 12 12 11 12 13 12 10 10 8 9 9 10 9 7 7 8 7 7
27 26 26 26 27 26 25 23 21 20 19 18 18 20 18 18 17 16 14 15 14 12 13 11 11 12 11 10 8 9 7 8 7 6 7 7 8 6 7 8 7 5 5
24 23 23 23 22 22 21 20 19 19 17 16 15 15 15 16 14 12 12 13 13 11 10 10 10 8 8 7 7 7 6 6 6 6 5 4 4 5 6 5 5 5 5
20 20 19 18 18 17 19 17 17 17 15 15 13 12 12 13 12 11 11 12 10 10 9 8 8 6 7 6 6 5 5 4 4 4 3 3 3 3 4 3 3 5 5
16 16 13 14 15 15 16 16 13 11 12 13 13 12 11 11 11 10 10 9 8 9 8 7 5 3 2 3 5 4 3 3 2 1 1 2 1 0 2 2 2 3 5
15 15 14 14 14 14 14 12 12 12 12 12 12 11 10 10 9 9 8 7 5 5 4 4 5 3 2 0 -0 0 1 -1 -2 -4 -2 -1 -0 0 0 2 3 4 6
11 11 12 12 12 12 12 11 10 10 10 10 10 10 8 7 7 7 5 4 2 1 2 4 3 1 -0 0 0 1 -4 -5 -5 -5 -4 -3 -2 -0 2 4 2 2 3

GFSGL_sfc_dewp_060.txt.gz
Dewpoint
56 57 56 55 55 57 55 55 55 55 54 54 54 54 55 57 57 57 56 56 56 56 55 55 56 56 56 56 56 56 55 55 53 53 50 49 46 47 48 48 48 47 45
55 57 57 56 56 56 56 56 56 55 55 54 53 53 54 54 55 55 55 54 55 54 55 54 54 54 55 55 56 56 55 54 53 51 50 45 46 46 47 45 46 44 44
53 55 57 57 57 57 56 56 56 55 56 55 54 52 52 53 53 54 54 54 53 53 53 53 53 53 54 55 55 56 56 55 54 52 50 43 43 43 44 44 44 42 42
53 53 55 57 57 57 57 57 57 57 56 56 55 54 53 52 52 52 52 53 53 53 53 53 53 53 53 54 55 56 55 53 52 51 48 41 41 41 42 41 40 41 41
54 52 52 55 57 57 57 57 57 57 57 57 56 55 55 54 52 52 52 53 53 53 53 53 54 53 49 51 55 55 54 52 51 48 46 39 40 39 39 40 39 40 41
55 54 53 53 55 56 57 57 58 57 57 57 57 56 56 54 48 45 50 54 53 53 52 53 53 49 48 45 46 48 52 52 49 46 45 41 41 38 39 38 37 35 33
54 54 54 54 54 55 56 56 56 57 57 57 56 56 56 56 46 44 43 53 53 53 53 53 53 51 48 46 37 36 35 35 38 44 41 37 36 37 37 36 34 31 29
46 52 54 55 54 54 55 55 55 56 56 56 56 56 56 55 47 44 43 51 53 53 53 53 54 47 44 40 36 34 33 33 34 35 34 32 32 32 32 29 26 25 25
47 41 50 53 54 54 54 55 55 56 56 56 56 55 55 54 41 41 42 48 42 37 38 38 39 38 38 39 35 32 30 30 32 32 32 31 30 25 24 27 26 26 28
51 53 51 48 52 53 54 55 55 55 55 53 42 41 39 41 39 40 44 40 34 33 33 33 34 34 34 34 31 29 26 27 27 25 23 22 23 23 23 21 21 25 25
46 50 49 50 52 53 54 54 55 48 40 36 34 34 34 36 37 39 38 35 33 31 30 31 32 33 33 33 31 29 28 29 28 28 28 28 28 27 25 22 20 19 22
43 46 44 44 46 46 46 43 42 39 36 34 32 31 32 33 34 34 34 33 32 30 29 30 31 31 31 30 29 30 30 29 29 28 27 25 24 21 21 22 21 21 20
38 38 38 38 38 39 40 39 37 35 34 32 30 28 28 30 31 32 32 32 30 29 29 29 29 28 28 28 29 29 28 27 27 26 26 25 26 26 23 22 24 22 21
32 32 31 30 31 32 35 36 35 33 31 30 29 27 26 27 28 29 28 27 27 26 26 25 25 25 26 26 26 24 24 24 24 24 24 25 26 25 23 23 22 20 18
30 30 29 28 28 28 28 28 28 30 30 28 27 27 25 25 27 28 27 26 26 26 26 27 26 26 24 24 24 24 25 23 21 21 20 19 18 17 17 18 18 18 16
28 28 28 27 27 26 26 26 30 30 30 30 29 28 28 30 30 30 30 30 30 30 27 26 25 24 23 23 22 21 21 17 17 18 17 17 16 16 15 15 16 15 14
29 29 27 27 26 25 24 23 22 26 29 29 29 29 29 29 29 29 30 29 28 26 22 22 21 21 20 20 19 18 17 16 17 16 14 14 14 13 12 12 12 12 11
29 28 27 26 26 25 24 23 23 21 20 22 26 27 28 28 29 28 27 24 21 21 21 19 18 18 17 14 14 15 14 15 13 12 9 9 9 10 8 9 9 8 9
27 27 28 27 26 26 25 24 23 22 21 21 21 22 24 25 25 23 22 19 17 16 16 15 15 15 14 15 15 14 11 9 8 6 8 7 2 7 5 7 7 6 6
25 26 27 26 25 24 23 21 20 19 19 20 21 21 21 18 17 16 17 16 15 14 14 13 13 13 13 12 11 10 8 7 6 5 1 1 0 4 3 4 4 5 5
24 24 25 24 23 23 22 20 19 18 17 17 18 18 17 15 14 13 13 13 12 12 12 12 12 11 10 9 8 7 5 4 4 3 4 3 -4 -1 4 5 5 5 5
23 21 20 19 20 19 19 19 19 17 16 15 15 14 14 14 12 12 11 11 11 9 10 9 9 8 7 6 4 -1 0 -2 1 1 -0 -1 1 2 4 1 1 0 3
17 17 17 17 16 15 14 15 16 16 15 14 13 12 12 11 11 10 9 9 10 8 7 6 5 4 4 1 4 4 1 3 3 -2 -5 -3 0 1 -2 -2 1 1 1
16 16 14 14 14 14 14 14 13 12 13 13 12 12 11 10 10 8 7 4 3 7 5 1 5 1 -1 -2 -1 -1 3 0 -1 -1 -5 -8 -5 -2 -1 -0 -1 -1 2
14 14 14 14 13 13 12 12 12 11 11 11 10 10 9 10 8 8 5 6 3 0 0 1 -0 -1 -0 -6 -5 -2 -6 -9 -12 -11 -9 -6 -6 -7 -4 -1 0 4 1
11 11 11 11 11 11 10 9 9 9 8 8 8 8 8 7 5 5 4 -1 -4 -3 0 -1 1 -3 -5 -1 -2 -6 -10 -10 -10 -6 -9 -4 -5 -4 -1 -1 -3 -1 0

GFSGL_sfc_dewp_063.txt.gz
Dewpoint
54 55 56 56 56 55 55 53 53 52 50 50 53 55 56 55 54 56 56 56 56 55 55 55 55 55 55 55 56 55 54 53 51 51 51 50 49 50 49 50 50 50 49
55 55 55 56 56 56 55 55 55 53 52 51 51 53 55 55 55 54 54 55 56 55 55 55 55 55 55 55 55 55 55 54 53 51 52 48 48 47 47 47 48 48 48
56 55 55 55 54 55 55 55 54 55 54 53 52 51 51 52 53 55 55 55 55 55 55 55 54 54 54 55 55 55 55 55 55 54 53 48 48 44 45 45 46 46 46
55 56 55 55 54 54 55 55 55 55 55 54 54 53 53 52 52 52 53 55 55 55 55 54 54 54 54 54 53 53 54 54 55 54 53 47 44 43 45 44 42 44 44
55 54 55 56 56 55 55 55 55 55 55 55 55 54 54 53 52 53 53 53 53 53 53 53 53 52 49 50 53 53 53 53 54 53 52 44 42 39 41 43 43 42 42
55 54 53 56 56 56 56 56 56 56 55 55 54 55 55 53 48 44 49 52 52 52 52 53 53 48 47 44 44 46 51 53 53 53 52 49 46 44 42 41 39 37 36
49 52 55 54 55 56 56 56 56 56 57 56 56 56 55 55 47 45 43 51 52 52 52 52 53 53 48 51 39 38 38 38 38 51 52 47 39 38 39 37 35 35 34
46 46 49 52 53 53 55 56 56 57 57 56 56 56 56 56 48 46 44 50 53 53 54 54 53 52 50 44 38 34 32 32 33 34 34 32 32 34 34 34 32 31 31
41 42 44 49 48 49 53 54 55 55 56 56 57 57 57 56 45 44 44 51 52 40 38 39 42 42 39 40 35 31 29 29 32 32 32 31 30 31 33 31 30 29 28
38 39 43 45 44 45 47 50 55 55 55 55 47 41 39 44 38 41 44 46 36 33 33 34 35 36 35 35 31 29 27 27 28 28 29 30 30 31 30 30 29 27 27
36 39 39 39 39 41 43 44 52 51 41 38 36 36 36 37 38 40 41 41 36 32 32 31 33 33 33 33 32 30 28 29 28 28 28 28 28 28 28 27 26 25 24
35 34 33 33 33 35 39 41 41 40 38 36 34 32 32 33 34 35 35 34 33 31 30 31 32 32 32 31 30 30 30 29 28 27 26 26 25 25 26 26 27 26 26
31 30 29 29 29 30 31 34 36 37 35 34 32 30 29 30 31 32 32 32 31 29 29 31 30 29 29 28 29 29 28 28 26 24 23 23 24 26 26 26 25 22 21
28 28 28 27 26 27 28 29 30 32 32 31 30 28 28 27 27 27 27 27 26 26 26 26 26 25 25 25 25 25 25 24 23 23 22 22 23 22 21 20 20 19 17
27 26 26 26 26 25 26 28 27 29 30 28 29 28 27 25 27 28 27 26 26 26 26 26 24 23 23 23 22 21 21 21 20 20 19 19 17 16 16 16 15 15 14
26 25 26 25 26 25 23 24 29 30 30 30 30 29 30 30 31 31 31 30 30 29 25 23 21 22 21 20 18 17 19 19 18 16 16 15 14 14 13 14 13 12 11
25 25 24 23 23 23 24 23 21 24 27 29 30 30 30 29 29 28 27 27 26 24 21 20 19 18 18 17 17 16 16 14 14 14 13 12 11 10 10 10 10 9 9
25 25 25 24 23 23 22 21 21 20 19 19 25 25 26 27 26 25 24 22 18 19 18 17 16 16 16 15 13 14 12 11 10 10 8 7 6 8 7 7 8 5 7
25 25 24 24 23 22 21 21 21 21 19 19 19 19 21 23 22 22 21 17 16 15 15 14 14 13 13 12 10 10 9 7 5 2 3 5 0 5 3 5 5 3 3
23 24 24 23 21 20 19 19 18 18 17 17 17 17 17 15 14 13 14 14 13 14 13 12 11 10 10 9 7 3 4 3 3 4 -3 -4 -8 -2 -1 0 -0 -1 4
22 21 21 21 21 20 19 18 17 16 15 15 15 15 14 12 11 11 10 9 10 10 10 9 8 7 5 5 5 2 -0 0 1 -0 -1 -1 -12 -5 0 -0 -2 2 3
20 18 17 16 16 18 18 17 16 15 14 13 12 13 12 11 10 10 9 8 8 8 7 6 6 4 4 4 2 -4 -1 -2 -6 -6 -7 -7 -5 -4 -3 -6 -7 -8 -2
15 14 15 16 15 14 14 14 13 12 11 11 11 10 9 8 7 7 6 7 7 5 5 3 1 -1 0 -1 -1 -3 -1 -3 -6 -12 -14 -14 -9 -10 -12 -10 -6 -7 -7
14 13 13 12 12 11 11 10 11 10 10 10 9 9 8 7 5 2 1 -1 1 -2 -3 2 -0 -1 -4 -9 -11 -3 -5 -13 -10 -11 -17 -18 -13 -6 -10 -8 -6 -8 -2
11 10 10 10 10 7 7 7 7 6 6 5 5 5 6 5 5 0 -5 -9 -8 -8 0 -0 -4 -7 -11 -9 -10 -11 -12 -12 -17 -14 -15 -14 -16 -17 -14 -7 -5 -2 -7
9 7 7 6 4 4 -2 -4 -1 0 -4 -6 -4 2 -3 -8 -2 -3 -11 -9 -8 -5 -8 -9 -8 -8 -4 -4 -7 -9 -13 -11 -14 -14 -18 -13 -15 -13 -13 -12 -9 -7 -4

GFSGL_sfc_dewp_066.txt.gz
Dewpoint
56 56 56 56 55 55 53 51 51 52 51 51 54 55 55 54 54 54 55 56 56 55 55 56 55 55 55 55 55 55 54 53 51 51 51 51 51 51 51 51 52 51 51
55 55 55 56 56 56 55 54 53 51 51 50 50 54 55 55 54 53 52 52 55 55 55 55 54 55 55 55 55 54 54 53 52 50 51 49 49 50 52 51 51 51 51
54 54 55 55 55 55 55 55 55 53 52 51 50 49 51 54 55 54 53 53 53 55 55 55 54 54 54 54 54 54 54 54 53 53 51 52 51 44 46 46 48 49 49
55 55 54 54 55 55 55 55 55 55 54 53 52 51 50 49 51 53 54 54 53 53 54 55 55 54 54 54 53 54 54 53 53 53 53 53 51 47 45 46 47 47 48
55 55 55 55 55 55 55 55 55 55 55 54 54 54 53 52 50 50 51 51 52 53 53 54 55 53 50 51 53 53 54 53 53 53 53 53 49 41 44 48 47 49 45
47 47 54 56 57 56 55 55 55 55 55 54 54 54 54 53 48 45 48 51 51 51 52 54 55 49 49 45 45 46 50 53 52 52 52 52 52 49 49 49 46 38 38
42 43 45 46 50 55 56 56 55 54 55 55 55 55 53 54 47 45 43 51 52 53 52 52 52 52 48 52 44 41 37 36 38 48 52 52 51 51 50 39 37 36 34
38 39 41 43 46 46 47 50 56 56 55 55 55 55 55 54 47 44 43 50 52 52 53 53 53 52 52 51 44 35 33 33 34 35 36 33 34 35 37 36 34 32 32
35 36 37 40 40 41 43 44 46 47 55 56 56 56 55 55 48 46 45 53 53 52 52 48 49 52 48 44 39 32 30 30 33 33 33 33 33 34 34 34 32 31 28
33 34 34 34 35 36 39 40 42 44 45 52 56 56 52 55 46 43 46 54 53 51 37 36 37 42 39 39 39 32 28 28 30 29 29 29 30 30 30 31 31 29 27
32 31 30 30 30 33 33 37 40 41 41 41 40 36 36 36 37 40 43 50 48 35 33 32 33 34 35 35 33 32 29 29 28 28 27 26 26 27 27 27 28 27 26
29 29 28 28 28 29 31 32 35 37 36 34 32 31 31 31 34 35 35 35 36 34 32 31 32 33 32 32 31 31 30 29 28 26 25 24 24 25 26 27 27 27 26
27 26 27 26 26 27 28 29 30 32 32 31 30 28 28 28 29 31 32 32 31 31 31 31 30 29 28 28 29 28 27 26 25 23 22 22 23 24 25 24 24 21 20
25 24 25 25 24 26 27 28 28 28 28 28 27 26 26 26 27 27 27 27 27 26 25 25 25 25 24 23 23 23 22 22 22 20 20 21 22 21 20 21 18 17 16
24 24 24 24 24 23 25 27 28 29 29 27 27 27 26 25 27 28 27 26 26 26 25 24 22 21 19 19 20 20 20 20 19 19 18 18 17 16 14 14 13 12 13
22 22 22 21 21 21 22 21 25 28 30 30 30 29 28 30 29 29 28 28 27 26 22 20 19 18 17 17 17 16 17 16 17 16 15 15 13 12 12 12 11 11 9
22 23 22 21 21 20 20 19 18 22 23 26 27 27 27 27 27 26 25 25 24 21 17 17 16 16 16 16 16 14 13 14 14 12 11 11 11 10 10 8 8 7 7
21 21 20 20 19 19 19 20 19 18 17 17 21 23 24 24 24 24 23 19 16 17 16 15 14 15 14 14 13 11 11 11 10 9 8 7 8 8 7 6 6 5 5
22 20 19 19 18 19 19 19 18 17 17 16 16 17 17 20 20 20 19 15 14 13 13 12 12 11 10 10 10 9 8 7 6 4 3 2 1 5 4 5 4 3 3
19 20 19 18 17 16 17 17 16 15 14 13 13 13 14 12 10 10 10 11 11 10 10 8 8 8 8 8 7 6 5 3 4 3 -1 -5 -9 3 2 1 1 0 2
18 16 15 18 18 17 16 15 14 13 12 12 11 12 11 9 8 8 7 7 7 7 7 6 5 6 6 4 4 1 -0 -1 -1 -2 -3 -2 -7 -3 -1 -3 -3 0 1
15 15 15 14 15 15 14 13 13 12 11 10 10 9 8 8 7 7 6 5 6 6 5 4 4 4 2 2 1 -1 -3 -7 -8 -9 -10 -11 -10 -9 -9 -9 -9 -12 -5
13 11 12 12 13 11 11 11 10 9 8 8 8 7 6 4 3 3 3 1 2 1 0 -1 -3 -3 -3 -5 -3 -5 -5 -8 -12 -16 -19 -19 -12 -14 -16 -15 -10 -12 -11
10 9 10 8 7 8 7 6 7 6 5 5 5 4 4 1 -2 -5 -7 -8 -6 -3 -4 -5 -4 -5 -6 -12 -12 -8 -8 -15 -12 -14 -20 -20 -15 -12 -16 -12 -10 -12 -11
6 5 5 4 2 -1 -1 1 -0 -2 -0 -0 0 -2 -2 -1 -6 -12 -12 -9 -7 -8 -6 -8 -11 -13 -13 -15 -14 -15 -15 -13 -18 -16 -17 -17 -19 -20 -17 -13 -15 -10 -13
4 2 1 -0 -3 -4 -5 -6 -8 -11 -14 -14 -13 -15 -15 -9 -12 -20 -18 -13 -14 -13 -12 -11 -4 -9 -11 -9 -9 -11 -14 -14 -18 -17 -23 -16 -20 -20 -19 -19 -14 -14 -10

GFSGL_sfc_dewp_069.txt.gz
Dewpoint
54 55 55 55 54 53 52 52 53 53 52 53 55 54 53 54 54 53 52 52 52 53 54 54 54 54 54 55 55 54 54 53 51 51 51 51 49 51 51 51 51 51 50
56 55 55 55 55 54 54 53 52 52 53 52 52 55 55 53 53 53 54 54 55 54 53 53 54 54 55 55 55 54 54 54 53 51 51 51 49 51 51 50 51 51 51
55 55 55 55 55 55 55 55 54 52 52 52 51 51 53 54 54 53 52 52 52 54 54 54 54 54 54 54 55 54 54 54 54 53 51 52 51 46 48 47 49 49 51
54 55 55 55 55 55 55 55 55 54 53 52 51 51 51 51 53 54 53 53 52 51 51 52 53 54 53 53 53 54 54 53 53 52 52 51 52 49 46 49 49 48 49
50 50 53 55 56 56 56 55 55 55 54 53 53 52 51 50 49 50 51 53 52 52 52 52 52 52 49 51 52 53 53 52 52 52 52 52 52 48 48 51 49 51 51
41 42 44 46 51 54 56 56 56 56 55 55 54 54 53 52 47 44 46 49 50 51 51 52 52 48 48 45 45 46 49 52 52 52 51 51 51 52 52 50 51 48 46
37 39 40 42 42 44 45 47 53 55 55 55 55 55 54 54 46 45 43 50 50 50 50 51 51 52 49 53 47 43 44 43 45 52 52 52 52 52 52 50 49 50 47
35 35 36 36 37 38 40 42 43 45 47 51 55 55 55 55 47 46 46 52 53 52 51 51 51 51 51 52 52 50 48 47 39 40 46 48 41 39 41 42 42 33 32
32 32 31 32 32 34 36 36 38 42 43 44 46 47 52 55 48 44 45 52 53 53 53 53 53 52 49 46 49 49 38 33 34 35 34 34 33 34 36 36 33 34 29
30 29 28 28 30 31 32 33 35 38 40 41 40 36 35 34 36 36 39 51 52 52 52 51 36 35 37 41 49 49 38 31 30 28 28 28 29 30 30 30 32 29 27
28 28 27 27 28 29 30 31 33 35 36 35 32 31 30 31 32 35 37 41 47 47 37 32 32 34 34 35 35 36 33 29 28 27 26 26 26 26 26 26 26 26 23
27 26 25 26 26 27 28 30 31 31 31 30 29 28 28 28 30 31 33 34 35 33 32 31 31 32 32 32 31 31 30 27 26 24 23 22 22 22 23 24 25 24 24
25 24 24 24 24 25 26 26 27 28 28 27 27 26 26 27 28 29 29 29 30 28 28 28 28 27 27 27 28 27 26 24 23 21 20 19 21 22 23 22 24 23 23
23 23 23 23 22 22 24 24 24 26 26 26 26 25 26 26 26 26 26 26 26 25 24 23 24 23 22 22 21 22 21 21 20 19 18 19 19 19 18 19 18 20 17
22 22 22 22 22 22 24 24 24 26 25 24 24 25 24 24 26 28 27 25 24 24 22 21 20 19 18 18 18 18 18 18 17 17 16 16 15 15 14 15 14 14 12
21 21 21 21 21 20 20 21 23 24 25 26 25 24 25 26 26 26 26 25 24 23 19 17 16 16 15 15 14 14 15 14 15 14 13 13 13 12 11 11 11 10 9
21 21 20 19 19 19 18 17 16 17 21 22 23 24 24 24 24 24 23 22 22 19 15 14 14 14 13 13 13 12 11 12 12 11 11 10 11 10 10 8 8 7 7
17 17 17 17 17 16 16 15 15 14 13 13 18 20 21 22 22 21 21 17 13 14 13 11 11 11 11 11 10 9 9 9 8 7 6 7 8 8 7 6 5 5 4
18 16 14 15 15 15 15 14 13 12 11 11 11 12 14 17 17 17 15 11 10 9 10 9 10 9 9 8 8 6 6 4 3 2 2 2 2 5 4 3 3 3 2
14 16 15 15 14 14 13 12 11 10 9 9 8 9 9 8 7 7 8 8 8 7 7 7 7 6 7 6 5 5 4 3 3 2 -1 -2 -1 2 1 1 0 -1 1
12 13 12 14 14 13 12 11 11 10 8 7 6 7 6 6 5 5 6 6 6 5 5 5 4 4 5 4 2 0 -2 -2 -2 -3 -2 -2 -9 -5 -3 -5 -4 -2 -1
13 13 13 12 12 11 11 10 9 8 7 6 5 4 3 4 3 3 2 2 3 4 4 3 1 1 1 0 -0 -4 -7 -10 -10 -10 -10 -12 -8 -8 -9 -11 -12 -12 -4
10 8 9 9 9 5 6 7 5 4 3 2 3 2 0 -3 -3 -2 -4 -7 -2 -4 -2 -3 -4 -4 -5 -7 -6 -6 -8 -11 -12 -16 -18 -16 -11 -14 -17 -16 -12 -12 -12
6 4 7 4 2 3 -1 -4 -2 -0 0 -3 -8 -5 -8 -12 -16 -18 -14 -13 -11 -10 -14 -15 -10 -8 -9 -16 -16 -10 -8 -16 -12 -14 -21 -21 -16 -13 -18 -14 -12 -15 -15
1 -1 -1 -4 -8 -10 -8 -8 -10 -12 -10 -13 -14 -12 -8 -11 -13 -20 -22 -18 -16 -21 -16 -17 -17 -16 -17 -17 -16 -15 -15 -16 -19 -19 -19 -19 -21 -22 -19 -16 -18 -14 -16
-0 -3 -6 -7 -9 -11 -13 -16 -21 -21 -21 -21 -22 -23 -21 -19 -20 -25 -21 -19 -19 -18 -16 -15 -14 -14 -14 -9 -10 -12 -15 -16 -19 -20 -25 -17 -22 -22 -22 -21 -17 -16 -13

GFSGL_sfc_dewp_072.txt.gz
Dewpoint
54 54 53 53 53 52 52 52 54 54 54 53 53 54 54 55 56 56 55 54 55 55 55 54 53 53 52 53 54 53 52 52 49 49 52 51 51 51 52 52 52 52 52
55 54 54 54 54 52 52 52 52 53 53 53 54 53 53 54 54 55 54 53 53 53 54 53 52 52 52 52 53 53 53 54 53 51 51 53 50 52 52 52 51 51 52
55 55 55 55 54 53 53 53 52 52 52 52 52 54 54 54 53 53 54 53 52 52 51 51 52 53 53 53 54 54 54 54 54 53 52 53 53 51 50 50 51 52 51
54 55 55 55 55 55 55 55 54 53 52 52 52 52 52 53 54 53 53 53 53 53 54 53 53 52 52 51 52 53 53 54 54 53 53 53 53 53 49 50 50 49 50
46 46 47 51 56 56 56 56 56 55 54 53 52 52 52 52 51 52 53 53 53 52 52 51 52 52 49 51 52 52 53 53 52 52 51 51 51 51 49 51 50 51 52
39 40 41 43 45 45 47 48 54 56 56 55 54 53 53 51 46 44 47 51 51 52 52 52 52 48 47 44 44 45 48 50 51 51 50 49 50 50 51 52 51 50 49
35 35 35 37 37 38 41 42 43 45 47 48 52 55 55 54 47 45 42 50 50 50 50 50 50 51 48 51 47 42 43 42 44 50 50 50 50 51 52 51 51 51 51
31 31 31 32 33 35 36 36 38 41 43 44 45 45 44 41 35 35 37 48 52 52 52 52 52 52 51 51 51 51 49 48 48 48 50 50 39 38 43 46 47 43 32
28 28 28 30 31 32 32 34 35 37 40 41 37 36 33 34 33 35 36 41 50 52 53 53 53 53 49 46 49 49 49 38 34 35 34 31 31 32 34 38 36 35 31
27 26 27 29 29 29 30 32 34 36 36 35 31 30 30 30 32 34 35 38 41 46 49 34 33 34 35 38 43 49 49 36 29 28 27 27 27 27 28 27 31 32 29
25 25 25 26 27 28 29 30 31 32 31 30 29 29 28 29 29 31 32 35 36 32 30 30 31 32 34 37 33 34 33 28 27 26 25 24 24 24 24 24 25 25 22
25 24 23 24 25 25 26 28 28 29 28 28 27 27 28 27 28 29 28 29 28 27 26 26 27 29 29 29 29 29 28 26 24 22 21 20 21 21 22 22 23 23 22
23 23 22 22 22 24 24 25 25 25 25 25 25 25 26 27 26 27 27 26 25 24 25 24 24 23 23 23 25 24 23 22 21 18 17 17 18 20 21 22 23 21 20
22 22 23 22 22 22 23 24 24 23 23 23 22 22 22 23 24 23 23 22 22 22 22 21 21 21 19 19 19 20 19 19 18 17 16 16 18 17 16 19 18 18 15
21 21 21 21 22 22 23 23 23 25 24 22 23 23 22 22 25 25 23 21 20 20 19 18 17 16 15 16 15 15 16 16 15 16 15 14 14 13 13 14 13 12 11
21 20 20 20 20 20 20 20 23 24 24 25 25 23 24 25 24 24 24 23 21 19 15 14 13 13 13 13 12 12 12 12 13 13 12 12 12 11 10 11 11 10 8
19 19 18 18 18 17 16 15 13 16 19 21 22 23 23 23 22 22 21 19 18 15 11 11 10 11 11 11 10 10 9 10 9 9 10 10 10 9 9 7 7 7 5
14 14 14 15 14 12 10 9 9 9 8 10 15 18 20 20 20 18 16 13 9 10 10 9 9 9 9 8 7 6 5 6 5 5 5 6 7 7 5 4 3 4 3
13 11 8 7 9 8 7 8 8 7 6 6 7 8 9 14 14 14 12 7 6 6 7 7 8 8 7 6 6 6 5 4 3 2 2 3 4 3 2 2 2 2 2
8 13 11 10 9 9 9 8 7 6 5 4 4 5 5 3 2 3 3 3 4 4 5 5 5 5 5 4 4 4 2 1 1 1 -0 -2 0 2 -0 -1 -0 0 -0
6 9 9 11 10 10 9 8 7 6 4 3 2 2 2 2 1 1 1 1 1 2 1 2 1 2 3 1 -0 -2 -4 -4 -4 -4 -4 -4 -5 -3 -2 -2 -2 -1 -1
9 11 11 9 9 7 7 7 5 4 3 2 1 -1 -3 -2 -1 -1 -3 -7 -6 -1 -1 -3 -2 -2 -2 -3 -4 -8 -9 -11 -10 -10 -9 -7 -6 -6 -6 -5 -5 -5 -3
7 4 6 6 5 1 1 3 0 -1 -2 -4 -2 -3 -5 -10 -9 -7 -8 -13 -7 -9 -8 -8 -9 -8 -8 -10 -9 -8 -9 -10 -10 -13 -13 -12 -9 -9 -10 -8 -7 -7 -7
3 1 5 1 -1 -2 -8 -11 -7 -4 -4 -10 -14 -14 -16 -20 -22 -18 -15 -15 -16 -18 -21 -18 -11 -10 -10 -15 -14 -8 -8 -13 -11 -12 -16 -14 -11 -11 -11 -9 -8 -10 -8
-3 -5 -6 -6 -10 -15 -14 -13 -16 -20 -18 -21 -19 -19 -14 -17 -18 -25 -25 -22 -19 -22 -15 -17 -16 -14 -16 -18 -16 -15 -15 -16 -18 -18 -14 -15 -16 -16 -14 -11 -12 -9 -10
-2 -5 -9 -10 -13 -16 -18 -23 -25 -25 -24 -25 -26 -27 -25 -21 -21 -27 -24 -20 -20 -16 -14 -17 -15 -16 -15 -9 -8 -12 -16 -16 -17 -21 -18 -12 -14 -14 -14 -13 -12 -11 -9

GFSGL_sfc_dewp_075.txt.gz
Dewpoint
54 55 57 56 56 56 56 56 56 57 56 56 56 57 56 57 57 57 57 57 56 55 55 55 55 55 55 55 54 53 52 52 50 49 50 53 55 55 54 55 54 53 53
54 54 54 56 56 56 56 56 57 56 56 55 55 56 56 56 57 57 56 56 56 55 56 55 55 55 55 55 54 53 54 54 52 51 51 51 55 56 56 56 53 51 53
55 55 55 54 55 55 55 55 55 56 56 55 54 54 55 55 56 56 56 56 56 56 56 56 55 55 54 54 54 53 53 52 53 52 52 52 53 55 56 56 55 55 53
55 54 54 55 55 55 56 56 55 55 55 55 55 55 55 54 54 54 55 56 56 55 55 55 55 55 55 55 55 55 54 53 53 53 53 54 54 54 55 55 54 55 53
44 44 45 47 48 50 52 54 56 56 54 54 54 54 55 54 54 55 54 54 54 55 56 54 55 54 49 51 52 54 54 54 53 52 52 53 53 53 54 54 54 54 54
36 36 38 39 41 43 45 46 47 47 48 53 54 54 53 48 36 38 45 54 54 54 54 55 55 50 50 44 44 45 49 52 52 52 51 50 51 53 53 53 53 53 52
33 32 33 35 36 37 38 39 41 43 45 45 44 44 42 35 35 36 36 43 50 52 53 53 53 53 50 53 47 42 43 43 44 50 50 50 50 51 51 51 51 51 51
29 29 31 33 33 34 36 37 39 41 42 39 37 35 36 33 34 34 34 41 45 48 51 52 52 51 51 50 52 52 50 50 47 47 49 50 41 34 37 44 46 46 34
27 28 30 31 31 33 34 35 37 38 37 33 32 31 32 31 32 32 34 39 42 44 36 34 33 35 36 37 41 48 49 36 33 32 32 31 29 29 31 38 37 37 33
26 27 28 29 30 30 31 33 33 33 31 30 29 30 30 30 30 31 33 38 38 34 30 29 31 32 33 33 37 38 34 30 29 27 26 25 26 26 27 27 30 34 32
24 25 26 26 28 29 29 30 30 29 29 29 28 28 28 28 29 29 29 29 29 27 26 26 27 28 29 30 29 29 27 27 25 25 23 23 23 22 23 22 22 24 23
23 24 24 25 26 26 27 28 28 28 28 28 27 27 27 27 27 27 27 26 25 24 24 25 25 25 26 26 25 25 24 23 22 20 19 19 20 22 21 22 21 23 23
23 23 23 23 23 24 25 25 25 25 25 25 24 24 25 25 26 25 25 24 24 26 25 24 23 23 23 23 23 22 21 22 20 18 18 20 21 22 24 24 23 23 21
21 22 22 22 22 22 23 24 24 23 23 23 23 24 24 25 26 26 26 26 24 24 23 23 21 21 20 20 22 22 22 22 21 20 19 19 21 21 19 20 19 18 13
21 21 21 22 21 21 23 23 23 26 25 23 23 24 24 24 26 25 25 25 24 21 23 23 22 21 21 20 19 18 19 20 19 19 18 17 15 14 13 14 12 12 11
21 21 21 21 20 20 19 19 22 23 23 23 24 24 25 24 23 23 21 20 19 19 20 19 19 18 17 17 16 15 14 13 14 14 14 13 12 12 12 12 12 10 9
22 21 20 20 19 19 18 18 17 18 18 20 21 21 21 21 20 19 18 18 17 17 17 16 15 15 14 12 11 10 10 10 10 11 11 12 11 10 10 8 9 8 7
18 17 20 19 18 18 18 17 16 16 15 14 15 16 18 18 17 16 14 14 14 14 13 13 12 12 10 8 7 7 7 8 8 8 9 10 10 9 9 6 6 7 5
19 18 18 18 17 16 16 15 14 13 12 12 12 11 10 12 12 13 12 12 11 10 9 9 10 9 8 7 9 8 8 7 7 7 6 6 8 6 5 4 4 3 3
18 15 16 16 16 15 14 12 11 10 9 8 8 8 9 8 9 9 9 10 9 7 7 6 6 6 7 6 7 7 7 5 5 4 5 6 7 5 4 3 4 4 2
17 16 14 15 14 13 12 11 9 8 7 6 5 5 3 5 5 5 5 6 6 5 6 5 6 6 6 5 3 4 2 2 1 1 2 2 3 4 2 3 3 2 1
15 14 13 12 11 11 9 8 8 6 5 4 5 3 2 5 4 3 3 4 5 4 3 4 3 2 2 2 2 3 0 -0 -0 -0 0 -0 1 2 2 3 3 3 2
12 12 10 9 9 7 9 7 7 7 5 5 4 3 3 3 3 2 2 3 3 3 3 3 3 1 1 1 1 1 -1 -2 -2 -3 -2 -1 -0 1 2 2 1 1 1
10 11 8 8 9 7 8 7 6 3 4 4 5 3 2 2 2 1 1 2 3 3 2 2 1 -1 -1 0 1 0 -2 -3 -3 -4 -6 -4 -2 -2 1 -0 0 -1 0
9 8 8 7 7 6 6 5 5 5 5 5 4 4 2 2 1 1 0 -0 -1 1 -1 -1 0 -3 -3 -5 -4 -4 -6 -7 -6 -9 -3 -5 -6 -7 -4 -1 -2 -1 -2
5 5 5 6 5 5 5 4 4 4 3 3 2 2 1 0 -1 -1 -2 -2 -2 -2 -4 -1 -2 -4 -4 -6 -9 -4 -6 -7 -7 -11 -5 -3 -4 -2 -2 -3 -5 -2 -2

GFSGL_sfc_dewp_078.txt.gz
Dewpoint
55 56 55 55 56 57 56 56 56 58 58 57 58 58 58 58 57 57 56 55 54 54 55 54 54 55 55 55 56 55 54 54 51 51 51 51 53 54 52 54 53 55 54
55 55 55 56 56 57 56 56 57 57 57 58 58 58 57 57 57 57 57 57 55 53 54 55 54 55 55 55 55 55 54 54 52 50 52 51 52 54 55 56 53 51 54
54 55 55 55 55 55 55 56 57 56 56 56 56 56 57 57 57 58 57 57 57 57 56 54 54 53 53 54 54 54 54 53 54 52 52 53 53 54 54 55 55 57 54
54 52 52 54 55 55 55 55 55 55 56 55 55 55 55 56 56 57 57 57 57 57 57 57 57 56 56 56 56 56 55 55 55 55 54 53 53 53 54 53 54 55 55
43 43 44 45 47 48 50 50 54 55 55 55 55 55 56 49 39 42 54 56 56 56 57 56 56 54 50 52 56 57 56 55 55 54 53 53 53 53 53 54 54 54 55
37 38 39 41 41 42 43 45 46 47 48 47 45 43 41 36 35 36 39 50 53 54 54 55 55 50 50 45 45 45 50 54 54 53 53 52 52 52 53 53 52 52 52
35 35 36 38 37 39 40 41 43 44 42 40 40 39 35 33 34 34 34 39 45 49 51 49 51 53 48 51 48 43 43 42 42 49 51 52 52 52 48 51 52 51 51
31 32 33 35 36 38 39 40 41 39 37 35 35 35 33 31 32 33 34 40 44 38 34 34 36 38 36 36 40 45 50 37 35 39 37 32 30 31 33 38 40 40 37
28 29 30 33 33 35 36 37 37 36 34 33 32 32 32 30 31 32 37 43 37 33 31 30 31 31 32 33 39 41 37 30 31 30 29 28 28 28 28 34 35 36 37
28 27 29 30 31 33 33 34 33 32 31 31 30 32 31 31 29 30 34 34 31 29 28 28 28 28 29 30 33 36 29 27 26 25 25 25 24 24 25 24 24 30 32
26 27 28 29 30 31 31 31 31 31 31 31 30 30 29 28 28 28 29 30 28 26 26 26 28 27 27 28 28 27 26 25 23 23 22 23 23 23 23 24 24 23 23
25 25 26 27 27 28 29 29 30 29 29 29 29 28 28 28 27 27 27 27 28 28 28 27 27 26 26 26 27 25 24 24 24 23 23 23 23 25 26 25 25 24 24
24 24 25 25 25 25 26 27 27 28 28 28 28 28 28 28 28 26 25 25 25 27 26 25 24 24 25 25 24 25 27 30 29 28 26 25 25 25 27 28 27 25 21
23 23 23 23 23 23 24 25 26 27 27 26 27 27 27 27 27 28 28 28 27 27 27 27 26 25 24 25 25 26 25 25 25 25 25 25 25 23 22 22 21 21 16
23 23 23 23 23 22 24 24 23 26 26 26 26 25 26 25 25 24 24 27 27 26 27 28 27 26 25 24 23 22 22 22 22 22 22 21 19 17 15 15 14 14 14
23 24 24 24 23 22 21 20 22 23 23 23 23 25 25 23 22 21 21 20 20 22 26 25 23 23 21 19 19 18 17 16 16 17 18 16 15 15 15 16 15 14 12
26 25 24 24 24 23 24 23 21 20 19 19 20 21 20 20 19 18 18 18 18 21 23 21 21 20 18 15 14 13 13 13 13 15 15 15 16 15 14 12 13 12 11
25 23 26 25 25 25 25 24 23 23 22 21 16 16 16 16 16 16 15 17 19 17 17 17 17 16 13 11 10 11 12 13 13 12 14 14 15 13 13 11 9 11 9
25 25 24 24 23 22 22 21 20 19 19 18 18 16 14 12 13 14 14 17 16 14 12 11 13 12 11 10 14 14 13 12 12 13 12 11 14 11 10 9 10 6 7
21 19 21 22 22 21 19 17 16 15 15 14 13 13 13 13 16 15 16 16 14 12 11 9 9 10 11 11 13 12 12 11 10 9 11 12 12 11 10 9 9 9 6
21 20 18 20 18 18 17 15 14 13 12 11 10 9 7 10 11 11 10 12 11 9 11 9 10 10 10 10 8 10 8 9 7 7 8 8 9 9 8 9 8 6 4
18 17 16 16 15 15 12 12 12 11 9 9 9 8 6 11 10 9 9 10 10 9 8 9 8 7 7 7 7 9 7 7 7 7 7 6 6 8 8 7 7 8 6
16 16 14 12 12 11 14 11 12 12 11 11 9 8 8 10 9 8 8 9 8 9 7 8 8 6 6 7 7 6 5 4 4 3 3 5 5 6 7 7 5 5 5
15 16 12 13 14 12 14 14 11 7 9 11 12 11 9 9 9 7 7 8 7 8 7 7 5 2 2 4 7 5 2 2 2 2 -0 2 3 3 5 4 4 3 4
14 14 14 13 14 13 13 11 12 12 12 12 12 11 9 9 7 7 7 6 3 5 0 3 4 2 -2 -2 -2 -1 -2 -4 -3 -4 2 2 1 0 1 2 2 3 2
10 10 11 12 12 12 12 12 12 10 9 10 10 9 8 6 5 5 5 2 2 2 -0 3 2 -1 -1 0 -10 -1 -4 -4 -4 -5 -2 2 1 2 2 2 0 2 2

GFSGL_sfc_dewp_081.txt.gz
Dewpoint
57 56 56 57 57 58 58 57 57 58 58 58 59 59 58 57 56 55 55 54 54 54 55 55 54 55 55 54 55 55 54 54 52 51 51 53 55 55 53 55 55 56 55
56 56 57 56 56 57 56 56 57 57 57 58 58 57 58 58 57 57 56 55 53 53 53 53 53 52 54 53 54 54 54 54 53 51 52 52 53 54 53 53 52 50 53
56 56 56 56 57 56 56 56 57 56 57 57 58 57 57 58 58 57 57 56 55 54 54 54 53 54 53 54 54 54 53 53 53 52 51 51 52 53 53 53 53 54 52
53 52 53 54 55 55 55 57 58 57 56 56 56 57 57 56 54 55 57 57 57 57 57 57 55 53 53 54 54 54 54 54 53 53 52 53 54 55 55 54 54 55 54
45 45 45 46 47 48 49 52 54 52 51 50 54 47 42 39 36 39 47 55 57 57 58 57 57 55 51 52 55 55 56 55 55 55 55 55 55 55 54 54 54 54 55
40 41 41 42 43 44 45 46 44 43 43 43 40 38 37 34 34 35 37 48 52 52 52 49 51 43 42 40 41 41 44 51 54 54 53 53 54 55 55 54 54 54 52
37 37 39 41 41 42 43 41 40 39 38 38 37 35 33 33 34 35 35 42 42 38 37 37 40 38 35 36 39 40 35 34 36 42 46 45 38 34 35 40 45 44 44
34 36 37 38 39 41 40 38 37 36 35 35 35 34 32 31 33 34 35 39 35 32 31 33 33 32 31 33 37 42 32 30 30 30 29 28 28 28 29 33 35 37 37
31 31 33 35 36 36 36 36 35 35 34 33 32 33 31 30 32 33 38 35 32 30 29 29 30 30 30 33 38 36 30 28 29 29 28 27 28 28 27 31 28 31 34
30 30 31 32 34 34 34 35 34 33 32 32 30 30 31 29 30 32 34 32 30 28 28 28 28 28 29 31 33 30 26 26 25 25 25 26 25 26 26 26 26 27 25
28 28 29 31 32 33 33 34 32 32 31 31 30 29 28 28 28 29 32 31 30 29 28 27 28 27 27 28 28 28 26 26 25 26 26 27 28 28 28 28 28 27 27
29 27 28 30 29 30 32 33 32 31 31 30 30 30 30 28 27 27 28 28 29 28 28 28 28 26 26 27 28 28 28 30 30 29 28 27 26 27 28 28 27 26 25
27 28 28 28 28 29 30 30 30 30 31 30 29 29 28 30 30 28 27 26 26 28 28 26 26 26 25 26 25 25 27 29 29 27 26 26 26 27 31 31 34 28 22
24 24 25 25 25 25 24 26 26 29 28 29 29 28 27 26 26 29 30 29 28 29 29 29 28 27 26 25 26 26 28 26 26 26 26 26 27 24 21 22 21 19 18
25 24 24 24 22 22 23 24 23 26 26 26 25 25 25 24 24 24 25 27 28 28 31 30 27 27 25 25 24 23 22 23 22 23 22 21 19 18 16 17 16 16 16
25 25 26 25 24 22 20 20 21 23 22 23 23 25 24 22 21 21 21 22 23 25 26 24 24 23 21 20 19 19 18 17 17 18 18 17 17 16 16 16 16 16 14
27 25 25 26 25 25 26 22 20 20 19 19 19 20 20 19 18 18 19 19 20 23 23 22 21 20 18 16 16 15 15 14 14 16 16 16 17 16 16 14 13 13 13
26 25 26 26 26 26 26 25 26 26 23 20 16 16 15 16 17 17 17 18 19 18 18 18 18 17 14 13 12 12 13 14 14 14 15 15 16 14 14 12 11 11 10
25 25 25 25 25 24 24 23 23 22 21 21 21 18 16 14 15 16 17 19 17 15 13 12 14 13 12 12 15 16 15 14 14 14 14 12 15 13 11 10 11 11 10
23 21 23 24 23 22 22 20 19 18 18 16 14 14 15 16 17 17 18 18 16 14 13 11 11 12 13 12 15 14 13 13 11 11 13 13 13 13 11 10 10 10 7
23 21 19 21 19 19 19 17 16 16 14 13 11 12 10 13 14 13 12 14 13 11 13 11 12 12 12 12 11 12 10 11 9 9 10 9 11 11 9 10 9 8 7
19 17 16 17 16 17 15 14 15 13 12 12 12 11 10 14 12 11 11 13 13 11 10 11 10 9 8 9 9 10 9 8 8 7 7 7 8 9 9 9 9 8 7
17 17 15 14 14 13 16 13 15 15 14 14 12 11 11 13 12 10 11 12 11 11 9 9 10 8 7 9 9 8 6 5 5 5 4 5 6 7 7 8 6 6 5
16 17 12 14 15 15 16 16 14 9 11 13 14 13 11 11 11 10 10 9 8 10 9 8 6 3 3 5 8 6 3 1 1 2 1 4 4 4 4 4 5 5 5
16 16 15 15 15 15 15 13 14 13 13 13 13 12 10 10 9 9 9 7 5 6 5 5 5 3 3 1 1 1 -0 -3 -2 -3 1 3 4 2 4 3 4 3 4
12 12 13 14 14 14 14 13 13 12 11 11 11 11 10 9 8 8 7 5 4 3 3 5 4 1 1 2 3 0 -3 -3 -3 -5 -3 1 4 3 3 2 3 3 3

GFSGL_sfc_dewp_084.txt.gz
Dewpoint
59 58 58 57 58 59 59 59 58 59 59 59 59 57 56 56 57 57 56 56 56 55 55 55 55 56 55 55 55 54 53 51 51 51 50 50 51 53 52 54 55 55 55
58 57 58 58 58 58 58 58 59 58 59 58 59 58 57 56 56 56 55 55 55 54 55 55 54 55 55 55 55 54 53 51 49 48 51 51 51 52 53 54 53 52 51
57 57 57 57 57 57 57 57 57 57 58 58 58 58 58 57 56 56 55 55 54 53 53 53 53 54 53 53 53 52 53 53 53 52 50 49 50 51 51 51 51 52 52
53 51 51 52 54 54 56 57 57 57 57 57 55 49 47 44 45 49 56 56 55 55 54 54 54 53 53 52 51 52 53 52 52 51 51 51 51 51 51 51 51 53 53
47 47 48 48 48 50 49 48 48 48 46 46 42 41 39 37 36 37 43 53 57 56 56 56 50 44 41 42 51 51 53 53 53 53 52 52 52 53 54 55 55 55 55
42 43 44 44 45 44 43 42 41 41 40 38 36 36 36 34 35 36 38 49 44 43 42 42 42 37 38 38 37 35 35 44 48 50 51 52 51 40 41 41 44 47 48
40 41 42 43 41 40 39 38 38 37 37 35 35 34 33 34 35 38 38 37 35 35 35 35 35 33 33 35 37 33 32 32 32 37 39 31 32 30 32 36 40 40 41
36 38 40 40 40 39 38 37 36 35 35 35 33 32 32 33 37 36 35 34 32 31 31 32 32 31 32 35 37 31 30 30 30 29 29 29 29 29 29 32 35 35 35
34 35 36 38 38 37 36 36 35 35 33 33 32 31 31 31 34 36 34 32 30 29 29 30 29 30 32 37 33 30 27 28 29 29 28 28 28 28 28 29 27 31 33
32 34 34 35 35 35 35 35 34 33 32 30 29 30 29 29 32 33 32 31 29 28 28 28 29 28 29 30 29 27 25 25 26 26 27 28 29 28 28 27 28 26 23
32 33 34 34 34 33 33 33 32 31 31 30 28 27 27 28 29 31 32 30 28 27 26 26 27 27 28 29 28 27 26 28 28 29 28 27 27 28 26 23 23 23 24
31 32 32 33 33 34 33 33 32 31 31 30 30 30 29 28 28 28 28 28 28 27 27 28 27 26 27 27 27 28 30 29 28 27 26 25 25 23 26 22 19 18 18
32 32 31 31 30 29 28 30 31 31 30 29 28 27 27 28 30 29 28 28 28 27 27 27 26 25 26 25 26 25 26 27 26 25 24 25 23 22 20 22 23 20 20
24 24 24 23 24 25 25 25 24 28 28 28 28 26 24 24 25 28 29 29 29 29 29 28 27 27 25 23 22 23 23 24 24 23 23 19 20 19 18 20 19 21 19
25 24 23 22 21 21 23 23 23 24 26 24 23 24 22 21 23 24 26 26 28 28 28 27 25 24 21 20 19 18 18 19 18 17 17 17 17 18 18 19 19 19 16
26 27 27 24 23 21 19 20 22 23 23 23 24 23 23 22 22 22 23 23 25 26 24 22 20 19 17 17 17 16 16 15 16 17 16 17 17 16 17 17 17 16 15
28 27 26 26 27 28 24 21 18 18 19 18 19 20 20 20 19 20 20 20 22 23 20 19 16 16 15 15 15 15 13 15 16 15 14 14 15 16 15 15 14 12 12
26 26 27 27 26 26 26 26 25 24 19 17 17 17 18 18 19 20 19 19 18 17 17 16 15 14 14 14 14 14 14 12 12 14 10 11 11 14 11 12 13 9 11
26 27 26 26 26 25 25 24 23 22 21 19 20 18 17 17 18 19 19 17 15 14 14 13 13 13 13 14 10 12 9 6 6 6 10 9 5 12 8 10 10 7 7
23 23 24 25 24 23 23 21 20 19 17 14 12 13 15 17 15 14 15 14 14 14 13 12 12 13 12 12 11 6 8 8 7 9 4 3 3 9 5 8 6 7 9
24 23 19 21 21 21 20 19 18 17 14 11 10 10 8 15 14 13 12 12 12 12 11 12 10 8 9 9 11 11 6 7 6 5 6 6 1 8 6 9 7 8 8
21 19 18 18 17 18 17 17 17 16 15 14 13 10 9 14 13 12 12 10 10 10 11 11 10 10 9 8 7 2 4 1 2 2 -0 1 4 8 3 7 4 2 5
19 19 18 17 17 16 18 16 16 16 15 15 14 13 13 12 10 10 11 8 11 9 6 7 4 5 3 7 8 7 1 -0 -1 1 -3 0 2 4 2 4 3 5 1
19 19 15 15 16 17 18 16 12 8 13 14 13 13 10 11 8 9 7 4 4 7 2 3 5 1 0 -3 0 4 -1 -6 -4 -2 -8 -2 3 2 -3 -0 1 -3 -2
17 17 17 16 16 17 16 15 14 13 13 12 12 12 11 11 10 8 6 4 0 0 3 2 2 -1 -1 -6 -3 -3 -8 -7 -10 -9 -6 -6 -0 -2 0 0 1 2 -4
14 14 15 16 15 15 14 14 13 12 10 11 10 11 8 7 8 4 5 3 2 -2 -0 3 2 -1 -4 1 0 -5 -9 -8 -11 -10 -12 -4 0 -2 -3 -6 -5 -2 -1

GFSGL_sfc_dewp_087.txt.gz
Dewpoint
59 58 58 57 58 59 59 59 59 59 58 58 58 57 57 57 57 58 58 57 57 57 57 56 56 55 55 55 54 53 53 52 50 50 51 52 51 52 53 54 55 56 55
58 58 58 58 59 59 59 58 59 59 59 58 58 57 56 57 57 56 57 57 56 56 55 55 55 55 54 55 55 54 54 53 52 49 49 49 51 52 52 53 52 53 54
58 57 57 58 58 58 58 58 58 58 58 58 58 58 57 56 56 56 56 56 56 56 55 55 55 55 54 54 54 53 53 53 52 51 49 50 52 50 50 50 51 51 51
52 52 52 54 54 53 53 55 56 56 52 48 47 46 46 45 48 54 56 55 55 55 55 55 54 54 54 53 53 52 52 51 53 52 51 50 49 49 51 50 50 53 53
48 48 48 50 49 47 46 46 45 44 43 43 41 40 40 39 38 43 51 54 55 53 52 44 42 41 39 40 51 50 51 52 52 52 51 51 51 52 51 48 50 50 47
43 44 45 44 43 43 42 41 41 39 38 37 36 37 37 37 37 38 43 42 42 42 42 41 38 38 37 36 35 34 34 40 47 48 50 46 42 37 37 39 41 45 45
40 41 41 40 39 38 38 38 37 36 35 35 35 35 37 37 36 36 36 35 34 35 35 36 34 34 37 34 33 32 32 32 31 37 33 31 31 30 31 36 39 39 39
36 39 39 38 37 37 36 35 35 34 33 33 32 33 35 36 35 34 33 32 31 31 31 31 32 34 36 34 31 30 29 30 30 30 29 29 29 29 29 31 32 33 31
33 35 37 37 36 36 35 34 34 33 32 31 31 31 32 34 35 34 31 30 29 29 30 30 30 32 35 33 30 28 27 28 30 30 30 29 28 28 28 27 26 27 29
32 33 34 35 36 35 34 34 33 31 30 30 30 31 32 32 34 33 30 28 27 27 28 29 30 29 30 29 28 26 25 26 28 29 28 29 29 27 25 22 22 23 17
33 33 33 34 34 34 34 33 32 31 30 28 28 29 29 30 31 31 30 28 27 26 26 27 29 30 31 30 30 28 27 28 27 26 24 20 20 20 21 19 17 18 16
32 31 31 31 31 32 33 33 33 31 29 28 28 28 28 28 30 29 29 28 27 26 26 27 27 28 28 28 28 28 28 26 25 21 16 16 16 17 17 16 15 15 13
28 27 27 28 28 28 27 29 31 31 29 26 25 24 25 27 29 28 28 28 28 27 27 26 26 25 25 25 25 26 25 24 21 19 16 16 12 12 17 18 19 19 19
26 25 25 25 25 25 25 25 25 26 26 26 24 23 23 25 26 28 29 29 29 28 28 27 25 23 21 20 20 20 20 19 17 14 9 8 13 16 16 17 16 19 17
23 22 22 21 22 22 23 23 23 25 23 22 22 22 21 22 25 26 26 27 27 26 24 23 21 19 19 17 17 16 17 18 16 16 16 16 16 17 17 17 16 17 13
28 26 24 21 20 19 19 19 23 23 23 23 22 22 22 23 23 24 25 26 25 23 20 18 17 16 16 16 15 14 15 15 16 16 14 15 15 15 15 15 13 13 12
26 27 26 27 25 21 19 17 16 18 19 21 21 22 22 21 21 22 22 22 22 20 16 15 12 12 14 14 14 13 12 14 15 12 12 11 12 13 12 13 12 12 11
24 25 25 25 25 24 24 20 19 16 14 13 18 19 21 22 22 21 19 17 14 15 14 12 12 11 13 13 14 12 10 9 9 11 7 5 7 9 7 10 10 5 9
24 20 20 19 19 20 20 19 19 17 15 13 13 15 16 19 19 18 17 12 10 10 12 12 11 11 12 11 5 8 1 2 3 -1 2 4 0 6 4 8 7 4 6
17 19 20 20 19 17 17 18 16 13 10 7 7 7 11 12 9 9 9 8 10 11 11 10 9 8 7 11 6 -5 2 1 2 3 -3 -2 1 6 2 7 3 2 8
17 18 17 18 17 17 15 16 15 11 9 7 4 2 8 11 9 8 8 7 7 9 10 9 4 3 2 0 5 2 -1 -0 0 -1 -3 -1 -4 4 2 4 6 6 7
18 17 17 15 15 14 16 16 14 13 11 8 6 8 8 9 9 8 8 3 -1 5 8 7 6 3 4 6 0 -6 -7 -11 -8 -6 -8 -6 -2 -0 -3 -0 0 -1 2
17 16 17 15 18 13 11 11 11 10 8 7 9 8 7 1 2 5 1 -6 7 -1 -2 -2 -6 -4 -4 -1 1 -5 -7 -10 -11 -11 -15 -12 -4 -0 -10 -9 -4 -4 -7
16 15 15 12 13 13 9 0 0 5 7 3 -1 -2 -2 -5 -4 -2 -9 -11 -9 -2 -11 -9 -5 -5 -7 -12 -11 -8 -6 -13 -11 -10 -17 -16 -8 -2 -3 -1 -2 -4 -8
10 8 6 7 6 4 1 3 2 0 1 -0 1 2 3 5 4 -2 -10 -11 -10 -11 -8 -5 -6 -8 -10 -12 -9 -12 -11 -10 -15 -13 -15 -14 -13 -5 -5 -8 -11 -7 -9
6 6 6 8 4 4 5 6 4 -2 -2 -2 -2 -2 -5 -3 0 -7 -8 -7 -11 -11 -10 -2 -1 -6 -8 -5 -7 -7 -11 -11 -15 -14 -18 -13 -11 -11 -14 -13 -10 -11 -8

GFSGL_sfc_dewp_090.txt.gz
Dewpoint
59 59 57 57 58 59 58 58 58 58 58 57 57 58 57 58 58 57 57 58 58 57 58 57 56 56 56 55 54 53 52 51 49 50 51 52 51 51 55 57 57 57 56
59 58 58 59 59 59 59 59 59 58 58 58 57 57 57 57 57 57 57 57 57 56 56 56 55 56 55 55 54 53 52 52 50 49 50 52 52 52 52 53 53 54 55
58 58 58 58 58 58 58 59 59 59 58 58 57 57 57 57 57 57 57 57 57 57 56 56 55 55 54 54 53 53 53 54 53 52 51 51 51 52 52 51 51 51 50
54 55 54 54 54 54 54 53 54 52 50 49 48 48 49 49 53 56 57 56 56 56 56 56 56 55 55 54 53 53 53 53 53 52 51 50 51 51 50 49 49 51 50
47 48 49 48 48 48 47 45 44 43 43 43 43 42 42 41 41 48 54 55 54 47 45 43 41 41 40 43 53 51 53 52 52 51 51 51 50 50 47 45 48 48 41
42 42 44 45 43 42 41 41 39 39 38 38 38 39 39 39 38 39 45 45 45 43 40 39 39 37 36 35 35 34 35 43 50 50 47 45 38 35 37 38 41 44 44
39 41 39 39 39 38 37 37 36 36 36 36 37 37 36 36 36 36 36 37 36 36 37 36 37 36 35 33 32 32 32 32 32 37 33 32 31 30 31 35 38 39 34
35 37 37 36 36 35 35 34 33 34 33 34 35 35 34 34 34 34 33 32 32 31 32 34 35 36 34 32 31 30 30 30 30 30 30 29 30 30 30 32 33 32 30
33 34 35 35 34 33 32 32 32 32 31 32 33 33 33 33 33 32 31 30 30 31 31 32 34 33 33 32 29 28 28 29 30 30 29 27 26 27 28 27 25 31 28
32 32 33 34 33 32 32 31 31 30 30 30 30 31 33 32 32 32 30 29 28 29 30 30 31 31 31 30 28 27 27 28 27 27 27 25 22 20 23 19 18 20 24
31 32 31 32 32 33 32 32 31 30 29 28 28 29 30 31 32 32 31 29 28 28 28 29 31 32 31 30 29 28 26 27 23 21 20 19 18 18 18 17 15 18 14
28 28 28 28 29 31 32 32 31 30 28 28 27 27 29 30 31 31 31 29 29 27 27 28 29 29 29 29 28 27 27 23 21 19 19 17 17 17 16 18 16 14 12
27 26 26 26 27 27 27 28 28 28 27 26 26 26 26 29 30 30 30 29 28 27 27 27 25 25 25 24 25 24 23 21 20 18 16 12 8 11 17 19 21 22 20
25 25 25 25 25 25 25 26 25 25 25 24 24 23 25 26 27 28 29 29 28 26 24 23 21 21 20 19 19 20 20 19 18 17 15 7 15 17 16 17 16 18 16
25 24 23 23 24 24 24 24 24 25 25 23 23 24 24 24 27 29 28 27 25 24 22 21 20 18 17 17 17 17 17 17 15 15 15 15 15 16 14 15 14 15 13
24 22 21 20 19 19 19 21 25 24 24 23 23 23 25 26 27 28 26 24 22 20 18 16 15 15 14 14 14 14 15 14 15 14 13 14 13 14 14 14 13 12 11
26 26 26 22 20 18 18 17 17 21 23 24 24 24 22 23 24 24 23 21 19 17 14 14 13 13 13 13 12 11 11 13 12 10 9 9 10 11 11 12 10 11 10
23 23 23 23 24 21 18 17 16 16 15 15 19 23 23 22 21 20 19 16 14 14 13 12 9 10 12 12 10 9 8 7 6 7 4 2 2 6 7 8 8 4 8
24 23 21 19 19 20 20 18 16 14 12 11 13 14 17 19 18 18 16 12 11 10 11 10 9 11 9 8 2 1 -1 -1 -6 -6 -2 0 -4 3 3 6 5 2 5
18 19 18 18 18 18 17 15 12 10 10 9 10 7 12 10 8 8 7 7 8 9 9 8 7 6 5 6 -2 -7 -2 -4 -2 -2 -11 -10 -9 -2 -0 1 -0 -1 5
18 17 15 16 16 16 15 13 10 9 9 10 9 8 10 9 7 6 7 5 6 8 5 5 2 1 1 0 2 -3 -6 -8 -6 -8 -8 -6 -16 -7 -2 0 -0 3 5
17 17 16 16 16 15 15 14 11 10 10 10 10 7 8 6 7 7 4 -2 -3 4 5 2 1 2 1 -0 -5 -12 -15 -19 -16 -15 -15 -13 -9 -7 -8 -6 -7 -8 -2
16 14 15 15 13 9 11 12 9 7 7 6 7 7 5 1 0 2 -0 -8 -3 -7 -6 -5 -7 -5 -5 -8 -10 -9 -10 -13 -13 -18 -19 -18 -10 -8 -12 -11 -7 -8 -10
14 10 13 10 11 8 -1 -5 1 5 5 -0 -6 -5 -4 -7 -8 -9 -14 -15 -12 -16 -18 -13 -8 -7 -10 -16 -15 -11 -9 -15 -13 -14 -19 -19 -14 -7 -11 -9 -8 -11 -12
6 5 3 3 2 2 1 1 -3 -5 0 -1 -3 -4 -3 -4 -7 -14 -16 -16 -14 -15 -12 -6 -11 -11 -14 -14 -15 -13 -12 -13 -17 -16 -18 -17 -16 -16 -15 -12 -15 -11 -13
3 3 2 5 2 3 5 2 -2 0 1 -2 -2 -7 -6 -1 -0 -12 -14 -13 -14 -14 -12 -12 -7 -9 -11 -9 -9 -10 -13 -13 -17 -17 -22 -15 -18 -18 -19 -17 -14 -14 -11

GFSGL_sfc_dewp_093.txt.gz
Dewpoint
59 59 58 57 57 57 57 56 56 57 57 57 57 57 56 57 57 58 58 58 58 58 58 57 56 57 55 55 55 53 53 52 50 52 52 52 52 52 55 56 57 56 56
59 59 58 58 58 58 57 57 57 56 56 56 57 57 57 57 57 57 57 57 57 57 57 57 56 56 55 54 54 53 53 52 51 49 51 51 51 51 51 52 52 55 53
57 58 58 58 58 58 59 58 58 57 57 57 57 57 57 57 57 57 57 57 57 57 57 57 56 56 55 55 54 53 53 53 52 51 50 51 51 51 51 52 52 49 43
47 53 55 57 57 56 56 56 55 54 52 50 50 49 50 51 54 56 57 57 57 57 57 57 56 56 55 55 54 53 53 53 53 52 52 52 52 52 52 50 49 49 43
43 43 44 49 51 49 48 46 45 45 44 44 44 43 42 42 41 45 55 56 51 48 46 44 44 44 45 50 54 53 53 52 52 51 51 51 51 50 49 46 48 44 38
39 39 40 41 42 41 41 41 40 39 40 40 39 38 38 37 37 39 47 47 45 43 40 39 38 38 36 36 36 35 37 50 51 51 50 49 40 38 38 40 43 45 41
37 37 36 37 36 36 36 36 36 36 37 37 36 35 34 35 36 36 37 38 38 38 39 38 36 35 35 33 33 33 32 32 33 41 38 34 33 32 33 37 38 38 33
34 35 35 34 33 33 33 33 33 34 34 35 34 34 33 33 34 34 34 34 34 33 34 37 35 34 33 33 32 31 30 30 30 30 30 30 30 31 32 34 34 30 29
31 32 33 34 33 32 31 31 31 31 31 32 33 32 32 32 33 33 32 32 31 32 33 34 33 32 33 33 31 29 29 29 29 28 27 26 28 29 31 31 30 32 28
30 30 32 32 32 32 31 30 30 30 30 30 30 31 32 32 33 32 31 30 30 30 30 31 32 31 31 31 29 28 26 27 27 25 23 21 20 20 22 18 21 29 24
29 30 30 30 32 32 31 31 30 30 29 29 28 29 30 30 31 32 31 30 30 29 30 30 31 32 31 31 29 28 26 24 22 21 20 19 19 17 16 17 17 18 14
27 27 27 28 29 30 29 29 29 29 28 28 27 27 29 30 31 31 30 30 30 28 28 29 30 30 30 29 27 26 23 21 21 18 17 16 16 17 17 17 17 17 18
25 25 26 26 26 27 26 27 26 27 26 26 26 26 26 28 29 30 30 29 28 26 26 27 26 25 25 25 24 23 21 19 19 16 14 11 12 16 20 21 22 20 20
24 24 25 25 25 25 25 25 24 24 24 24 25 25 26 27 27 29 28 26 25 23 22 22 22 21 20 19 19 20 19 18 17 15 13 13 19 17 16 19 17 19 15
23 24 23 23 23 24 25 25 24 26 25 24 24 25 25 26 28 28 26 25 23 23 21 20 19 18 17 17 17 17 18 17 16 16 16 16 16 15 14 15 14 14 13
21 21 21 21 21 21 23 24 28 28 28 28 28 27 29 30 29 28 27 26 24 22 18 16 15 15 14 14 14 14 14 13 14 14 13 13 13 14 13 13 12 12 11
26 25 22 21 19 19 19 19 18 20 23 26 25 26 27 26 25 23 22 21 19 17 14 14 13 13 13 13 13 12 11 11 10 9 9 9 11 11 11 11 10 10 10
22 22 22 23 20 18 18 17 17 16 15 16 21 23 22 23 21 20 19 16 14 14 13 12 12 12 12 11 10 8 7 6 6 6 4 2 4 8 8 8 8 5 8
19 18 18 19 19 19 17 16 15 14 13 13 15 14 15 18 18 17 16 12 11 11 11 10 10 10 8 6 3 2 1 0 -1 -4 -3 -0 -6 3 3 4 5 3 3
16 18 17 17 18 17 16 13 12 12 12 11 10 10 12 10 8 7 7 8 8 8 8 8 7 7 7 4 0 -3 -3 -3 -2 -1 -8 -14 -15 -3 -2 -1 -1 -1 4
14 15 14 16 16 15 12 10 11 10 11 10 7 6 8 8 7 7 7 6 6 6 5 5 3 2 1 0 1 -4 -6 -6 -6 -7 -7 -6 -18 -8 -3 -3 -2 2 5
15 16 16 15 15 14 13 11 10 10 10 9 7 5 5 5 5 4 3 -2 -0 5 4 2 2 1 0 -2 -5 -12 -12 -17 -17 -14 -14 -12 -9 -9 -10 -9 -10 -11 -4
13 11 13 14 13 11 10 11 7 6 5 3 5 5 3 -2 -3 1 -2 -11 -4 -6 -5 -5 -7 -6 -7 -11 -11 -9 -10 -12 -14 -20 -20 -19 -12 -13 -15 -12 -9 -10 -11
11 7 11 8 6 6 0 -1 4 7 7 2 -3 -1 -1 -6 -11 -11 -16 -18 -16 -19 -19 -15 -10 -7 -10 -17 -17 -11 -9 -16 -14 -15 -20 -20 -14 -10 -14 -11 -11 -14 -14
3 2 3 2 -3 -2 -7 -6 -7 -4 -4 -9 -11 -11 -9 -11 -12 -17 -20 -19 -17 -18 -13 -15 -15 -14 -14 -16 -15 -13 -14 -13 -19 -19 -20 -19 -19 -20 -18 -14 -17 -13 -15
1 1 3 5 3 1 -1 -5 -8 -6 -8 -7 -6 -11 -11 -8 -8 -16 -17 -17 -15 -16 -15 -14 -13 -12 -13 -11 -11 -12 -15 -14 -19 -20 -24 -17 -19 -19 -20 -18 -16 -16 -13

GFSGL_sfc_dewp_096.txt.gz
Dewpoint
59 59 58 58 58 58 58 58 57 57 57 57 57 58 58 58 58 58 58 58 58 59 59 58 56 56 56 56 56 54 53 53 51 53 53 53 54 55 55 55 55 55 53
51 58 57 57 58 57 57 57 56 56 56 56 57 56 56 56 57 57 57 57 57 57 57 58 56 56 55 56 55 54 53 53 52 51 52 52 52 53 54 55 54 51 45
48 55 58 58 58 57 57 57 56 56 55 55 55 57 56 57 57 57 57 57 57 57 58 57 56 56 55 55 55 54 53 53 53 51 51 52 52 52 52 52 47 44 42
42 44 46 47 57 58 58 58 57 57 55 53 51 50 50 50 52 55 57 57 57 57 57 57 57 56 55 54 54 54 54 53 53 52 51 51 52 52 52 51 49 44 41
37 38 39 41 42 47 51 49 47 46 46 46 45 43 42 41 40 43 51 56 54 49 46 44 46 53 51 52 54 54 53 52 52 51 51 51 51 51 50 48 48 41 38
36 37 36 37 37 37 40 41 41 41 40 39 38 38 37 37 37 39 47 47 45 44 41 40 39 39 38 37 37 36 41 52 51 51 51 50 46 43 42 44 43 41 38
33 35 36 36 35 34 34 36 37 37 36 35 35 35 34 35 36 37 37 39 38 39 39 38 37 36 36 35 34 34 33 33 33 47 44 39 37 35 38 39 40 37 33
31 32 33 34 34 34 32 32 33 34 34 33 33 33 33 33 34 35 34 35 35 35 35 35 34 34 34 34 33 32 30 30 30 31 30 30 32 32 34 36 34 30 29
30 30 32 32 32 32 32 32 31 31 31 31 32 32 32 33 33 33 33 32 31 32 33 33 33 33 34 34 31 28 27 26 28 28 28 28 29 30 31 33 32 32 27
28 29 30 31 31 30 30 30 31 31 30 30 30 31 32 32 33 33 32 31 30 30 31 32 33 32 32 31 30 28 25 25 24 23 22 22 22 23 25 27 32 28 25
28 28 28 29 29 30 29 29 29 29 29 28 28 29 30 31 32 32 32 30 30 29 29 29 31 31 31 30 28 26 24 24 23 23 22 22 21 20 19 20 21 20 18
25 25 25 26 27 27 27 28 28 28 27 27 27 27 28 30 30 31 30 30 29 27 27 29 29 29 29 28 26 26 25 23 22 21 20 19 19 19 20 20 20 19 20
23 24 24 24 24 25 24 24 25 26 26 26 26 26 26 27 27 28 28 28 27 25 26 27 27 26 25 25 24 23 21 20 19 18 17 17 18 20 21 21 21 19 17
23 23 23 24 23 24 24 24 24 24 24 25 25 25 26 26 26 26 25 24 24 23 23 22 22 22 20 20 20 20 20 19 18 17 17 19 20 19 18 19 18 17 14
22 22 22 21 22 23 24 24 24 27 26 24 25 26 26 25 26 27 24 23 22 22 21 20 19 18 17 17 17 17 18 18 17 18 18 17 17 16 15 16 15 14 13
21 20 20 21 21 21 21 20 27 28 28 29 29 28 28 28 28 28 26 25 24 22 18 16 15 15 15 15 14 14 14 14 15 15 15 15 15 14 14 14 13 13 11
23 24 21 20 19 19 19 18 18 21 24 27 27 26 26 24 23 23 22 21 19 17 14 14 13 13 14 13 13 11 10 11 11 11 11 12 13 13 13 11 11 11 9
16 18 18 17 16 16 15 16 16 15 15 15 20 22 22 21 20 19 18 16 14 14 13 12 12 12 12 10 9 8 7 7 7 7 7 8 10 10 9 9 8 8 6
13 11 10 13 13 13 14 14 15 15 14 13 14 14 14 17 17 17 16 13 11 11 11 10 10 9 7 6 5 4 3 2 2 2 3 4 4 7 6 7 6 5 5
11 14 13 13 12 12 12 13 12 12 12 11 10 10 12 10 9 8 9 9 9 9 9 8 8 7 5 3 1 1 1 1 2 2 -2 -2 0 5 4 5 5 5 4
11 12 12 13 12 11 10 10 11 11 10 9 8 8 9 8 7 7 7 6 6 6 6 5 5 4 3 2 1 -1 -3 -3 -3 -2 -1 -2 -6 0 1 2 2 4 3
13 14 14 12 13 10 11 11 10 10 10 8 7 5 6 5 5 5 4 1 2 5 5 4 3 3 2 0 -3 -6 -7 -9 -8 -7 -6 -5 -3 -3 -1 -1 -2 -2 0
11 9 11 11 11 8 7 8 5 5 5 4 7 6 5 3 3 3 1 -2 0 -2 -1 -2 -2 -3 -5 -8 -7 -6 -6 -7 -9 -11 -10 -9 -5 -5 -5 -3 -3 -3 -3
8 4 9 7 5 5 -3 -3 2 5 3 -2 -5 -3 -3 -4 -4 -8 -10 -11 -9 -12 -12 -9 -5 -5 -9 -13 -12 -7 -7 -11 -10 -11 -13 -10 -7 -7 -6 -4 -4 -7 -6
1 -3 -2 -1 -5 -6 -8 3 -2 -2 -1 -2 -7 -8 -6 -11 -12 -17 -19 -19 -15 -17 -12 -14 -12 -10 -11 -13 -12 -11 -12 -13 -15 -16 -13 -12 -11 -12 -10 -7 -8 -6 -8
-0 -1 -4 -1 1 1 -3 -5 -6 -6 -5 -4 -6 -4 -1 -1 -2 -11 -17 -17 -15 -14 -14 -15 -11 -12 -11 -10 -10 -10 -15 -15 -17 -20 -15 -11 -12 -11 -11 -10 -10 -8 -8

GFSGL_sfc_dewp_099.txt.gz
Dewpoint
46 58 60 60 59 59 59 60 60 59 59 59 59 59 59 60 60 60 60 60 59 59 59 59 58 58 57 57 57 56 54 54 51 53 55 56 56 56 55 56 56 56 52
44 50 58 59 59 59 59 59 59 58 58 58 58 58 58 59 59 59 58 59 59 58 58 58 58 57 57 57 56 55 54 54 53 51 53 54 55 56 56 57 56 50 46
42 43 45 46 56 58 59 57 58 57 57 57 58 57 57 57 57 57 57 58 58 58 58 58 57 57 56 56 55 55 54 54 54 53 52 54 55 56 56 52 47 45 42
39 40 40 42 43 49 57 58 58 58 58 58 57 55 55 54 55 57 57 57 57 58 57 57 58 57 56 55 55 54 54 53 53 55 53 52 54 54 54 50 47 44 41
36 37 38 38 38 39 44 44 55 53 50 49 47 45 44 43 41 46 52 56 57 52 48 45 43 51 51 53 55 55 54 53 53 53 52 52 52 52 52 52 47 41 40
33 34 36 37 37 36 36 38 40 42 41 40 39 39 39 38 37 39 48 49 46 44 42 41 39 40 39 39 39 41 50 53 53 52 52 51 51 49 47 49 41 39 38
31 32 33 35 35 36 35 34 34 35 36 35 35 35 35 36 36 37 38 40 39 39 38 38 38 37 37 36 35 34 34 34 38 51 51 47 43 42 42 43 43 41 35
29 30 31 32 33 35 34 33 32 32 33 33 33 34 34 34 35 35 35 36 35 34 34 35 35 35 35 35 34 33 32 32 32 33 33 32 33 35 37 38 35 30 30
28 28 30 30 30 31 32 32 32 32 31 31 32 32 33 33 34 34 34 33 32 32 33 33 33 33 34 34 31 30 28 27 31 32 32 32 32 33 35 35 33 32 28
28 29 30 30 29 28 29 30 32 31 30 30 30 31 32 32 34 33 32 32 31 30 31 32 33 32 32 32 30 29 25 25 25 25 25 25 26 27 28 30 34 31 27
28 28 28 29 29 29 29 30 29 29 29 28 28 28 29 30 32 32 32 30 30 29 28 29 30 30 30 30 28 26 25 26 24 24 23 23 23 22 22 23 25 27 25
26 27 27 27 28 30 28 29 30 30 28 28 27 26 26 28 29 30 29 29 28 27 27 28 29 29 28 27 26 26 25 24 23 22 21 20 21 21 21 23 23 24 25
26 25 27 27 28 29 29 28 28 29 28 28 28 28 27 28 27 28 27 26 26 25 25 26 26 25 25 25 25 24 23 23 22 20 19 20 22 23 23 22 23 20 19
23 24 25 26 26 27 26 27 27 28 28 28 28 27 27 27 27 27 27 27 26 25 25 25 24 23 22 22 23 23 23 22 21 21 21 22 23 22 22 22 19 17 14
21 23 23 23 24 23 26 27 27 30 28 27 27 28 27 26 27 28 27 26 25 24 25 24 24 22 21 21 20 21 21 21 21 21 21 21 21 19 18 19 18 16 15
22 19 21 22 22 21 21 23 25 28 28 27 26 27 28 26 25 25 25 25 24 23 23 22 21 21 19 18 18 17 18 17 18 18 19 18 17 17 17 17 16 14 13
22 19 18 20 20 21 21 21 21 23 22 24 25 24 23 23 22 22 21 20 19 19 19 19 19 18 17 16 15 15 14 15 15 16 16 16 16 16 15 14 14 13 11
23 19 21 20 21 21 21 21 21 21 19 19 19 21 21 21 20 18 17 16 16 16 16 16 16 16 13 11 10 10 11 12 12 12 14 15 15 14 13 11 10 11 7
23 23 22 21 20 19 20 20 19 18 17 17 17 16 15 17 17 17 17 16 15 14 12 12 13 12 10 9 11 10 11 10 11 12 12 12 14 12 11 9 8 7 6
21 19 19 21 19 17 17 17 17 16 15 14 14 14 14 14 15 15 15 15 14 12 12 10 10 10 10 9 10 10 10 10 10 9 10 12 13 11 10 9 10 9 6
20 20 17 19 16 15 15 15 16 15 13 12 12 13 10 12 12 12 11 13 12 11 12 10 11 10 10 9 7 8 6 6 7 8 8 7 10 9 8 8 8 6 5
18 17 17 17 15 15 14 14 15 14 12 11 11 10 9 11 10 10 9 10 11 10 9 10 9 8 7 6 5 5 3 3 5 6 6 6 7 7 7 7 6 6 5
15 17 16 15 16 14 15 14 15 15 14 13 12 10 10 10 9 8 8 9 7 7 8 8 7 5 4 4 5 4 2 1 1 3 5 6 5 6 7 6 4 5 5
14 15 13 14 14 14 15 16 16 12 13 14 14 13 11 10 10 8 8 8 6 6 6 5 4 3 1 3 3 2 -0 0 -0 -1 -3 4 4 3 5 3 3 1 3
13 13 13 12 12 12 13 13 14 15 15 14 14 13 11 10 9 10 8 7 6 7 4 4 4 2 0 -1 1 1 -0 -4 -3 -4 -0 -1 0 -1 1 3 2 1 -1
10 10 11 11 11 11 11 11 11 12 12 13 13 13 12 11 11 10 7 5 6 5 3 6 4 -0 1 1 0 -2 -4 -6 -4 -8 -1 -1 0 1 2 0 -8 2 -4

GFSGL_sfc_dewp_102.txt.gz
Dewpoint
41 45 48 61 61 62 62 62 61 62 62 61 61 61 60 61 62 61 60 60 60 60 61 60 60 60 59 59 60 60 59 58 53 54 55 57 57 57 57 58 56 57 52
39 42 46 48 55 60 60 60 61 61 61 61 61 60 60 60 60 61 60 60 60 59 59 59 59 59 59 59 59 58 57 57 54 52 55 56 56 57 57 57 55 51 46
37 40 41 42 45 47 58 60 60 60 60 59 59 59 59 60 59 60 60 60 60 60 59 59 59 59 58 58 58 57 56 55 54 53 53 55 56 57 56 54 49 46 42
35 37 38 41 41 42 46 53 59 59 58 58 59 58 58 58 59 58 58 58 58 59 60 59 58 58 58 57 57 56 56 55 54 53 53 53 55 57 52 47 45 46 43
34 34 36 38 39 38 39 41 45 52 57 56 53 51 51 50 44 50 56 58 58 58 52 49 45 43 45 53 56 56 55 54 53 53 52 53 54 55 52 50 46 42 41
31 32 34 35 37 37 37 36 37 37 40 44 44 44 41 39 37 39 46 53 50 49 46 44 41 41 40 40 42 45 52 53 53 52 52 52 52 53 54 50 42 40 36
29 30 31 32 34 35 36 35 34 34 34 36 38 37 37 37 37 38 40 44 42 40 40 41 39 38 39 38 36 36 35 36 42 53 52 52 49 49 49 44 44 43 38
29 29 30 31 31 32 34 34 33 33 32 32 33 35 35 34 35 36 36 37 37 36 36 37 37 37 36 37 36 34 33 33 33 35 38 33 35 38 44 44 40 32 32
30 30 31 30 30 30 30 31 32 32 31 30 32 33 34 34 34 34 34 33 32 32 33 34 34 34 34 35 33 32 30 28 32 33 33 33 34 34 37 37 34 34 30
29 30 31 32 31 30 31 30 31 30 29 29 28 30 32 32 34 33 33 32 31 30 31 31 32 32 32 32 30 29 26 27 27 27 27 27 27 28 30 31 36 34 29
30 30 30 31 32 32 32 32 32 31 29 28 27 27 28 30 31 32 31 30 29 28 29 29 30 30 30 29 28 27 25 26 25 25 24 24 24 24 24 26 27 30 27
30 30 30 31 32 33 32 32 32 32 31 30 28 27 27 28 28 29 29 29 28 27 27 28 29 28 28 28 27 26 26 25 24 23 22 21 21 21 23 24 25 26 28
30 29 30 31 31 32 31 31 32 32 32 31 30 29 28 30 29 28 28 27 26 24 25 26 26 26 25 25 25 25 24 23 22 21 21 22 23 25 25 24 23 22 23
25 26 27 28 29 29 28 28 28 30 30 29 30 29 29 29 29 30 30 29 28 27 27 27 26 25 25 25 25 26 26 25 23 22 22 24 25 25 25 25 24 22 16
21 24 25 24 25 25 26 26 27 28 27 28 28 28 27 26 28 28 29 29 28 28 29 29 28 28 26 25 26 27 27 26 26 26 25 23 22 21 21 21 20 20 19
19 19 22 23 24 23 23 23 24 24 25 25 25 26 26 24 23 24 24 24 26 28 28 27 26 26 25 25 24 24 24 24 24 24 24 23 22 21 20 20 19 17 15
22 20 20 21 21 22 23 23 23 24 22 21 22 23 22 21 21 21 20 20 20 23 24 24 24 24 22 20 20 19 19 19 19 20 20 20 20 19 19 18 17 15 12
26 23 25 24 25 25 25 25 24 23 23 22 19 19 19 19 19 18 17 18 20 19 20 20 20 19 16 14 13 14 16 17 18 17 19 19 19 18 17 15 14 14 9
25 25 26 26 25 23 24 23 23 22 21 21 21 19 19 17 18 18 18 20 18 16 14 14 16 14 14 13 17 17 17 18 18 18 17 17 19 15 14 12 11 10 8
23 21 21 23 22 21 21 20 19 19 18 18 17 17 17 17 20 19 20 20 18 15 14 12 12 13 13 14 16 17 17 16 16 15 17 18 18 16 14 13 14 12 8
22 21 19 20 19 19 19 19 17 17 16 15 15 15 13 14 16 16 15 17 16 14 16 13 14 15 15 14 12 13 12 13 13 13 13 14 15 14 12 13 12 9 7
17 17 16 17 17 18 17 15 17 16 14 14 14 14 11 16 14 13 13 15 15 13 13 14 13 12 11 11 11 12 11 11 12 12 12 11 11 12 12 11 11 11 8
14 16 15 13 15 15 17 15 16 16 15 15 14 13 13 14 14 12 12 13 12 12 12 12 13 10 10 10 11 10 9 8 8 11 11 11 10 11 12 10 8 9 9
14 15 12 13 15 14 16 17 17 13 13 14 16 15 14 14 14 12 12 12 12 12 11 10 8 6 6 9 10 7 5 6 6 5 2 10 8 7 9 7 7 5 7
14 14 14 14 14 14 15 14 16 16 16 16 16 16 13 13 13 13 13 12 9 11 7 7 8 4 4 3 5 4 1 -1 2 1 6 5 4 2 6 7 6 5 1
11 11 12 12 12 12 12 12 13 13 14 14 14 14 14 13 12 14 13 10 9 9 3 9 5 -4 -0 3 2 1 -2 -2 -1 -2 5 5 6 6 6 4 -7 6 -1

GFSGL_sfc_dewp_105.txt.gz
Dewpoint
37 39 41 43 47 52 60 61 61 62 62 61 62 61 61 61 59 60 61 61 61 62 61 61 60 61 61 61 60 60 58 57 54 56 58 59 59 58 57 58 58 57 52
36 37 39 41 43 46 50 57 61 62 62 61 60 60 60 60 61 58 57 59 60 60 60 61 59 59 60 60 60 58 58 58 57 54 57 57 57 57 57 57 58 57 50
35 35 37 38 41 41 43 47 60 61 61 61 60 60 60 61 61 61 58 57 60 60 59 59 59 59 59 59 59 58 59 58 58 55 54 56 56 57 57 55 48 45 44
34 34 34 36 38 40 40 43 43 50 60 60 60 60 59 60 60 61 60 60 60 60 61 60 60 59 58 59 58 58 58 57 56 55 54 54 55 56 55 46 45 45 43
32 32 33 34 36 38 39 39 39 39 41 50 56 54 56 54 54 59 59 59 59 59 56 53 49 44 42 43 54 57 57 56 55 54 53 53 54 52 49 48 44 41 41
31 31 31 33 33 34 35 37 36 36 35 37 40 43 42 40 39 41 54 55 53 52 48 46 44 42 42 38 40 42 50 55 54 53 52 52 53 52 50 46 41 38 36
32 32 32 32 32 32 33 34 34 35 34 33 34 36 36 37 38 41 41 44 41 41 41 41 41 40 40 40 37 36 35 36 42 53 52 52 52 53 50 44 43 42 38
31 32 32 32 32 32 31 31 32 32 32 32 31 33 34 34 36 36 36 37 36 35 35 36 37 38 37 39 36 34 33 33 33 36 40 34 37 44 48 46 43 33 34
30 31 32 33 32 32 31 30 30 28 29 29 30 30 32 32 34 35 34 33 32 32 32 33 34 34 34 36 34 32 31 31 32 34 34 34 34 36 39 40 36 35 32
30 31 32 33 33 32 32 32 32 31 29 28 27 28 30 30 33 33 32 31 30 30 30 31 32 32 32 32 31 30 27 27 29 29 28 28 30 31 33 35 39 38 30
31 31 31 32 33 33 34 33 33 32 32 30 28 27 27 28 29 31 31 29 29 28 28 28 30 30 30 30 29 28 26 27 26 26 25 25 25 26 26 29 31 34 30
32 31 31 31 32 32 32 33 33 32 32 32 31 30 30 28 29 29 29 28 28 26 26 27 28 28 28 28 27 28 27 26 25 23 23 22 22 22 23 25 27 28 30
32 32 32 31 30 31 30 29 29 32 30 30 29 28 27 30 31 30 29 28 27 25 26 27 27 27 26 26 27 26 25 25 24 22 22 22 23 25 25 24 25 26 26
25 26 27 29 28 27 26 26 25 26 28 27 26 27 27 27 27 30 31 30 30 30 30 30 29 28 28 27 27 27 26 25 24 23 23 24 26 25 24 25 23 23 21
20 21 23 25 26 26 25 24 24 26 25 25 26 25 24 23 26 27 28 28 29 30 31 31 30 29 28 28 28 28 28 28 27 26 25 24 24 23 23 25 23 22 20
20 20 22 22 22 21 23 25 23 23 22 23 23 23 25 22 22 23 23 25 27 29 29 28 28 28 26 26 25 26 27 26 27 27 27 25 23 23 23 24 23 21 18
21 21 21 22 22 22 23 22 22 25 22 21 20 20 21 21 21 20 20 21 22 25 25 25 25 25 24 23 23 22 22 23 23 23 23 23 21 21 21 19 18 15 14
26 24 25 25 25 25 25 25 25 24 23 24 22 20 19 19 20 21 21 21 21 21 21 20 20 18 16 15 16 17 18 19 20 20 21 22 21 20 19 17 16 15 10
25 25 28 27 26 25 25 24 23 22 22 21 21 20 21 19 19 20 20 21 19 16 15 15 16 15 15 16 19 19 20 20 20 21 20 19 21 17 16 14 13 13 11
25 21 21 23 22 22 21 20 19 20 19 19 17 15 16 18 20 20 21 21 19 17 16 14 14 15 16 16 19 19 19 18 18 18 20 21 20 18 16 15 15 13 10
21 20 18 19 19 19 19 18 17 17 17 16 17 15 14 16 16 16 16 17 17 16 17 15 16 16 16 16 14 16 15 16 15 15 16 16 18 16 15 15 13 10 8
16 16 16 16 16 17 16 15 16 16 15 14 15 16 14 17 15 14 14 16 16 14 14 16 15 13 13 13 13 14 13 14 14 14 14 13 13 14 14 13 13 11 8
15 16 14 12 15 14 17 16 17 17 16 17 16 15 15 16 15 13 15 15 14 15 13 14 14 12 12 12 13 12 11 10 11 13 13 12 12 12 13 12 10 10 10
15 16 13 14 15 14 16 17 17 15 16 17 18 17 16 15 16 16 14 13 13 13 14 12 9 8 8 11 11 9 7 9 8 8 11 11 10 10 11 9 8 8 7
15 15 15 14 15 15 15 14 15 17 16 17 19 17 16 16 15 15 15 14 10 12 9 8 10 5 5 4 5 3 1 0 4 5 8 8 9 7 8 8 8 6 5
14 12 13 14 14 14 14 14 13 14 14 15 14 15 15 14 14 15 16 11 10 10 5 10 8 3 0 5 4 1 -0 -0 0 1 7 6 6 7 6 5 1 6 4

GFSGL_sfc_dewp_108.txt.gz
Dewpoint
36 36 37 38 39 42 43 45 47 51 59 61 63 63 62 62 62 62 61 61 61 60 61 60 60 61 60 60 59 58 57 57 55 55 57 58 59 59 58 58 56 54 52
34 35 35 36 37 39 40 42 46 46 52 60 61 62 62 61 60 61 60 59 59 57 58 59 59 60 60 60 59 59 58 58 56 54 57 57 57 58 58 57 58 57 53
33 34 34 34 35 37 38 39 42 43 46 54 59 61 61 60 59 59 59 59 57 57 58 58 59 59 58 59 59 59 58 58 57 56 55 57 57 58 57 57 49 46 45
32 32 32 33 34 35 36 37 39 40 41 42 52 59 60 60 59 58 57 56 55 56 59 59 59 58 57 59 58 58 58 58 58 57 55 55 55 57 56 48 44 45 43
32 32 32 32 33 33 34 34 36 37 38 38 40 42 45 47 47 54 59 57 54 55 56 52 48 45 41 43 53 57 57 57 57 56 55 54 54 54 48 49 43 40 40
31 32 32 32 32 32 32 32 32 33 35 35 35 36 38 39 37 42 54 58 56 54 48 47 43 43 40 38 38 39 42 54 55 55 54 53 53 54 49 46 40 38 36
32 31 32 33 32 32 32 30 29 30 31 32 33 33 33 34 36 39 42 44 41 40 42 43 41 40 40 41 37 36 35 35 36 52 54 53 53 53 48 44 43 41 37
31 31 32 32 32 33 32 31 30 28 28 28 29 31 32 32 34 35 36 36 35 34 34 35 36 36 36 38 36 33 32 32 33 36 39 36 37 52 48 46 44 35 35
30 30 32 32 32 32 32 32 32 29 28 27 27 27 28 30 33 33 33 32 31 31 31 32 32 33 34 37 34 32 31 31 33 34 34 34 35 39 42 39 36 36 32
30 30 31 32 31 31 32 32 32 32 31 30 28 28 29 28 31 32 31 30 28 28 29 29 31 31 32 32 31 30 27 26 28 28 29 30 32 33 34 37 40 39 32
30 30 29 30 30 30 30 32 32 32 31 30 29 30 29 29 29 30 30 28 27 27 27 27 29 30 30 30 29 28 27 27 26 26 26 26 27 27 28 32 32 37 34
32 30 29 28 28 28 27 27 28 29 28 29 27 27 28 29 31 31 30 29 28 25 25 27 28 29 29 28 28 28 27 26 25 24 23 23 23 23 25 27 29 30 31
30 30 30 28 27 26 25 25 25 25 26 24 24 24 25 26 28 30 31 31 30 28 28 29 29 28 27 27 28 26 25 25 23 22 22 23 24 25 25 26 27 28 28
22 24 26 27 28 25 24 23 22 22 22 23 22 21 22 23 25 27 28 29 30 30 30 30 29 28 28 28 28 27 26 25 23 23 22 24 25 25 25 26 24 25 24
22 22 23 23 24 25 24 23 22 22 21 21 21 22 20 20 22 24 26 28 30 30 30 29 28 27 25 26 26 26 27 27 25 25 24 23 24 24 24 25 24 23 22
21 22 23 23 23 22 22 24 24 23 22 21 21 21 22 22 23 23 23 24 27 27 26 25 24 24 24 24 24 24 25 25 26 27 26 26 25 25 24 25 24 22 21
23 24 23 23 23 23 23 23 22 25 24 23 22 22 21 21 22 23 22 21 21 22 21 20 20 21 22 23 23 23 23 25 26 25 25 24 25 24 23 23 23 22 21
23 24 26 25 25 25 25 24 24 22 21 21 19 19 21 22 21 22 22 20 18 18 18 18 18 18 18 18 20 22 23 23 23 24 24 23 23 22 21 19 19 18 14
25 23 25 26 25 23 24 23 22 21 21 20 16 14 17 21 19 19 20 20 18 17 16 15 16 16 17 18 18 18 17 19 20 21 21 21 21 18 16 16 16 16 15
23 21 20 22 22 21 20 20 19 19 19 20 16 14 15 18 17 17 17 17 18 17 18 16 16 17 17 17 17 18 18 17 18 19 19 20 19 19 18 18 18 16 13
20 19 17 19 19 18 18 18 18 18 17 16 19 14 12 16 16 16 14 14 14 15 16 17 16 15 16 15 16 16 16 16 16 16 17 17 17 17 17 16 15 14 13
17 17 16 16 16 16 17 16 18 17 16 17 17 17 13 16 14 14 13 13 14 13 12 15 14 13 11 13 14 12 12 13 14 14 12 14 15 16 16 15 14 12 13
16 17 15 14 15 14 17 15 17 17 17 17 18 17 16 15 14 12 12 11 13 11 11 9 9 10 10 10 9 10 9 7 7 8 11 10 13 12 12 12 13 12 9
16 16 14 14 15 14 15 15 15 14 15 16 17 18 16 16 15 15 12 7 7 11 5 7 5 1 3 7 7 3 2 3 7 7 7 10 8 12 11 10 9 7 8
17 16 15 15 15 15 14 13 13 13 13 14 14 14 15 16 15 15 16 11 4 5 9 6 3 8 -2 -4 -3 -4 -7 -4 -6 -3 6 8 4 6 5 8 7 7 4
16 16 15 16 15 14 14 13 13 12 12 12 11 13 14 12 12 14 14 15 8 4 2 6 3 -2 -2 4 -3 -4 -7 -7 -7 -4 -0 3 3 2 3 2 1 6 3

GFSGL_sfc_dewp_111.txt.gz
Dewpoint
33 34 35 35 36 37 38 39 40 42 45 48 50 59 59 59 59 59 60 59 59 58 59 58 56 59 60 59 59 59 56 55 54 53 55 56 59 60 59 59 59 59 56
33 33 34 34 35 35 36 37 39 39 42 44 49 56 59 58 58 60 59 59 58 59 59 58 57 59 59 59 59 58 58 57 56 53 55 56 57 58 59 58 58 57 56
33 33 33 33 33 33 34 34 36 37 38 40 43 45 52 59 59 61 60 60 60 60 59 59 58 58 59 59 58 58 58 58 57 56 54 57 57 58 58 57 53 49 47
32 32 32 33 33 32 32 32 33 34 35 36 38 40 42 44 46 50 60 59 57 57 57 56 55 57 57 59 58 58 58 57 57 56 56 56 57 57 57 50 46 46 44
31 32 32 33 33 32 31 30 30 31 31 33 35 36 36 38 36 39 46 57 55 55 53 51 50 48 47 51 57 57 57 57 56 56 55 55 55 55 54 52 46 41 40
31 32 33 32 32 32 31 30 29 29 29 30 31 32 33 34 36 36 40 56 55 52 47 45 44 41 40 41 40 38 43 56 56 56 55 54 54 54 51 49 41 40 38
31 32 32 32 33 32 32 30 29 29 28 28 28 30 30 32 35 34 35 40 43 43 42 42 40 41 42 39 37 36 34 35 36 44 53 54 53 54 51 47 44 45 38
30 30 32 30 30 32 32 32 32 30 29 28 28 28 29 31 34 34 33 32 32 32 33 34 35 36 38 39 36 34 32 32 33 34 35 34 37 51 51 49 46 37 35
29 29 30 30 29 29 29 31 31 29 29 28 29 29 28 29 32 32 32 30 29 29 30 32 32 33 36 37 34 32 31 30 32 32 33 33 34 39 45 41 37 36 32
29 27 28 28 27 27 27 28 30 30 29 28 27 27 29 29 32 30 29 29 27 27 29 29 31 32 32 32 31 31 27 26 28 29 29 29 29 31 34 36 39 39 32
31 29 27 27 25 25 25 26 26 26 25 26 25 26 26 28 30 32 30 27 26 26 26 27 29 31 31 30 29 27 27 27 27 27 26 26 26 27 28 31 33 38 36
30 30 27 26 26 25 23 23 24 23 23 21 22 23 24 26 29 30 32 31 30 27 27 28 29 30 29 29 28 28 27 26 26 25 24 23 23 24 27 29 30 32 32
25 26 27 26 25 25 23 21 20 21 21 21 20 20 21 23 25 27 30 31 31 29 29 30 30 30 29 27 28 27 25 25 24 23 22 23 25 26 27 28 29 30 29
22 23 24 24 25 24 23 21 20 19 19 19 19 20 21 23 24 25 27 28 28 29 29 29 28 27 27 27 27 27 26 25 24 23 23 24 25 25 24 25 25 27 26
23 22 22 23 23 23 24 23 23 22 21 21 20 20 21 22 24 23 24 25 26 25 25 25 24 24 24 24 25 25 26 27 25 25 24 24 24 24 23 25 25 24 23
22 23 22 22 23 23 22 22 26 23 21 20 21 23 21 22 24 22 22 22 22 22 20 19 20 21 21 22 22 23 24 24 25 25 24 24 24 23 23 24 24 23 21
21 21 24 23 23 22 23 22 19 21 21 17 19 21 25 21 21 23 21 20 19 18 17 18 18 18 18 19 20 22 22 23 25 24 24 24 23 23 22 22 22 23 22
17 18 20 20 19 19 18 17 16 14 13 13 15 19 21 20 19 20 20 19 17 18 16 16 16 18 18 17 17 18 19 21 22 23 22 22 22 23 21 21 21 20 20
18 16 15 17 16 16 18 16 16 14 10 6 9 13 15 19 17 16 17 15 14 15 17 16 16 16 16 16 17 18 17 18 19 19 19 19 18 19 18 19 20 20 19
16 16 16 17 17 17 18 18 17 16 14 9 9 8 13 14 13 11 11 11 12 12 13 13 12 12 14 15 15 15 15 16 16 17 16 16 14 16 16 15 16 15 14
16 17 13 17 15 16 16 16 18 15 14 15 9 6 8 12 9 10 10 9 9 8 9 12 12 10 11 11 11 12 11 11 12 13 14 15 15 14 15 15 14 14 12
16 15 15 15 14 14 14 15 15 15 15 15 16 12 8 5 6 6 6 -0 -1 5 7 7 7 7 7 7 7 6 6 5 6 7 9 11 12 13 13 11 11 12 13
15 12 13 14 13 11 10 12 10 8 10 10 12 14 15 11 6 6 1 -6 0 -2 -1 -2 -5 -1 3 3 -1 -0 -2 0 3 6 6 10 9 9 11 11 10 8 7
13 9 13 10 6 8 0 -2 0 6 7 3 1 3 6 12 9 7 4 -4 -7 -7 -9 -6 -6 -6 -6 -9 -10 -6 -3 -8 -4 2 2 5 8 10 8 6 7 4 3
7 4 4 6 1 0 -1 -0 -3 -4 -3 -4 -4 -4 2 3 2 0 11 9 -1 -8 -6 -6 -6 -8 -10 -12 -12 -11 -13 -10 -8 -4 -2 1 3 4 3 5 3 4 2
10 9 7 7 7 11 9 10 11 9 6 -4 -6 -4 -4 -3 -2 -4 -4 1 3 -2 -6 -1 -5 -7 -7 -9 -8 -8 -11 -11 -8 -4 -3 -1 -5 -4 -5 -1 1 1 2

GFSGL_sfc_dewp_114.txt.gz
Dewpoint
32 33 33 33 34 35 35 35 36 37 38 39 40 43 47 49 56 55 54 57 59 59 58 57 59 59 59 59 59 58 57 55 52 53 54 55 59 58 58 59 59 59 56
32 32 32 32 32 32 33 33 34 34 36 37 38 40 43 44 48 58 56 57 58 58 58 57 56 58 58 59 59 58 57 57 55 52 54 55 57 58 59 58 59 59 59
32 31 32 32 31 31 31 31 31 32 32 33 36 37 38 39 40 46 57 57 58 57 58 57 55 55 55 56 57 57 58 57 57 55 54 56 56 57 58 58 57 56 53
31 32 32 31 32 31 31 30 30 30 30 30 32 34 35 36 37 38 43 52 57 58 58 58 58 55 55 57 57 55 56 57 57 56 54 56 56 57 57 52 48 47 46
30 31 31 32 32 32 32 32 30 30 29 30 30 31 32 34 35 36 42 48 51 56 57 55 56 56 52 53 56 57 57 57 56 56 55 55 55 55 55 53 51 42 41
28 30 30 30 30 32 32 31 30 29 29 29 29 30 30 31 35 35 37 37 36 42 49 46 44 43 41 41 41 43 53 56 55 55 55 54 55 55 55 51 42 41 42
29 29 29 29 29 30 31 30 30 29 27 28 28 30 30 30 33 34 34 33 32 32 33 37 41 41 41 39 37 37 36 36 40 53 54 54 53 54 53 49 46 44 43
27 27 28 27 28 28 28 29 28 29 28 27 27 28 30 31 32 31 32 33 31 30 31 32 33 34 36 39 37 34 33 33 33 35 36 34 34 38 49 52 49 38 35
27 26 26 25 24 25 25 26 27 26 26 26 27 27 28 30 33 32 29 29 29 30 30 31 31 31 34 35 35 33 31 30 33 33 33 32 33 35 40 44 39 39 32
28 27 26 26 24 22 21 23 24 24 23 23 24 25 27 28 32 33 30 28 27 28 28 29 31 30 31 31 30 31 28 27 29 29 28 29 30 31 33 35 42 42 32
30 27 26 25 24 23 22 22 22 22 22 21 22 23 24 26 28 32 32 28 28 27 27 27 29 30 30 30 30 28 27 27 27 27 26 26 27 28 29 31 33 37 34
26 27 26 25 25 24 22 22 21 21 20 20 21 22 24 25 26 28 29 29 29 27 26 28 28 30 30 29 28 28 28 27 26 25 24 24 25 25 28 29 30 32 33
24 24 25 25 24 24 22 22 21 21 21 20 20 21 22 24 24 25 27 26 27 26 27 28 28 28 28 27 29 28 26 25 24 23 23 23 25 26 27 29 30 30 29
21 22 23 23 24 24 23 22 19 18 20 20 20 20 20 23 22 23 23 24 23 23 23 23 24 25 25 26 26 27 27 26 25 24 24 25 25 25 25 27 26 27 26
23 22 22 23 23 23 24 25 20 19 21 21 22 22 20 20 23 22 21 21 21 21 20 20 20 20 20 22 23 24 25 25 24 25 25 24 24 24 24 25 25 25 24
20 22 22 21 21 21 20 20 24 18 18 21 22 22 20 19 20 21 21 20 20 20 17 17 17 17 17 18 19 21 22 23 24 24 24 23 23 23 23 24 25 24 23
18 20 19 18 18 19 18 18 15 15 16 16 18 19 18 18 18 19 19 18 19 17 15 15 15 16 16 17 18 19 19 21 23 22 23 23 23 22 22 22 23 23 22
15 16 16 16 15 15 13 13 10 10 9 10 14 17 16 15 15 16 16 14 11 13 13 12 12 13 14 15 16 16 17 18 19 19 20 20 21 21 21 21 21 21 20
13 11 10 11 14 13 15 14 12 8 4 2 4 10 10 14 13 13 13 8 7 9 11 10 10 10 11 12 12 13 14 15 16 16 17 17 17 18 19 20 20 19 20
15 14 14 14 15 14 15 15 16 13 13 13 9 7 10 9 4 3 5 -1 4 6 8 9 8 8 8 9 9 9 9 9 10 12 14 15 15 16 15 17 19 17 17
15 15 11 14 14 14 13 13 14 13 12 13 14 13 8 9 3 2 5 2 2 4 2 5 5 3 5 4 6 4 4 3 5 6 9 12 12 13 14 14 15 14 13
14 15 15 14 14 12 12 13 11 10 11 10 9 11 9 10 7 3 1 -5 -6 0 2 -2 -1 1 4 -1 -3 -8 -4 -2 0 3 5 8 10 9 10 12 12 12 13
13 10 12 13 11 9 6 8 5 1 2 -1 3 7 7 3 5 5 3 -8 -4 -6 -6 -7 -10 -7 -6 -12 -11 -10 -9 -8 -6 1 2 5 9 7 7 7 7 7 7
11 7 11 10 8 8 4 4 6 7 6 1 -9 -6 -5 -5 -8 -7 -4 -7 -9 -13 -15 -13 -9 -8 -8 -14 -18 -11 -7 -11 -8 0 0 1 7 7 5 6 4 1 3
5 3 3 3 -2 -2 -2 2 4 3 3 4 5 2 -1 -6 -5 -9 -10 -5 -5 -12 -9 -11 -11 -10 -11 -14 -14 -13 -16 -11 -10 -5 0 0 1 0 1 3 1 4 2
6 4 2 1 0 -1 -3 -4 -5 -3 -0 2 2 4 4 3 3 -4 -6 -8 -6 -7 -8 -9 -9 -7 -10 -10 -9 -7 -13 -13 -11 -10 -10 -3 -3 -3 -2 -7 -5 -2 -0

GFSGL_sfc_dewp_117.txt.gz
Dewpoint
32 32 33 34 33 32 32 32 32 33 34 34 35 37 38 38 41 42 44 54 54 55 58 58 57 58 58 59 58 58 57 56 53 53 55 55 58 58 58 58 58 58 55
32 32 33 33 32 32 31 31 32 31 32 32 33 34 35 36 38 38 40 43 54 55 57 57 56 56 56 57 58 57 57 57 56 54 54 55 57 58 57 58 58 59 58
31 31 32 32 31 31 30 30 31 31 31 31 32 32 33 35 35 36 37 40 45 56 56 57 56 57 57 58 58 58 57 57 56 55 54 56 56 57 58 58 57 58 57
31 31 30 31 31 31 31 30 29 29 29 29 30 31 32 33 33 34 35 41 46 51 56 58 58 57 56 57 57 57 57 56 56 56 55 55 55 56 57 54 50 49 49
29 30 30 30 29 30 29 29 28 28 28 28 29 30 31 31 31 33 34 36 38 39 40 45 51 50 51 53 57 56 55 55 55 55 55 55 55 54 54 54 53 45 43
29 29 28 28 27 28 29 27 28 27 26 27 27 28 29 31 33 32 33 33 33 34 35 35 38 38 43 44 45 46 51 53 52 53 53 54 54 55 55 52 44 44 45
26 26 25 25 25 25 25 26 25 26 26 25 25 26 28 31 33 33 31 31 31 31 32 33 33 34 35 40 38 37 37 38 43 54 54 54 54 55 54 50 47 46 46
25 26 25 23 22 22 22 22 23 23 23 23 24 25 26 29 33 33 31 30 29 29 30 31 32 32 33 36 36 34 32 33 33 37 48 37 38 41 52 52 51 41 35
26 25 26 24 22 21 19 20 21 21 21 22 23 24 25 27 32 32 30 29 28 28 29 30 30 31 33 34 32 33 32 30 32 34 34 34 34 35 40 45 39 40 33
26 25 25 25 22 20 19 19 20 20 20 22 23 24 24 24 28 30 29 28 27 27 28 28 31 31 31 31 28 28 29 27 28 28 31 30 31 32 34 34 41 43 33
28 26 25 24 23 22 22 21 21 20 20 20 21 23 23 23 24 27 27 26 26 25 25 26 28 30 31 30 29 27 27 27 28 27 27 28 28 29 29 31 33 36 34
25 25 25 24 24 23 21 20 21 21 20 20 20 21 23 23 23 23 25 24 24 23 23 25 26 28 29 29 29 29 28 27 26 26 25 24 25 25 27 30 30 32 33
24 23 23 23 24 23 21 18 19 20 20 20 19 19 19 22 23 23 22 23 22 21 23 23 24 25 25 25 28 28 26 26 25 24 23 23 25 26 28 28 30 31 31
22 22 23 23 23 24 21 17 17 19 20 20 18 17 17 18 21 22 21 20 20 20 20 20 19 21 20 21 23 24 25 25 24 23 24 25 26 25 25 27 27 27 27
22 21 21 20 21 21 22 17 16 18 18 18 19 16 16 15 18 20 19 19 19 18 17 16 16 16 17 18 19 20 22 22 22 23 23 23 23 24 24 25 26 26 24
19 17 19 19 18 18 18 15 18 17 17 17 17 16 15 15 16 17 18 18 17 17 13 12 12 13 14 15 15 16 18 19 20 21 22 22 22 22 23 24 25 24 23
18 16 17 18 17 16 16 14 11 13 16 16 16 15 14 14 14 13 13 13 15 13 9 9 9 10 11 12 13 14 14 16 18 18 19 20 21 22 22 22 22 23 22
11 13 12 13 10 10 5 6 3 3 -2 4 11 14 14 14 13 13 11 8 5 8 8 7 6 7 8 9 9 10 10 12 13 15 16 17 18 20 20 20 20 20 21
11 8 4 2 4 7 9 9 11 10 10 8 4 9 7 13 12 12 11 3 3 3 5 4 5 5 5 6 6 6 6 6 7 9 12 14 14 17 18 19 19 19 19
11 11 10 12 11 11 12 11 11 10 9 9 10 11 10 7 -2 -0 -1 -9 0 2 2 2 4 3 2 1 1 0 2 3 4 5 7 9 11 14 15 16 17 17 17
12 13 10 13 12 11 11 11 11 9 8 8 6 4 5 7 3 1 3 -2 -3 0 -4 -0 -0 -1 -0 -2 -3 -6 -5 -4 -1 1 4 6 8 8 12 13 14 14 15
13 14 14 13 13 10 9 11 8 7 8 6 5 5 3 1 3 2 1 -6 -7 -2 -1 -5 -5 -3 -4 -7 -8 -14 -8 -8 -6 -3 -1 3 7 8 7 8 9 10 13
11 9 11 10 9 6 5 7 5 4 4 3 2 4 4 -1 -3 1 -1 -11 -5 -6 -7 -9 -14 -7 -9 -16 -17 -13 -12 -7 -5 -5 -1 1 6 3 1 1 4 5 7
9 5 8 5 2 2 -3 -5 -2 -1 0 0 1 3 2 1 -2 -5 -3 -6 -11 -15 -16 -16 -11 -8 -7 -14 -19 -12 -8 -9 -7 -3 -2 1 3 5 2 2 1 -1 1
1 -2 -3 -4 -9 -12 -12 -9 -10 -9 -8 -6 -2 0 1 1 1 -1 0 1 1 -4 -4 -9 -11 -6 -9 -9 -12 -12 -14 -11 -11 -11 -5 0 -0 -1 -4 -4 -6 -2 -3
0 -1 -5 -6 -9 -11 -11 -14 -16 -16 -14 -11 -7 -3 -5 -2 -2 -2 -1 -1 -1 -1 -2 -2 -2 -3 -4 -7 -5 -5 -14 -13 -13 -14 -17 -6 -6 -3 -2 -7 -8 -9 -5

GFSGL_sfc_dewp_120.txt.gz
Dewpoint
32 32 33 32 33 32 32 32 32 32 32 32 33 34 34 35 36 37 38 39 40 43 53 55 56 57 58 58 58 58 57 56 54 54 56 57 58 58 58 58 58 58 57
31 31 32 32 32 31 30 30 30 30 31 31 32 32 33 33 34 34 35 37 39 41 45 53 55 57 57 57 57 57 57 57 56 53 54 55 57 57 58 57 57 58 58
31 30 30 30 30 30 30 28 28 29 29 30 30 31 32 33 32 33 35 36 37 40 43 47 55 56 56 56 56 56 57 57 56 54 54 55 56 57 57 57 57 57 57
30 29 29 29 29 29 29 29 28 28 27 27 29 30 32 32 32 32 33 33 34 35 38 39 41 40 42 52 56 57 57 57 56 56 55 54 55 56 57 55 54 54 53
27 26 26 27 27 27 27 26 26 26 26 26 27 28 31 31 32 31 30 31 31 32 32 34 36 37 37 38 46 56 57 57 56 55 54 54 54 54 54 55 54 49 46
26 25 24 24 23 24 24 24 23 23 24 25 26 26 28 30 33 32 30 29 29 29 29 30 32 34 34 36 38 40 43 56 55 55 54 54 54 54 55 55 48 46 47
26 25 24 24 23 22 22 21 22 22 23 24 25 25 26 28 31 30 30 29 28 28 28 29 29 30 31 34 36 35 34 34 35 44 54 54 54 55 55 54 50 52 51
25 25 24 23 22 21 21 20 20 20 21 23 23 23 24 27 29 28 28 28 27 28 28 29 28 29 31 32 34 34 32 32 32 33 33 34 38 54 55 55 53 46 36
25 24 25 23 21 20 19 18 19 19 19 20 24 23 22 23 26 27 25 25 25 25 26 28 28 28 31 31 29 30 31 30 32 34 33 34 34 35 40 49 43 44 34
25 24 24 23 21 19 19 19 19 14 19 20 20 22 23 22 24 25 25 23 22 23 24 25 27 29 31 30 27 26 25 25 28 31 32 32 32 32 33 34 46 47 34
26 25 24 24 22 21 19 19 19 17 18 18 17 18 20 22 21 23 23 22 21 21 21 22 25 27 28 29 29 27 26 27 27 28 29 30 30 29 29 31 32 35 35
24 25 24 23 24 22 18 19 19 20 18 16 16 16 17 19 21 21 22 21 21 20 20 21 22 23 25 26 26 27 27 26 26 25 25 24 25 27 28 29 31 31 33
24 22 23 23 24 20 18 17 17 18 18 15 14 14 15 17 19 20 20 20 19 17 19 19 20 20 20 21 23 24 23 23 23 23 23 23 25 26 28 28 30 31 31
20 20 21 21 20 19 17 16 16 16 16 15 13 13 13 14 15 17 17 17 16 15 14 15 14 17 15 16 17 19 20 21 21 21 22 24 25 25 25 26 26 27 28
17 18 19 19 19 18 16 16 15 16 15 14 14 12 12 12 13 14 14 14 14 13 10 10 10 10 11 12 13 14 16 16 17 19 20 21 22 23 24 25 25 26 24
16 17 18 17 17 16 15 14 17 17 16 16 16 15 13 14 14 13 13 13 12 11 7 6 5 7 8 8 9 10 11 12 13 16 17 18 20 21 22 23 24 23 22
16 15 16 16 15 14 13 12 9 12 16 16 16 15 14 14 14 13 11 9 10 7 3 3 3 4 5 6 6 7 7 8 11 12 13 14 16 20 21 21 21 22 22
9 11 9 10 8 7 -1 -1 -3 -0 -3 3 10 15 15 14 13 12 10 6 2 3 2 2 1 2 2 1 0 0 3 5 6 8 10 11 12 15 18 19 19 19 20
4 2 1 3 3 3 5 5 3 3 3 5 6 10 8 14 13 12 10 0 2 1 1 1 1 0 -1 -2 -2 -3 -1 0 2 4 6 8 10 12 14 15 17 18 19
7 9 9 9 8 8 8 8 8 7 6 5 7 7 8 6 1 0 -2 -7 -0 2 1 1 0 -1 -2 -3 -3 -5 -3 -2 -1 1 2 5 7 10 11 12 14 15 17
10 12 9 12 10 10 9 9 8 7 7 6 5 2 4 6 5 2 3 0 -1 1 -1 -1 -0 -2 -3 -3 -4 -7 -5 -4 -3 -2 -1 2 5 7 9 10 12 13 14
12 13 11 11 9 7 7 7 4 3 3 2 2 3 2 2 2 3 4 0 -4 -1 1 -1 -3 -2 -2 -7 -8 -11 -7 -6 -4 -3 -3 0 4 7 6 5 7 8 10
10 7 7 6 6 1 -1 1 -1 -1 -1 -3 -0 1 1 1 0 -1 -2 -3 -1 -2 -4 -5 -6 -2 -2 -8 -11 -10 -8 -7 -5 -5 -3 -1 2 5 6 5 4 4 5
6 3 5 2 -2 -2 -10 -12 -9 -8 -6 -7 -10 -4 -4 -2 -2 -2 -1 -1 0 -0 -0 -4 -3 -2 -2 -3 -6 -7 -5 -8 -6 -5 -8 -1 1 3 3 4 4 2 2
-1 -5 -6 -8 -13 -18 -18 -16 -18 -20 -18 -16 -14 -10 -7 -7 -6 -8 -7 -5 -4 -3 -2 -2 -2 -3 -2 -2 -2 -2 -9 -11 -11 -13 -8 -5 -4 -1 1 0 -2 0 -0
-2 -4 -8 -10 -14 -17 -22 -26 -28 -28 -26 -22 -21 -19 -19 -15 -12 -14 -12 -11 -10 -10 -9 -6 -5 -5 -5 -2 -1 3 -5 -11 -11 -12 -13 -8 -8 -5 -4 -2 -3 -3 -3